GFSGL_2pvu_pres_000.txt.gz
Presure
202 209 205 196 207 221 250 261 265 256 288 306 302 308 305 304 283 287 267 270 255 256 262 269 310 253 256 281 307 267 267 261 261 262 279 293 291 296 304 312 317 346 391
221 202 222 231 236 241 187 255 285 281 297 312 310 311 303 278 292 314 294 385 371 360 352 345 331 281 289 331 278 269 281 389 327 291 386 377 369 358 309 365 300 296 384
215 229 229 236 237 254 266 276 298 310 320 316 299 296 316 345 405 447 439 395 425 416 408 398 393 387 385 284 304 379 379 379 376 375 372 369 364 292 290 294 279 279 316
229 235 233 234 243 276 291 307 316 304 278 307 336 388 436 441 431 420 414 407 401 393 387 381 377 371 371 371 369 363 358 359 362 368 370 367 364 352 348 344 346 349 354
224 227 238 252 311 308 326 319 289 303 345 426 435 426 429 422 417 407 395 388 381 375 367 363 360 359 359 358 358 356 360 360 351 342 340 338 342 361 368 348 344 343 348
241 250 254 268 318 326 289 280 347 414 417 414 420 407 398 399 387 386 381 372 367 360 352 348 351 348 348 352 357 343 329 341 332 328 325 325 330 342 341 375 358 350 342
260 277 319 318 297 282 332 369 405 417 413 411 404 400 391 384 378 369 363 362 356 346 347 340 337 342 354 348 341 329 310 331 385 397 401 410 422 436 361 334 360 362 350
293 317 315 280 319 345 414 421 422 415 409 398 394 388 377 365 355 356 356 350 340 345 336 336 344 348 338 329 303 362 359 351 351 352 352 356 366 376 393 426 313 338 365
321 289 274 339 405 399 404 411 403 390 380 375 368 362 359 358 357 354 348 342 345 335 336 346 352 334 308 311 355 343 338 340 349 345 340 361 345 347 357 376 392 405 324
276 285 358 413 389 381 404 390 377 368 361 355 351 350 346 345 346 342 338 335 333 336 349 350 330 296 355 331 321 328 328 323 347 325 363 338 323 369 350 352 367 382 405
330 405 409 385 395 396 382 371 362 351 346 343 341 342 346 353 354 352 350 348 348 348 331 330 295 308 323 309 314 308 424 371 418 409 396 388 380 382 373 405 350 366 380
424 398 382 403 391 380 366 355 346 344 350 356 356 352 351 346 338 331 330 334 341 336 303 303 292 323 312 304 309 325 380 380 374 411 406 398 400 397 388 414 390 349 355
396 383 402 386 376 364 352 345 352 353 344 330 320 313 319 351 343 341 304 306 310 299 328 286 309 315 300 292 297 301 292 295 324 332 342 387 409 396 381 384 398 374 350
404 401 387 374 357 351 344 354 348 348 354 358 364 409 449 454 467 482 351 346 378 316 292 300 306 303 289 292 293 289 284 311 307 298 300 322 352 424 415 385 380 383 363
395 384 369 353 347 342 351 339 356 374 461 446 436 439 442 446 459 465 435 348 314 311 285 320 316 291 290 283 293 279 281 296 281 297 305 311 273 319 388 411 406 382 379
375 363 354 344 344 348 334 344 453 447 432 423 430 435 446 455 445 440 417 407 301 290 316 302 300 291 288 287 281 288 286 282 287 274 291 292 312 308 307 417 444 434 410
360 351 337 349 342 331 339 433 443 420 416 416 416 416 426 430 430 404 393 373 360 331 322 314 296 294 293 285 273 287 275 289 281 285 283 296 292 308 306 330 465 476 472
349 337 335 334 329 337 329 450 432 412 405 393 396 405 429 431 394 384 364 355 337 318 307 297 294 290 282 286 277 282 284 286 280 284 279 294 273 299 304 302 334 356 464
342 331 334 324 338 319 432 432 413 402 387 378 389 415 438 394 379 362 348 343 323 317 311 292 290 285 278 286 284 281 273 284 283 281 286 287 290 286 281 301 311 326 355
327 334 320 327 318 329 422 418 400 392 373 372 410 415 420 378 364 346 339 332 317 307 309 290 291 281 267 281 284 279 285 282 279 279 282 284 289 290 298 301 312 300 317
331 319 320 329 306 356 411 411 395 380 362 363 404 405 378 361 349 337 331 326 314 297 306 286 291 285 266 279 284 264 268 264 273 284 286 277 279 288 288 295 301 314 297
320 312 316 316 307 351 345 412 391 370 362 358 388 386 370 351 340 327 327 319 309 294 304 291 282 284 282 278 286 266 279 272 276 277 284 280 289 280 280 288 300 294 313
313 316 308 311 339 334 337 419 395 372 363 350 362 377 354 343 336 326 317 314 308 296 295 294 281 280 278 280 278 276 268 271 274 277 284 283 281 286 294 281 290 298 302
312 316 314 305 333 325 335 340 415 386 359 369 347 368 356 338 332 327 316 314 307 300 295 294 280 278 281 277 270 273 280 278 276 278 276 284 285 280 282 293 282 291 303
314 312 307 300 331 318 332 335 380 405 367 356 342 350 367 341 333 329 318 310 309 304 297 299 293 282 278 278 290 279 271 272 275 279 279 280 281 282 278 289 291 291 295
315 309 306 301 326 316 323 337 364 407 395 360 348 343 354 366 339 329 328 316 308 308 301 294 293 297 290 284 281 282 282 279 278 280 283 281 285 282 284 282 290 292 299

GFSGL_2pvu_pres_003.txt.gz
Presure
210 208 204 206 227 221 228 238 253 274 275 277 286 321 327 325 305 288 292 317 408 415 412 431 381 367 358 350 346 288 277 273 282 281 331 322 297 280 279 273 257 304 317
199 215 219 225 224 231 262 266 288 278 277 315 329 323 285 296 362 463 461 445 440 435 435 429 426 429 428 425 427 428 377 367 363 363 331 253 289 304 307 292 293 290 294
215 211 219 217 229 246 275 315 297 293 331 319 279 325 442 434 404 407 437 427 419 410 408 408 407 406 406 407 403 396 394 396 400 402 328 289 310 268 264 267 266 262 277
211 226 218 231 241 297 315 300 309 324 280 318 443 421 396 402 416 410 405 402 404 390 391 389 385 386 386 385 385 383 383 383 384 389 392 387 309 284 339 383 385 380 378
217 213 226 250 323 315 318 320 315 287 360 429 401 417 417 410 404 399 396 394 395 386 381 377 370 366 364 362 362 363 368 370 368 370 375 376 376 380 376 371 364 364 373
225 241 298 319 314 315 323 307 329 444 415 406 418 407 396 386 381 384 385 382 379 376 369 364 362 361 362 360 357 352 345 347 349 361 373 370 358 361 362 360 366 375 372
252 294 320 321 322 319 292 366 420 401 406 409 397 386 378 372 366 361 360 359 359 354 357 357 356 357 349 348 339 342 352 357 351 348 345 339 336 334 337 338 342 350 349
307 330 328 320 285 301 421 426 402 399 399 390 379 369 361 355 354 353 351 348 348 349 349 347 346 337 347 336 338 348 338 334 328 343 346 369 368 366 371 365 356 323 328
334 315 274 278 354 430 414 413 402 393 384 369 359 352 347 343 348 349 348 341 338 344 346 344 342 341 337 346 337 322 365 361 351 344 343 347 351 359 362 368 363 368 382
274 283 308 430 431 416 398 400 392 379 366 361 351 353 362 359 354 353 355 359 354 349 346 348 345 344 346 323 302 336 324 330 328 322 338 348 343 353 357 338 337 358 361
282 324 442 424 407 403 394 383 373 363 353 360 364 354 355 339 322 314 313 319 335 349 356 355 346 325 303 324 317 309 305 334 407 420 432 424 415 408 391 385 362 353 334
341 437 418 402 394 392 376 365 357 362 364 341 372 466 461 457 456 459 468 423 307 313 332 340 317 310 298 301 302 313 296 305 290 302 320 348 383 424 409 397 402 397 399
431 415 397 394 387 372 354 353 357 341 360 454 452 438 429 431 442 454 464 471 419 345 298 329 295 306 290 302 319 292 300 292 293 304 308 321 303 333 395 415 398 389 389
405 396 390 383 369 349 348 346 337 351 441 451 425 417 425 439 454 448 453 466 452 326 359 308 303 302 321 304 293 291 290 291 292 284 284 275 293 304 325 339 408 398 377
392 392 381 363 349 340 339 336 346 411 445 423 410 408 410 422 452 440 447 430 414 339 343 323 347 281 297 302 288 300 291 282 284 280 295 280 285 299 303 274 291 395 400
378 380 365 357 335 337 330 333 371 439 423 403 393 391 400 429 431 433 413 396 376 326 300 352 293 304 303 289 287 296 281 290 279 282 280 284 291 300 292 307 310 329 433
387 366 356 334 334 323 334 321 355 416 402 390 380 385 426 430 409 400 385 373 379 324 303 291 287 296 309 291 288 287 279 280 283 278 285 276 293 290 293 294 302 322 350
366 352 336 333 322 327 322 349 346 411 396 373 370 421 431 423 400 379 369 367 360 323 314 303 312 291 295 287 286 282 278 278 278 282 283 278 283 281 289 297 305 313 315
348 342 332 323 319 328 311 339 341 408 382 365 367 411 428 412 381 368 361 354 344 327 322 302 303 300 288 287 285 280 279 284 277 281 284 279 278 284 288 289 301 302 318
345 331 326 319 320 320 306 332 339 416 375 375 363 399 413 382 370 357 348 343 336 325 315 305 294 297 290 285 280 283 278 284 282 281 273 279 284 271 264 281 290 300 297
334 328 321 317 321 312 323 325 338 383 386 369 357 377 399 371 360 345 335 335 330 316 308 307 293 292 288 292 281 280 278 277 262 269 266 275 284 277 287 287 294 291 301
327 322 317 317 323 305 333 320 330 355 408 364 356 359 381 364 352 335 331 328 323 316 304 302 299 292 277 291 281 266 276 282 276 277 270 279 272 285 280 284 271 295 290
326 316 314 316 323 301 330 319 324 341 380 385 366 350 367 366 349 336 330 322 320 318 306 299 293 303 292 274 286 280 280 278 270 268 275 270 274 281 282 273 278 289 291
318 317 315 316 309 313 328 315 317 328 379 412 365 352 346 372 349 336 330 321 320 319 311 306 295 285 298 293 279 280 276 282 275 274 278 278 274 278 276 281 286 278 287
317 315 314 314 300 339 324 311 317 327 393 371 403 363 347 341 354 341 335 323 320 314 313 308 302 292 298 293 298 280 281 281 271 272 278 275 281 279 280 281 285 289 286
320 311 313 300 304 335 317 313 318 327 400 391 365 390 357 347 345 352 336 330 325 320 312 310 308 303 296 294 294 289 281 279 277 280 285 289 281 280 284 287 290 288 290

GFSGL_2pvu_pres_006.txt.gz
Presure
203 203 213 197 216 218 213 227 223 227 249 256 278 326 336 338 343 339 334 329 418 408 405 401 411 411 429 435 439 447 372 348 307 293 304 319 300 296 297 305 291 299 303
121 125 128 218 217 212 231 219 244 258 274 336 349 349 338 290 299 422 411 435 434 422 420 413 413 412 408 406 415 417 420 421 388 366 356 309 304 288 292 304 269 276 284
129 136 221 215 215 232 247 254 270 289 342 352 281 286 325 423 410 404 401 411 409 407 404 399 397 395 392 395 399 404 412 418 423 428 422 425 412 376 276 279 272 265 268
213 213 217 238 247 263 291 314 325 352 272 282 304 435 433 408 391 406 399 393 383 382 388 390 387 381 381 379 384 389 391 395 400 408 402 399 400 401 372 259 258 265 265
208 243 255 252 286 323 322 329 284 283 294 409 426 414 399 401 400 390 382 376 367 362 367 376 384 382 374 374 368 364 364 366 372 378 380 373 375 382 384 387 395 396 378
253 261 262 334 315 322 261 288 280 383 435 421 405 410 397 391 386 380 370 363 361 355 353 355 364 375 377 374 368 365 362 362 360 370 369 362 357 366 371 373 376 382 387
315 317 321 321 257 285 284 358 447 427 410 402 403 394 384 377 373 367 360 352 342 340 344 348 352 356 358 361 362 365 365 356 351 348 348 348 353 364 373 376 382 381 383
311 301 267 274 283 329 452 437 420 410 401 394 379 370 365 363 361 361 360 357 353 351 351 343 342 347 354 355 351 342 346 348 343 352 350 351 355 356 357 356 357 386 365
334 350 287 284 435 437 424 409 403 396 382 366 359 361 363 360 354 346 343 340 341 345 348 359 353 338 345 349 340 343 338 347 340 364 367 360 360 367 370 370 362 376 374
286 275 310 443 423 408 402 400 394 378 357 353 352 349 345 418 469 466 460 462 468 390 337 347 358 355 339 342 340 339 325 336 333 323 337 339 342 343 336 339 345 353 361
291 354 428 416 397 392 391 392 376 354 350 346 342 387 466 454 437 433 437 440 444 453 373 313 347 356 351 343 334 308 331 304 321 335 314 359 383 421 430 419 413 392 361
429 418 405 394 384 382 390 374 353 348 339 341 372 440 429 419 416 423 444 459 450 461 478 307 336 349 349 325 299 330 298 310 296 304 305 316 320 327 322 350 432 412 394
413 401 386 381 375 387 372 350 347 335 337 363 381 416 403 397 404 419 445 450 454 473 481 362 304 351 309 294 323 305 292 294 300 292 299 290 300 306 307 328 323 418 429
412 467 418 380 370 371 351 344 335 335 350 355 409 397 386 393 419 429 436 448 449 441 431 345 306 317 298 300 304 296 292 298 292 289 292 294 294 294 307 305 314 325 334
475 433 387 370 372 354 337 333 334 328 349 350 409 382 380 423 430 425 430 419 411 403 384 325 313 301 293 326 293 315 290 300 287 285 277 289 289 292 288 306 295 310 282
432 386 373 367 357 336 334 326 329 322 346 356 394 379 398 434 419 418 400 392 382 370 350 314 317 303 319 309 279 295 287 293 280 286 275 280 286 279 279 289 295 302 317
387 373 362 353 337 329 325 326 320 344 341 362 383 378 420 430 406 390 380 370 360 349 323 307 328 336 297 284 283 289 279 289 280 280 289 284 284 279 280 286 288 290 302
372 361 346 337 329 323 320 329 311 338 333 363 385 369 412 428 389 376 366 355 351 337 319 308 327 306 292 291 289 287 278 281 282 271 282 281 290 279 278 278 278 282 292
363 347 336 331 323 319 318 323 310 332 327 358 387 367 402 418 379 364 357 352 354 336 319 325 319 292 285 291 287 286 280 277 279 278 279 280 281 280 289 278 272 282 298
349 339 330 325 320 319 320 311 334 328 321 340 393 370 380 390 371 357 350 344 345 332 318 317 310 291 297 293 290 286 279 276 277 275 281 283 272 268 279 286 282 288 293
345 333 326 320 320 318 325 302 332 320 319 330 409 371 357 382 362 355 342 337 338 328 315 314 306 288 295 288 293 287 277 276 275 278 275 265 268 266 276 280 290 285 289
334 323 322 319 322 314 313 301 334 316 317 329 383 381 365 367 364 351 338 333 328 327 317 314 305 292 286 289 284 289 281 278 273 268 276 278 277 279 271 276 278 286 282
325 324 319 322 316 312 300 321 330 313 318 325 377 402 368 352 373 358 338 330 325 324 324 314 306 296 291 291 281 283 276 283 277 268 267 276 275 269 279 272 279 283 278
326 321 323 315 308 303 308 333 317 312 320 322 329 401 400 361 347 372 351 333 328 325 321 318 308 305 292 295 290 289 287 271 278 280 273 268 280 277 278 279 279 285 282
327 325 313 307 304 311 328 318 305 318 321 325 327 413 392 395 359 343 371 348 334 327 320 319 315 309 304 293 296 286 294 297 287 279 281 276 271 278 275 281 288 288 285
329 302 304 305 313 313 292 314 315 318 322 326 324 353 414 383 384 360 343 365 345 336 327 320 316 315 310 306 300 298 293 285 291 296 296 282 280 283 279 279 282 288 290

GFSGL_2pvu_pres_009.txt.gz
Presure
195 196 204 210 213 211 222 224 226 234 248 253 265 305 281 345 274 272 289 300 391 439 427 420 426 427 426 422 401 386 399 404 419 427 427 380 331 304 300 304 326 319 316
199 204 205 205 214 226 232 232 241 254 271 334 339 350 268 279 289 437 428 423 411 401 403 400 404 405 409 407 405 395 395 393 392 420 437 413 414 348 329 310 284 324 324
202 206 204 224 236 215 241 253 346 339 292 354 340 296 290 448 433 427 414 406 406 397 391 388 383 379 381 392 391 388 389 390 398 405 414 417 427 408 353 342 328 289 320
212 205 227 226 247 260 293 313 268 297 311 279 295 451 439 425 415 408 398 397 395 391 387 378 371 368 366 369 384 385 378 381 383 383 393 400 407 418 431 406 342 338 304
225 236 249 251 279 364 275 339 299 300 315 420 437 429 419 409 408 390 380 370 368 369 370 375 364 360 359 359 366 379 379 372 377 373 369 370 375 381 392 405 416 410 350
251 257 268 351 361 353 293 297 316 395 437 420 416 414 402 390 381 366 363 361 358 359 358 356 357 357 349 350 353 358 375 372 368 361 352 349 353 359 368 371 378 390 401
349 349 346 346 299 305 314 339 433 429 409 400 406 393 382 366 365 355 352 350 348 346 351 362 365 358 349 343 345 351 356 365 366 365 358 355 366 367 365 362 363 370 378
295 271 295 302 303 323 401 428 412 403 390 404 385 375 361 355 353 341 371 469 461 457 464 474 343 357 369 360 339 344 352 355 358 355 349 348 351 350 351 351 357 358 360
262 288 296 325 360 431 417 402 390 389 396 380 364 356 349 345 363 406 433 425 426 431 435 447 462 367 346 357 356 340 350 350 348 347 341 338 338 346 354 361 375 404 370
317 312 341 443 417 408 399 439 398 384 382 358 348 342 345 362 384 414 402 403 413 427 446 452 449 457 333 352 363 341 347 345 336 337 342 339 349 363 373 366 351 349 358
321 409 427 414 487 482 453 409 385 380 356 345 336 338 347 355 410 394 397 414 432 446 470 456 458 469 308 357 364 345 341 334 337 370 345 312 309 318 339 370 418 435 430
435 418 477 492 432 424 410 386 379 354 346 334 334 336 351 420 394 387 434 433 438 444 453 463 484 500 309 361 358 344 327 334 311 301 294 294 298 304 309 326 325 325 339
436 501 400 390 435 404 387 373 351 341 331 332 327 347 360 397 387 434 439 435 448 458 455 453 455 333 308 366 350 321 309 298 296 296 292 297 292 301 301 307 300 319 340
411 516 482 433 392 385 367 348 337 332 330 327 329 342 402 387 441 428 428 428 417 415 418 421 329 319 352 341 347 293 302 306 294 291 294 298 298 302 302 291 307 314 307
494 451 407 376 353 360 348 335 332 324 331 318 338 340 393 382 430 416 403 396 395 394 385 353 322 313 325 309 302 313 297 294 289 289 289 289 284 292 291 293 294 298 301
384 382 363 372 360 344 338 331 322 327 317 336 334 338 386 417 424 393 388 381 378 370 362 326 313 304 301 303 301 304 284 287 290 289 285 290 277 289 281 290 290 288 293
371 368 370 354 345 338 330 324 322 332 304 333 326 338 382 415 400 381 376 368 362 355 344 319 308 301 297 299 310 293 275 286 282 290 277 279 289 281 287 284 283 284 290
376 368 351 354 341 331 324 326 319 321 307 333 321 331 381 404 392 376 367 357 351 346 333 317 305 299 301 293 297 290 275 287 277 288 278 279 276 281 290 284 281 283 281
354 365 353 345 330 326 324 320 318 307 333 328 320 331 386 373 387 370 362 350 346 335 323 316 307 305 315 302 290 289 276 291 277 280 275 278 278 284 283 278 282 291 282
373 363 347 332 328 326 328 310 316 308 339 320 317 330 349 372 382 368 358 349 345 336 330 319 308 308 316 308 283 298 281 286 284 275 273 278 272 281 284 272 274 277 286
347 338 334 333 327 328 315 307 305 324 338 311 323 328 330 385 364 371 357 346 340 336 330 320 309 311 310 301 286 299 290 276 285 274 276 274 272 279 278 269 277 277 275
342 334 330 328 331 314 308 307 320 320 315 312 322 325 330 393 374 365 364 349 338 336 331 324 312 306 305 300 285 281 296 280 285 287 273 274 274 272 277 281 283 279 281
342 333 332 334 315 307 307 319 295 291 318 314 321 328 331 333 408 367 358 363 343 335 327 325 320 305 302 302 290 280 284 283 279 290 281 279 276 273 267 276 279 278 277
346 338 336 305 306 306 319 306 299 298 316 324 323 328 327 327 428 403 363 355 356 340 335 326 323 314 306 303 297 290 283 285 284 278 270 278 281 280 279 276 277 282 283
346 326 307 305 309 322 301 306 302 297 318 321 323 322 323 327 343 429 400 365 355 355 339 332 326 323 318 308 305 298 292 290 291 285 289 288 289 275 275 278 283 279 278
318 307 306 316 315 298 310 303 309 317 318 319 322 322 324 330 338 363 428 395 371 349 363 346 333 329 323 320 314 307 304 298 290 288 292 289 286 291 294 293 295 298 285

GFSGL_2pvu_pres_015.txt.gz
Presure
186 186 194 195 195 205 205 214 234 239 248 261 291 282 352 351 349 420 446 429 418 416 412 413 417 414 410 408 408 410 413 409 418 419 409 412 432 434 413 435 459 333 308
194 195 193 198 203 213 215 228 256 261 297 284 274 357 344 453 439 427 413 405 401 396 398 406 396 392 387 384 380 378 386 394 408 402 397 401 401 424 410 405 429 437 327
194 194 203 205 220 226 259 272 269 316 391 362 344 448 475 524 495 466 437 414 397 395 394 380 375 372 366 365 367 365 363 365 371 397 393 384 387 404 408 424 393 424 434
196 206 206 211 255 252 264 274 328 377 340 448 424 438 449 411 466 439 417 400 394 380 367 361 357 357 360 359 356 355 354 356 359 364 386 378 373 379 398 411 424 378 417
209 205 239 247 260 257 290 325 366 325 442 456 435 406 447 426 421 405 391 374 365 358 353 353 355 355 362 371 403 428 379 350 350 357 367 372 362 364 382 396 406 392 411
236 242 244 263 252 306 337 371 336 451 440 406 404 457 417 397 389 371 356 351 351 352 351 352 363 420 425 412 410 418 434 465 402 353 361 369 358 361 376 389 391 400 396
242 245 258 254 296 331 360 374 451 472 435 448 461 407 379 366 357 353 348 348 347 358 363 399 412 406 404 400 402 414 422 437 468 349 361 362 353 353 369 386 379 384 394
250 258 255 266 335 358 378 430 407 436 454 418 389 369 359 351 348 348 341 351 356 384 434 462 461 449 447 445 441 433 439 441 461 350 363 357 350 354 368 385 379 372 371
263 264 259 322 358 443 429 405 403 396 395 376 363 352 348 346 342 338 349 351 399 441 439 448 449 446 441 442 447 455 457 450 403 355 362 348 350 356 369 380 372 370 364
302 255 319 371 454 429 402 384 376 396 377 361 349 344 345 340 337 326 350 402 426 427 418 423 435 454 452 447 454 461 451 456 340 365 347 345 360 364 358 354 357 356 357
251 317 379 454 438 406 382 369 378 374 361 349 341 339 337 338 324 349 348 437 410 402 404 407 418 429 443 465 471 461 461 330 366 357 346 357 347 339 340 346 358 367 368
318 387 402 446 415 385 365 357 376 363 353 344 335 336 334 318 346 342 401 406 398 396 397 409 418 429 443 453 465 382 311 363 352 358 351 340 352 336 319 314 313 313 316
370 396 458 426 393 368 349 362 369 362 345 335 336 324 319 351 329 345 421 396 389 387 388 389 396 411 357 330 319 311 352 360 346 342 344 313 298 302 298 291 294 303 316
364 468 437 403 373 352 342 368 363 355 336 335 332 317 323 338 324 343 404 387 383 380 372 368 342 323 321 345 342 348 333 335 350 311 293 302 288 281 287 292 289 287 288
461 444 413 382 354 339 354 364 360 340 335 335 318 316 328 325 330 342 401 382 375 369 362 338 321 315 325 339 334 327 344 327 295 294 297 283 283 297 294 297 297 301 299
443 415 387 360 333 330 355 353 342 339 335 315 311 325 308 324 332 343 384 385 370 364 358 328 315 311 334 332 322 336 314 296 283 296 284 284 288 278 278 281 290 286 289
388 371 355 339 328 341 353 347 338 339 317 310 317 315 304 315 333 335 333 389 370 359 356 330 312 306 327 329 324 330 290 280 300 287 281 286 280 277 282 283 286 285 290
373 358 344 337 338 346 355 347 341 326 308 305 323 303 308 323 330 332 336 391 376 361 351 350 315 306 305 313 313 302 296 283 295 288 280 283 282 278 280 282 281 279 282
366 366 355 347 347 345 357 349 339 312 308 320 301 310 314 323 325 325 329 333 385 367 352 346 324 306 301 295 312 295 291 290 296 285 279 281 283 279 279 275 276 278 281
362 385 367 361 350 344 353 348 309 310 320 299 310 307 315 320 326 329 328 332 343 381 362 347 342 318 304 296 292 304 299 288 290 285 291 275 285 276 281 277 275 276 277
359 364 338 369 351 345 329 310 311 321 299 304 293 302 308 317 319 321 330 334 341 391 379 359 341 343 318 304 295 291 289 280 297 285 284 290 274 284 278 276 276 274 275
351 329 319 369 337 309 319 313 321 300 304 290 292 305 315 310 319 321 328 336 339 340 427 378 356 345 337 324 306 300 293 292 288 300 286 280 282 276 279 283 276 274 276
338 322 335 314 311 323 318 322 296 305 291 293 295 314 311 313 317 322 332 338 354 352 348 416 379 355 347 334 330 311 305 300 295 294 296 292 280 278 285 274 275 283 283
332 340 301 307 328 328 326 298 303 293 293 312 314 316 319 320 326 328 336 346 357 363 357 354 418 384 355 348 335 332 327 313 301 308 300 294 298 287 277 286 295 286 276
327 328 312 337 346 304 296 301 300 306 308 314 320 323 325 327 329 334 337 347 356 364 367 361 361 422 385 359 347 336 333 325 315 313 310 310 306 304 304 296 281 288 292
338 284 327 338 301 301 308 307 303 301 307 314 318 322 327 330 333 337 339 345 352 362 370 364 365 370 415 379 362 351 339 335 328 323 316 311 308 307 307 305 301 298 291

GFSGL_2pvu_pres_018.txt.gz
Presure
179 190 187 184 195 202 204 204 206 225 256 258 269 263 279 368 371 454 433 435 405 456 470 455 435 418 406 398 399 406 403 402 412 413 415 414 420 421 423 435 450 470 435
185 187 186 194 204 203 205 222 231 253 265 272 277 310 362 443 447 434 441 397 442 423 419 416 410 401 395 393 388 382 377 376 383 384 382 387 403 409 412 412 419 439 455
190 186 203 206 201 207 229 246 254 272 262 282 315 377 455 418 420 414 490 430 406 391 378 373 367 365 363 362 361 359 358 355 359 361 361 359 364 386 406 407 408 405 437
189 201 207 201 214 228 249 253 273 268 283 395 420 474 415 452 434 450 408 386 371 360 356 352 351 352 354 355 356 355 353 352 354 361 355 353 361 362 381 400 397 400 422
201 206 202 218 230 254 256 266 271 338 379 459 436 414 401 465 429 395 375 361 353 351 350 350 348 346 357 362 366 366 366 365 372 416 372 372 350 357 364 391 394 389 403
206 208 223 240 253 257 279 267 394 373 469 429 404 397 381 391 382 367 354 349 347 349 342 340 359 361 477 480 464 423 413 410 411 407 412 438 375 349 359 379 389 382 381
213 234 238 250 260 273 265 402 428 466 427 400 391 381 390 371 363 352 351 346 341 339 359 365 441 439 447 466 452 456 451 436 410 407 406 426 475 347 356 371 380 376 374
234 236 255 262 274 266 398 489 464 432 401 383 374 386 369 363 351 348 343 335 351 353 397 422 417 417 423 438 458 447 444 448 448 443 437 434 473 349 356 379 371 365 375
234 254 257 254 273 376 492 468 432 403 378 360 378 367 358 350 349 339 329 354 339 358 410 406 412 418 424 434 448 445 442 446 449 452 454 450 474 344 369 368 356 359 374
253 258 259 271 292 491 473 437 405 376 354 378 366 360 348 343 338 326 356 331 347 408 399 400 408 414 428 441 449 460 442 460 476 472 454 459 349 364 351 346 355 363 382
265 259 277 287 489 473 448 411 377 352 359 374 366 350 342 343 324 332 328 336 351 399 391 390 391 402 419 443 457 471 472 453 453 426 335 360 355 347 353 365 383 379 371
259 245 314 401 472 450 414 379 353 337 363 373 353 344 342 328 321 322 311 342 375 394 383 378 377 381 395 410 454 401 390 324 333 356 360 343 359 356 343 336 341 347 351
247 310 351 467 440 390 374 355 341 336 358 349 345 339 328 311 328 311 340 350 373 390 378 371 362 336 325 324 320 340 363 365 344 349 358 340 342 350 351 334 325 319 314
311 389 460 446 400 372 359 346 338 351 360 347 341 335 316 324 315 312 335 349 366 391 374 367 332 321 318 334 337 341 351 353 340 340 346 335 319 308 304 305 303 303 301
333 398 444 417 380 367 357 347 343 351 357 344 339 316 317 321 312 323 334 335 340 389 372 355 325 317 319 330 340 330 329 336 344 322 313 303 302 296 288 286 289 290 289
388 432 425 386 364 371 360 350 350 352 359 344 317 313 323 308 314 327 334 336 339 394 374 360 322 313 313 333 328 324 343 327 308 294 298 280 287 283 287 290 285 288 295
427 427 406 373 360 350 362 312 352 354 357 316 310 324 308 307 309 315 327 335 336 337 381 361 330 311 309 330 321 322 324 302 285 280 289 279 280 297 291 284 279 283 289
421 423 392 368 359 350 370 359 348 350 325 314 323 302 306 298 306 314 319 325 333 341 382 373 352 319 306 311 322 323 313 296 286 284 286 278 274 287 279 277 282 286 289
409 415 380 360 352 336 369 358 323 344 317 319 300 306 295 292 303 318 316 322 328 336 340 395 366 344 311 303 303 316 300 298 285 276 286 283 280 283 279 276 282 281 283
402 401 366 356 346 333 335 314 317 322 319 306 306 297 295 301 316 316 318 322 327 335 346 342 394 362 340 310 300 295 320 280 293 286 292 283 277 278 281 281 276 283 277
415 388 358 354 338 334 317 314 330 321 309 301 299 301 310 316 319 323 327 331 334 341 353 363 343 395 361 339 311 299 293 324 282 280 287 296 283 283 281 276 279 276 282
410 373 351 336 331 325 314 338 327 311 297 301 308 309 312 319 326 331 334 336 337 341 354 367 370 346 397 363 337 315 303 294 293 281 282 279 282 286 280 284 274 283 277
396 359 344 337 331 319 329 347 300 304 304 309 302 303 311 316 320 324 340 346 345 342 347 361 377 372 351 406 364 340 324 308 299 295 294 284 281 285 279 279 278 279 276
377 350 335 341 324 323 318 304 312 307 304 304 303 301 303 305 312 317 326 360 355 354 348 354 365 379 377 357 423 369 344 329 331 305 302 296 293 292 294 292 290 279 278
361 343 326 329 324 315 307 314 308 303 293 299 300 300 303 306 309 313 318 340 368 361 356 353 357 370 373 375 362 421 377 350 335 327 332 311 305 302 297 295 293 296 300
354 335 324 313 320 309 309 300 294 294 296 294 297 297 300 299 308 313 317 324 374 373 366 359 354 363 371 370 375 367 415 392 360 345 334 330 329 328 318 309 307 308 305

GFSGL_2pvu_pres_021.txt.gz
Presure
199 194 191 186 183 192 197 197 207 208 214 249 245 261 278 271 290 442 453 471 445 399 438 465 424 406 392 383 380 381 383 393 407 410 308 403 411 409 413 425 434 443 452
194 194 184 192 194 196 204 204 218 233 251 242 274 277 270 315 469 455 491 406 394 384 416 391 381 375 367 363 362 361 361 361 367 373 371 374 378 390 399 401 402 431 433
189 193 194 196 198 203 217 225 233 266 271 267 286 292 494 474 456 436 398 386 408 389 376 370 365 360 356 353 353 352 351 353 356 364 361 356 362 364 368 383 396 415 426
191 196 200 204 207 222 227 247 272 263 270 277 372 506 471 440 408 393 387 385 379 370 363 360 355 353 349 355 363 366 368 370 369 367 363 360 360 358 359 360 372 383 408
204 208 206 226 226 229 242 254 260 266 276 429 499 463 428 398 374 386 379 373 363 355 353 348 338 356 356 380 435 433 436 451 476 467 408 371 367 363 362 361 363 371 375
204 218 227 223 231 241 257 255 260 272 431 493 462 427 391 367 388 376 367 355 352 346 337 365 345 355 423 417 416 422 428 438 463 466 461 419 418 376 375 375 366 359 366
222 221 228 229 238 257 263 261 292 429 484 468 423 389 365 355 380 368 350 349 341 330 353 340 358 417 404 408 418 427 432 436 461 460 452 443 408 414 425 425 407 369 357
229 233 230 236 256 269 260 276 403 473 461 429 388 357 339 384 372 353 347 336 324 338 326 359 413 398 393 408 425 438 441 444 454 448 442 448 423 407 413 411 428 371 351
232 240 242 257 268 256 297 268 423 459 412 382 363 346 366 378 358 350 335 318 336 323 349 366 401 385 385 393 416 443 454 453 445 451 447 449 446 422 414 428 460 376 344
238 251 263 254 237 304 399 424 450 426 382 361 348 347 365 356 349 343 315 334 322 323 352 401 387 371 375 383 397 449 469 473 444 454 487 451 451 452 442 463 337 345 361
250 269 253 253 312 339 430 439 438 395 369 354 349 362 358 352 351 320 329 326 321 343 346 394 376 369 353 351 346 365 484 489 465 450 448 456 459 423 337 351 369 366 353
258 247 242 273 327 431 435 433 403 374 366 353 352 361 359 353 325 324 324 323 332 338 341 392 371 350 331 323 321 320 319 322 322 328 331 350 363 358 355 353 351 353 355
222 239 319 317 428 441 440 412 380 365 364 355 355 363 356 336 320 326 319 316 329 340 341 393 369 337 320 321 336 345 348 347 346 342 345 352 351 358 362 354 346 350 352
250 299 298 333 437 438 424 395 368 353 365 361 351 364 351 318 327 315 311 313 325 336 348 399 372 335 318 316 331 338 341 337 340 344 338 332 332 339 347 353 339 329 325
294 318 388 440 444 417 410 378 361 353 370 361 354 358 322 329 308 308 303 308 321 327 337 340 384 340 320 313 330 331 330 326 328 330 338 342 332 319 314 309 305 304 302
297 339 442 434 425 414 396 368 355 342 375 356 344 327 318 321 310 303 297 320 321 322 330 347 393 364 321 314 322 324 320 332 335 325 315 304 302 301 302 300 296 292 294
303 444 427 426 417 412 383 361 348 336 343 317 327 320 325 303 308 304 315 320 323 324 328 331 341 385 333 317 312 323 319 331 311 304 292 299 291 288 283 287 290 287 288
333 431 435 426 411 406 370 355 341 335 321 318 325 323 298 305 306 317 320 327 332 333 337 335 346 368 369 323 309 322 317 321 303 294 280 292 279 277 278 288 290 279 280
435 410 397 422 416 392 358 349 339 327 318 330 329 304 302 310 313 319 323 326 333 339 340 339 347 360 387 362 320 307 317 322 302 288 285 271 284 280 275 285 284 275 278
412 403 430 421 407 374 350 343 329 322 325 331 303 305 311 307 307 303 312 316 323 351 352 346 347 351 359 388 354 317 308 318 311 298 282 277 283 276 283 277 286 275 277
414 429 428 414 393 360 345 339 325 324 343 302 310 310 305 307 305 305 309 311 317 324 371 362 353 351 355 362 388 353 317 305 319 307 292 285 278 283 279 275 280 282 282
441 433 410 404 375 350 337 335 323 324 308 313 312 306 302 298 301 299 303 309 316 319 330 379 366 354 356 368 366 388 359 322 306 309 310 285 285 281 278 283 282 282 281
429 408 399 394 360 343 339 322 324 314 312 311 299 300 295 299 298 298 296 304 310 318 320 363 382 372 356 360 379 372 380 372 334 311 301 319 299 280 284 280 285 281 279
409 397 406 381 354 337 329 323 318 312 308 300 294 294 293 292 295 295 296 298 305 312 317 325 392 383 373 357 369 374 378 366 388 346 323 309 304 319 298 280 281 283 281
400 404 400 371 349 336 324 324 312 304 304 298 291 290 291 291 293 292 295 297 300 308 318 319 342 391 383 369 358 373 371 381 360 413 365 341 322 310 306 305 307 295 286
395 397 395 366 345 333 320 327 315 311 296 296 291 287 287 289 291 292 292 297 301 307 314 320 330 390 391 385 373 368 372 372 385 369 425 383 354 340 328 315 309 307 305

GFSGL_2pvu_pres_024.txt.gz
Presure
192 200 198 193 188 188 188 186 204 215 232 249 257 254 276 257 285 289 434 480 451 425 407 393 396 396 384 375 368 367 368 371 378 371 369 361 298 392 418 412 410 414 421
204 201 189 190 188 197 203 214 213 236 256 248 274 246 274 274 294 492 469 439 407 387 403 394 382 374 364 362 363 359 358 359 364 366 359 356 362 362 375 398 412 411 413
191 194 191 196 207 214 215 231 245 248 259 259 271 261 279 401 489 465 427 395 373 381 380 376 365 360 357 350 348 364 360 361 379 393 391 375 369 354 367 370 378 397 409
194 200 205 214 215 229 230 248 250 249 264 244 259 275 408 473 459 418 385 361 352 385 375 362 360 347 341 350 348 364 424 421 424 427 433 442 452 422 376 367 371 376 383
207 219 214 218 223 217 240 242 245 244 241 255 274 339 452 451 413 377 358 353 391 372 362 353 333 346 339 358 418 414 407 412 427 435 436 438 445 459 491 376 372 372 368
203 215 219 218 215 227 244 251 255 248 290 278 372 454 452 415 383 362 352 381 366 361 346 323 341 334 360 415 402 390 391 411 439 456 450 446 445 464 477 478 375 371 365
211 220 222 222 225 245 253 239 244 276 294 378 458 450 419 384 366 354 365 364 354 347 326 337 331 353 355 401 381 381 387 402 455 469 454 446 450 455 464 465 427 373 364
214 219 220 224 240 251 239 232 278 308 334 464 446 425 389 371 357 354 366 355 346 325 337 327 343 354 406 387 365 363 365 384 475 477 469 441 440 449 452 450 425 414 368
221 212 234 244 251 246 229 282 281 327 468 450 427 396 371 364 354 360 363 349 319 334 325 328 351 351 397 374 349 338 335 349 496 483 440 452 450 445 444 448 412 412 414
220 237 246 253 251 228 281 280 332 412 452 432 407 377 359 359 358 372 357 318 329 322 323 327 350 352 391 350 328 328 328 327 327 471 444 462 465 450 453 448 411 408 404
238 227 258 210 235 259 332 333 393 448 437 420 389 365 360 363 357 366 323 327 320 314 319 325 343 385 386 339 325 332 354 355 351 329 336 456 459 460 457 452 447 440 452
247 258 227 254 246 261 338 454 446 434 426 404 375 359 371 361 366 344 321 325 313 306 324 323 338 344 384 334 323 327 327 328 340 349 357 347 332 347 364 363 360 350 339
240 244 254 250 297 317 319 440 443 429 417 389 363 348 377 357 348 322 327 313 310 309 330 324 329 341 384 334 320 323 336 333 338 347 344 342 347 350 352 357 361 362 361
236 251 285 292 292 318 336 434 423 425 407 375 354 340 365 320 328 326 310 313 309 327 333 338 338 341 386 351 321 321 335 334 335 335 337 339 341 341 342 343 352 367 375
254 290 262 294 322 327 416 411 433 420 394 363 346 335 322 331 322 313 308 311 325 334 339 341 342 341 347 376 324 316 321 321 322 321 326 333 340 344 347 348 347 347 341
298 277 295 320 343 413 424 417 431 412 377 355 339 322 330 331 323 304 310 320 325 326 335 342 345 341 346 380 333 314 323 315 327 332 334 328 324 313 309 309 309 307 311
272 266 317 335 395 438 431 435 422 400 363 350 331 326 328 328 305 310 312 310 314 316 321 336 355 347 341 340 377 321 319 312 329 327 311 300 298 297 294 299 299 296 297
284 320 309 407 380 446 445 429 411 376 354 344 323 331 327 303 312 311 309 309 312 314 318 322 369 365 350 365 364 352 312 313 323 313 298 291 295 292 291 280 283 288 286
339 307 344 321 366 449 431 417 394 360 346 334 323 343 305 316 310 307 302 302 300 305 313 319 324 383 368 349 366 374 329 318 319 311 299 290 281 287 278 276 278 286 285
306 337 339 367 430 432 415 405 375 350 344 329 333 313 318 314 302 300 300 299 296 299 305 310 318 329 390 371 350 367 378 320 314 320 300 291 288 277 280 279 278 281 287
336 372 371 357 428 413 411 393 362 346 342 323 332 315 313 296 302 295 293 295 295 295 296 306 315 319 335 394 371 355 372 378 319 314 318 299 289 283 280 276 278 282 278
305 362 356 433 415 411 410 383 357 344 338 322 316 313 309 300 296 292 292 291 290 291 295 301 309 318 322 358 396 370 356 382 378 324 311 318 298 291 284 279 278 277 276
365 351 344 421 408 416 403 377 354 342 331 327 316 311 298 297 292 288 289 289 290 288 293 295 305 311 321 328 411 398 370 357 393 373 368 314 317 310 294 287 284 280 278
360 341 332 413 396 407 400 378 355 341 329 325 316 312 302 293 293 288 285 288 285 286 292 295 299 309 314 324 341 413 400 369 361 395 370 382 322 312 316 306 294 286 283
351 333 320 347 392 381 404 383 360 339 329 319 297 312 310 302 292 290 283 288 290 286 289 293 297 308 314 323 332 395 415 401 376 374 384 373 382 372 324 315 309 312 296
339 325 317 345 381 375 384 395 366 339 330 318 314 313 313 312 310 300 291 291 292 290 292 294 298 309 314 326 329 354 407 413 402 386 385 371 383 369 399 368 335 317 313

GFSGL_2pvu_pres_027.txt.gz
Presure
214 202 193 181 187 180 193 193 196 205 216 225 251 252 263 229 246 271 279 305 318 460 432 405 384 369 394 390 378 371 374 369 373 361 364 363 363 367 373 382 381 382 402
195 189 195 184 194 184 194 200 221 233 233 256 253 262 230 247 256 299 317 340 451 425 400 379 364 397 382 368 367 357 346 352 360 360 379 441 444 371 369 369 374 379 377
195 191 190 186 205 202 203 221 234 243 253 251 263 232 249 256 272 365 472 452 421 396 376 363 386 371 365 356 336 344 344 358 390 424 411 415 428 434 445 457 377 370 375
190 183 185 214 213 219 217 237 240 248 246 233 244 254 252 292 363 442 448 423 396 376 362 371 370 367 343 329 344 341 364 415 402 392 390 402 423 446 450 448 450 417 372
183 196 213 208 219 223 229 239 242 247 226 233 260 277 294 341 328 445 422 395 378 365 364 370 368 338 334 338 350 363 410 394 373 365 376 401 456 462 461 456 453 446 425
197 213 214 216 219 219 233 198 249 241 230 257 268 269 338 361 444 425 396 378 366 360 372 365 332 334 331 328 363 408 394 365 348 349 369 472 474 477 463 457 454 453 459
205 214 212 202 228 234 230 250 241 236 256 313 275 328 370 445 425 401 381 371 369 373 367 330 334 328 324 337 351 396 360 343 340 334 345 501 481 469 460 454 455 463 476
216 215 207 225 237 244 255 246 236 267 292 274 336 351 450 430 406 380 370 358 361 368 335 331 325 318 335 350 394 372 341 334 363 367 331 470 448 451 456 446 449 462 464
216 203 228 239 252 243 256 279 227 285 268 331 378 431 438 415 391 368 362 367 365 336 325 330 318 312 339 349 401 351 331 343 352 357 349 342 459 475 449 443 446 447 440
216 226 239 253 201 255 256 291 269 269 279 319 429 432 427 402 377 381 382 361 355 323 329 317 312 331 343 346 399 339 327 325 330 340 358 342 452 457 454 445 440 429 416
225 238 248 229 248 233 261 268 282 279 323 330 435 430 417 387 364 348 365 364 323 329 310 311 319 340 349 348 396 339 323 327 338 343 339 348 340 427 454 448 435 413 407
234 251 238 241 247 249 267 277 275 313 346 385 436 431 403 372 353 342 322 333 329 308 309 328 339 345 350 352 387 343 322 334 336 336 345 344 344 354 338 431 449 432 417
248 256 224 221 285 280 287 266 311 350 376 376 439 422 387 360 343 326 337 330 309 308 326 326 335 351 353 356 368 356 321 333 332 335 337 343 353 347 349 353 327 358 372
255 213 244 256 269 270 262 321 347 354 376 448 433 407 372 351 330 333 332 315 310 317 319 323 327 340 364 349 338 381 324 325 324 325 323 319 328 333 349 363 349 352 353
212 261 245 252 274 260 320 347 335 386 367 441 424 385 359 342 322 334 323 310 316 315 315 321 327 331 386 357 346 371 334 319 319 321 331 338 342 339 336 334 346 366 368
249 280 257 263 261 320 325 358 345 370 446 431 403 368 352 334 327 332 308 317 310 307 305 313 321 328 340 387 361 355 375 317 319 328 334 331 329 331 332 337 337 332 338
252 283 285 268 333 333 354 320 370 400 435 418 380 357 345 326 338 311 318 312 305 303 300 303 311 318 328 347 383 354 370 328 318 323 326 321 312 310 308 313 316 317 315
285 277 277 344 335 340 340 372 360 427 424 405 366 352 340 321 344 316 315 305 304 300 300 300 299 308 317 327 377 379 361 380 317 321 320 310 300 299 298 295 295 295 298
279 264 353 321 329 392 373 361 350 422 418 391 361 347 336 326 308 317 299 302 297 296 294 294 295 298 306 317 331 406 375 370 337 315 319 301 294 297 289 299 285 289 295
340 340 317 332 407 361 363 354 341 422 413 385 356 345 328 337 312 315 303 297 294 293 293 292 289 294 296 307 318 336 412 373 379 322 319 312 294 289 289 287 284 276 287
327 319 344 426 366 373 357 345 333 415 408 384 355 343 326 325 309 312 297 293 292 287 290 288 288 291 293 297 309 322 343 416 373 382 321 320 307 293 286 290 277 282 280
330 384 374 402 382 342 350 335 329 391 406 387 361 341 326 323 312 309 302 295 292 290 285 289 286 287 293 295 301 311 329 372 415 374 383 325 320 311 294 289 288 278 277
409 373 412 386 369 352 341 328 329 365 389 393 370 343 329 318 317 289 309 306 296 291 287 289 291 287 290 295 299 308 321 334 434 418 371 388 364 321 317 298 292 287 284
398 376 392 374 358 341 330 320 324 349 373 395 383 351 334 322 315 320 311 310 311 309 305 298 296 292 292 296 297 306 322 331 347 430 426 374 387 388 323 320 309 296 292
389 378 377 363 350 337 325 314 313 327 347 373 340 371 340 325 318 304 297 300 306 311 318 322 319 295 294 296 297 306 319 328 337 393 425 427 385 380 392 364 322 322 307
371 358 372 359 346 334 321 311 306 335 342 336 368 330 352 327 318 310 294 301 308 314 320 323 298 297 298 296 299 307 324 328 334 375 414 427 421 400 372 392 382 353 322

GFSGL_2pvu_pres_030.txt.gz
Presure
210 207 186 191 194 190 185 188 185 187 221 221 227 234 260 258 259 270 275 276 266 295 346 454 438 419 395 379 368 381 379 375 365 344 346 355 359 357 357 363 369 378 386
203 202 203 190 187 191 200 189 208 215 218 237 250 251 245 218 244 259 267 270 314 423 451 434 413 390 374 364 379 377 364 345 353 357 352 377 425 421 420 427 438 447 379
210 203 199 195 198 184 210 212 222 226 235 243 253 257 224 230 265 287 277 391 399 450 431 412 390 371 363 378 370 349 340 348 345 370 420 408 392 387 388 400 413 424 361
202 192 194 197 202 212 207 213 227 226 240 194 242 228 254 275 279 271 337 320 413 433 413 388 371 367 380 367 339 343 340 336 351 415 386 368 364 361 365 386 414 436 454
194 202 195 187 204 208 221 227 228 243 223 259 240 249 271 290 271 340 318 423 434 416 390 378 373 375 371 336 341 334 326 342 394 381 353 348 348 346 346 494 497 484 473
197 198 200 205 209 215 226 227 248 257 261 249 233 267 273 265 347 313 452 438 420 398 378 381 367 371 334 336 328 324 328 350 402 349 345 354 365 367 339 504 482 482 470
194 202 205 212 215 227 226 246 258 247 260 268 246 256 266 317 314 402 435 425 402 378 355 366 372 332 337 325 322 322 344 365 362 343 343 340 367 365 334 462 455 450 455
200 207 213 214 226 229 243 258 242 240 257 285 283 273 292 318 411 381 433 410 384 361 360 371 333 335 324 320 323 347 356 401 350 335 330 338 343 364 335 470 468 455 445
203 218 217 222 228 237 220 252 235 242 267 288 281 291 318 407 338 404 423 397 368 372 364 333 335 320 320 336 345 351 353 394 342 329 333 344 354 360 370 462 451 445 449
220 225 223 222 238 252 246 239 230 268 280 288 275 302 365 341 372 433 410 379 352 337 323 333 320 320 329 336 350 351 349 390 336 324 336 343 351 351 346 460 447 436 435
228 224 225 235 254 227 247 223 260 305 287 276 272 354 329 373 443 423 391 361 341 324 331 323 315 322 327 333 364 358 346 387 334 324 335 337 349 350 355 431 438 422 415
224 232 238 249 199 244 249 260 298 286 270 319 339 352 377 366 431 405 373 349 326 332 329 313 321 322 328 331 364 364 348 387 331 327 334 334 332 346 344 345 438 410 396
229 243 268 251 239 253 249 262 284 266 333 337 379 389 363 441 417 385 358 336 329 335 309 322 312 312 323 329 342 375 352 386 331 324 323 326 319 325 344 345 338 372 451
258 253 253 237 234 253 254 279 311 361 332 336 411 370 352 427 398 369 349 325 338 308 322 314 307 302 310 322 334 385 363 372 338 326 317 331 336 337 328 343 341 347 330
223 244 250 252 258 291 288 269 310 331 335 370 381 360 348 411 380 358 339 322 335 313 318 309 305 301 302 312 323 367 377 359 362 324 319 335 337 343 346 333 355 344 347
250 241 241 266 278 276 281 346 325 344 403 387 368 349 404 397 370 355 336 329 309 319 311 306 299 298 298 304 314 327 399 365 379 324 321 331 329 331 337 343 336 344 369
258 248 254 268 252 257 307 338 351 396 387 377 359 340 412 386 361 350 328 341 307 321 307 298 296 296 293 296 301 314 333 398 373 333 322 325 320 318 321 324 323 341 346
265 287 280 264 321 329 346 358 400 374 388 365 350 331 405 380 354 346 324 329 309 312 301 293 292 292 292 291 294 300 313 354 384 375 322 322 318 308 308 311 316 311 316
290 245 285 336 321 353 365 407 372 393 370 358 339 326 401 379 351 347 323 322 311 302 298 291 289 285 288 285 290 295 303 314 406 382 332 322 318 303 302 301 301 300 300
295 323 327 334 354 370 376 405 399 378 360 345 331 352 402 381 355 343 325 324 312 309 298 294 287 286 286 288 282 289 296 307 320 427 389 329 320 311 295 298 295 291 290
332 336 352 367 409 371 404 385 386 364 347 335 326 354 386 390 364 342 335 321 314 297 307 305 295 289 285 286 289 288 290 300 311 328 440 392 329 319 306 295 291 297 286
365 378 379 390 410 388 383 385 372 354 339 330 321 314 371 392 378 350 334 322 318 316 302 304 308 308 305 303 301 292 293 294 304 318 332 453 395 332 320 305 295 292 279
382 401 407 393 393 388 368 360 359 349 337 325 315 312 340 368 391 356 341 327 317 312 308 297 307 311 313 318 321 295 290 295 302 308 326 336 455 409 340 325 309 299 293
387 374 376 381 373 371 364 372 359 347 337 323 312 308 306 343 368 325 361 334 321 315 305 299 300 306 311 320 322 295 296 295 298 307 326 330 367 449 431 383 330 317 303
374 376 379 377 366 369 368 351 354 344 335 325 317 307 300 336 337 334 324 319 344 321 316 312 299 304 309 315 307 298 297 296 301 311 327 325 339 417 445 438 384 343 328
375 372 362 355 369 375 362 370 357 350 339 330 321 308 303 297 328 334 325 323 318 310 314 314 307 302 305 310 305 299 296 297 310 324 324 323 338 397 428 444 435 384 399

GFSGL_2pvu_pres_033.txt.gz
Presure
207 202 203 213 212 219 215 202 196 194 201 198 195 206 227 239 266 256 242 243 255 293 294 296 339 401 450 434 415 396 381 376 393 380 355 346 352 356 359 361 382 388 385
204 203 207 219 227 216 204 196 196 194 192 213 214 221 241 256 261 244 231 230 292 304 285 339 391 451 429 413 390 377 373 381 377 345 338 345 344 355 391 425 413 410 416
200 208 215 222 217 202 199 200 193 197 208 225 229 231 253 252 241 253 268 284 306 278 338 365 452 433 412 388 372 373 383 356 334 348 337 335 354 418 391 374 369 368 375
202 208 225 230 205 201 203 208 209 215 230 233 236 252 251 245 244 262 269 292 267 340 406 373 440 418 391 372 376 380 346 335 342 336 333 352 410 375 360 359 363 365 373
205 219 232 203 197 207 209 211 219 227 234 236 251 254 246 248 238 267 322 319 339 355 340 445 424 396 370 373 381 338 340 337 330 335 355 359 377 355 351 351 358 377 373
214 230 203 199 206 206 214 218 225 232 237 256 212 266 235 251 276 267 259 342 333 378 383 430 400 373 355 340 332 339 329 326 347 354 367 411 355 344 341 352 366 375 480
231 201 195 202 208 204 217 227 235 242 254 252 246 219 257 268 284 287 341 345 356 380 441 410 374 363 337 330 337 318 337 339 353 357 356 373 344 337 343 358 367 366 487
200 203 204 207 208 213 230 235 241 253 252 247 246 257 265 298 277 298 351 343 383 422 423 383 376 337 327 334 317 332 334 342 382 368 372 358 337 335 344 366 367 425 469
199 205 203 206 218 233 234 240 261 247 260 245 238 256 269 244 270 351 324 397 369 433 398 365 338 334 332 317 331 332 337 343 378 362 392 345 333 336 338 358 364 465 454
201 212 214 224 235 237 245 260 247 238 237 265 266 265 252 289 337 333 412 379 393 412 375 350 330 333 311 326 321 325 333 354 377 355 384 338 334 336 334 347 362 375 426
210 216 233 230 242 244 252 236 245 257 251 254 268 250 256 281 330 410 390 364 427 386 360 335 333 311 326 317 311 316 329 358 379 354 379 334 329 331 325 334 352 338 406
222 236 235 237 241 256 242 237 251 258 262 257 262 270 331 324 415 397 374 353 405 369 347 327 327 314 317 313 308 310 321 341 386 353 381 332 326 325 332 327 340 351 409
239 238 238 236 246 245 257 249 257 271 288 276 290 322 357 412 383 380 360 415 386 361 338 327 311 316 312 306 303 304 314 327 396 359 379 331 324 327 339 340 333 351 342
237 253 242 242 245 252 269 264 267 262 264 269 322 321 389 370 392 369 346 407 374 354 328 335 310 308 307 302 298 297 302 316 337 375 382 330 324 336 338 340 333 353 346
253 244 268 242 251 246 253 264 279 301 321 325 348 374 375 401 372 357 337 395 364 351 325 336 313 309 299 296 294 292 295 302 317 392 379 331 326 331 332 339 333 349 339
270 259 261 261 245 254 272 275 318 330 338 358 383 385 407 381 363 339 333 389 361 350 324 331 309 309 294 292 290 289 289 294 304 325 381 334 327 324 324 334 335 338 355
252 270 260 274 267 299 317 339 279 354 363 378 409 410 383 367 350 329 392 384 358 352 327 320 310 304 293 289 286 287 287 286 295 310 401 361 326 321 316 318 321 336 342
251 253 255 331 342 332 277 359 369 396 374 401 401 383 372 353 339 323 394 382 359 351 329 324 310 304 299 290 288 284 289 287 291 297 316 398 332 320 314 307 316 316 326
259 268 342 306 349 357 369 380 363 406 410 396 382 379 359 341 334 318 391 388 369 348 329 322 314 309 305 299 292 292 283 288 288 292 304 350 385 326 317 304 301 313 306
294 360 369 377 390 370 375 400 398 388 385 388 365 368 352 335 330 314 318 390 377 352 343 323 320 310 296 306 305 302 300 301 306 292 294 309 416 350 321 311 299 293 295
381 382 373 368 377 406 404 376 364 374 376 364 363 359 349 336 324 313 304 354 385 365 344 330 319 317 313 302 304 308 312 317 317 293 292 301 317 452 349 321 306 295 291
377 386 407 400 391 390 380 370 371 379 372 368 361 358 345 335 323 313 302 308 347 380 344 335 325 316 309 296 296 302 306 315 314 297 293 296 306 324 432 405 323 305 293
405 401 391 383 387 383 378 372 367 355 354 367 361 353 345 332 323 317 306 295 334 339 324 333 331 319 315 305 294 298 307 315 315 294 295 296 304 316 327 384 464 329 309
390 396 411 414 412 414 398 387 389 366 375 370 369 357 343 334 328 319 309 297 294 333 329 324 318 311 315 316 312 298 302 310 306 300 294 295 301 317 328 326 374 478 342
400 378 365 354 351 350 348 348 389 379 369 372 358 353 348 343 331 324 316 300 293 299 325 327 324 319 309 309 309 310 302 306 307 301 293 294 307 324 320 318 337 421 470
358 356 353 348 346 347 346 343 341 338 336 338 347 347 351 347 341 333 321 313 297 294 301 313 327 321 320 311 308 311 304 302 308 296 293 300 323 311 310 322 339 378 438

GFSGL_2pvu_pres_039.txt.gz
Presure
207 203 203 199 194 192 189 188 190 198 199 201 208 208 237 206 198 212 218 227 251 242 266 266 260 271 272 300 330 326 365 436 402 446 409 407 391 393 364 349 285 352 357
203 206 208 195 191 188 181 192 195 195 193 207 204 236 224 209 210 218 221 248 255 243 239 243 255 264 270 333 320 327 387 399 445 426 379 368 350 353 352 343 338 342 344
204 203 200 191 189 185 195 194 194 192 206 212 234 219 209 207 215 227 245 252 246 240 251 254 261 275 332 315 323 402 403 446 422 377 354 349 341 345 350 353 351 355 362
209 210 194 192 184 193 191 194 194 207 211 234 208 211 214 213 234 244 261 254 253 263 266 261 280 316 330 321 353 402 421 423 379 351 342 338 336 341 348 354 361 399 388
203 195 192 190 193 193 196 199 208 220 230 208 212 220 215 243 248 270 264 249 258 254 271 290 324 334 325 350 384 394 428 385 350 341 335 331 333 339 357 387 400 386 375
191 187 197 199 194 196 205 213 220 235 209 218 220 221 252 259 269 262 250 264 267 216 272 290 325 328 344 375 400 371 400 359 343 331 325 324 322 337 405 397 378 402 371
195 199 201 201 200 208 213 220 230 205 222 217 237 253 261 268 254 267 270 266 271 273 296 325 341 345 350 371 383 405 376 350 336 326 319 315 316 339 404 375 394 377 351
204 197 204 205 204 210 224 225 206 224 230 251 253 276 263 248 255 254 258 278 284 306 323 348 350 354 418 394 367 390 358 343 328 321 313 312 316 341 391 386 385 347 344
204 202 209 210 216 239 216 215 224 241 247 261 259 258 254 263 262 259 270 283 288 337 337 355 364 423 401 371 352 373 346 336 325 314 309 310 311 330 389 394 354 343 335
207 208 212 238 228 211 216 229 240 254 254 260 265 253 274 271 274 278 332 337 287 353 355 380 418 402 380 357 373 363 342 332 322 313 309 307 306 324 398 378 345 336 342
205 212 239 215 213 220 236 238 257 248 263 275 250 264 263 269 281 327 357 350 359 360 412 371 404 382 361 346 381 357 338 330 320 309 304 303 299 313 382 363 338 342 345
228 235 211 215 230 240 243 258 266 264 254 264 266 271 280 356 362 357 363 367 404 385 391 405 390 364 345 338 372 355 335 327 319 305 303 300 299 307 330 361 339 340 345
217 214 223 234 242 250 265 268 258 261 273 275 275 370 383 375 372 404 407 361 360 405 389 388 373 350 337 338 366 354 334 328 319 307 302 298 300 302 316 361 339 335 340
217 232 234 247 258 262 277 252 260 272 285 308 400 402 421 402 364 363 412 390 382 365 379 380 357 340 333 383 361 355 331 329 318 310 303 301 298 296 307 369 339 330 328
233 238 254 263 263 277 252 264 267 375 420 389 375 369 377 380 331 395 394 395 376 376 376 365 349 335 327 384 360 350 329 331 317 313 302 303 301 295 303 332 342 329 322
244 261 249 265 275 255 262 268 398 387 373 360 357 388 398 396 386 380 370 377 389 367 357 353 343 331 319 384 365 350 333 332 316 314 313 308 306 304 310 308 350 330 319
256 265 264 274 253 265 362 402 388 362 357 378 387 390 397 406 385 379 368 370 372 369 357 351 339 329 316 336 373 352 333 325 321 311 310 310 315 322 317 305 370 334 318
265 263 273 249 268 306 404 387 367 378 400 389 380 391 394 399 409 398 382 373 357 359 356 350 336 326 315 306 379 355 340 322 323 317 310 309 313 323 322 299 315 344 323
263 279 261 268 352 407 393 375 383 408 398 377 379 371 366 358 351 372 393 375 359 347 351 349 337 325 319 304 337 367 344 327 318 320 319 304 305 315 321 297 305 407 332
277 267 270 324 408 394 379 386 413 391 366 354 348 347 344 347 343 341 340 387 369 349 353 348 338 328 320 308 308 342 358 337 321 313 308 295 303 315 325 300 296 310 375
266 271 345 411 400 386 380 404 387 360 343 451 378 342 338 338 334 334 340 335 333 369 371 343 338 331 320 316 303 323 326 322 329 319 313 307 299 309 315 302 299 297 315
275 319 415 405 394 390 397 391 365 336 314 403 420 413 354 344 347 344 339 333 330 345 373 357 344 335 329 317 309 297 316 328 318 318 317 316 313 303 310 306 297 296 301
346 418 411 398 400 399 389 364 362 332 359 376 387 379 370 365 363 361 353 346 335 327 334 358 345 344 333 328 314 306 294 305 324 320 311 309 313 307 304 307 305 295 293
416 411 401 403 398 382 370 416 350 340 382 374 362 351 372 363 353 348 348 349 347 343 332 325 331 346 341 336 327 315 304 296 297 322 321 312 308 309 311 307 307 293 292
413 406 401 391 385 427 413 398 383 409 433 439 443 431 361 345 338 339 337 334 336 339 339 335 330 324 325 339 337 333 322 306 299 296 316 320 321 311 311 305 307 306 291
404 402 385 418 417 399 384 372 428 399 383 376 396 425 431 430 414 381 362 339 332 327 327 329 331 331 329 325 323 326 334 327 309 300 297 311 317 320 330 317 315 321 291

GFSGL_2pvu_pres_042.txt.gz
Presure
192 190 193 198 195 195 214 216 217 210 202 199 200 194 201 200 211 219 233 209 221 221 251 275 271 257 260 261 272 277 285 327 336 346 397 440 444 415 384 361 356 354 353
187 193 203 211 212 217 210 204 198 194 195 202 201 205 208 211 221 229 207 220 239 259 260 257 254 256 267 265 279 281 333 326 340 356 453 447 410 381 359 350 348 349 351
205 209 206 210 202 194 192 185 193 193 203 206 205 211 218 242 218 212 225 252 265 258 275 253 261 266 265 276 290 313 337 353 371 448 395 422 384 360 344 343 337 337 344
202 205 197 185 192 190 194 194 202 206 206 207 214 238 231 210 214 237 250 270 253 263 265 261 263 268 276 320 321 334 346 366 428 409 397 395 361 346 337 330 324 329 345
203 196 195 196 191 192 201 207 204 206 211 215 240 213 215 223 249 261 266 256 265 259 258 271 274 287 315 337 339 349 362 426 416 382 407 372 347 338 328 323 321 321 415
200 201 199 194 205 202 203 201 211 212 241 229 212 218 241 255 263 265 261 246 261 273 278 279 285 354 351 347 355 386 428 416 383 372 380 354 338 328 315 315 315 325 387
191 190 201 200 203 196 208 212 220 235 216 218 227 249 255 260 274 255 256 263 272 284 325 348 361 350 362 391 427 365 405 397 371 352 363 344 330 321 313 309 311 335 407
181 201 202 204 209 208 215 220 236 216 221 242 253 254 259 267 257 259 261 282 332 354 360 370 369 394 402 377 379 403 392 373 358 362 356 338 328 318 310 306 305 337 394
201 193 208 204 213 209 220 236 214 232 234 249 258 260 264 251 261 269 284 370 381 395 413 413 424 363 373 405 408 386 376 360 347 374 347 335 323 319 306 303 303 327 358
200 209 200 213 206 217 236 212 234 235 247 259 261 258 253 259 272 282 424 420 420 389 377 365 369 281 384 380 371 376 358 345 341 365 341 334 321 313 306 304 302 317 350
209 201 208 210 217 235 216 236 237 240 261 264 271 252 258 275 336 404 387 374 361 352 406 390 383 384 378 368 379 359 342 337 371 359 337 333 319 315 308 301 299 310 355
203 209 211 222 234 221 236 237 246 265 267 274 262 264 268 407 393 378 360 360 383 400 398 387 380 379 361 381 365 349 336 334 361 356 333 330 318 312 304 302 299 307 354
213 210 218 226 224 235 236 247 267 263 273 264 271 273 317 395 376 367 384 392 388 386 380 372 368 366 383 366 352 337 328 341 359 355 331 328 316 308 305 304 299 307 359
212 219 225 229 234 235 246 257 270 267 270 276 270 314 404 383 369 394 398 388 394 404 387 368 368 356 355 359 347 334 324 323 360 351 331 329 316 315 314 312 310 312 361
218 238 229 234 236 250 255 268 267 273 277 275 366 408 395 375 394 398 377 382 385 392 400 373 364 368 355 354 342 331 322 319 363 350 332 332 316 311 315 318 323 308 349
235 231 238 230 253 256 269 272 266 280 274 379 410 400 387 392 397 372 354 359 358 351 351 384 367 356 359 354 340 329 318 314 369 349 333 325 319 310 309 316 327 305 327
231 238 235 252 254 261 265 273 280 275 381 414 402 387 382 401 375 340 343 340 343 347 343 391 371 354 349 353 341 329 318 308 374 353 333 324 321 315 309 309 324 305 310
239 245 250 255 261 268 269 293 281 353 427 417 395 388 393 378 360 321 436 362 338 339 339 333 371 356 347 351 338 328 321 308 358 357 339 324 320 319 292 305 327 313 303
247 248 258 255 271 264 297 287 292 426 420 408 401 391 379 358 359 309 423 382 345 333 333 335 331 363 352 349 338 329 321 312 314 364 343 328 318 312 300 302 323 310 298
248 255 255 274 270 299 300 296 427 419 411 403 389 375 365 394 382 305 392 420 364 345 340 336 335 331 367 350 341 332 319 318 303 328 322 336 322 316 307 297 312 316 303
257 258 273 276 300 302 306 430 419 406 400 388 395 424 408 400 339 374 366 375 369 366 357 345 336 327 329 359 344 335 328 318 308 301 329 321 319 317 316 312 303 315 302
262 271 279 303 297 327 432 416 402 395 382 430 413 396 386 375 367 363 361 352 359 356 358 355 347 334 328 358 345 342 331 326 316 305 297 322 323 313 310 319 310 304 309
270 282 304 298 340 429 410 405 395 374 406 402 387 370 363 423 410 441 437 363 349 348 343 344 347 340 335 326 331 333 338 330 325 315 303 295 313 323 315 309 309 305 304
287 292 297 409 424 412 400 387 423 402 388 378 369 362 412 381 368 369 430 426 361 344 339 334 332 336 339 335 328 323 328 336 332 328 317 305 294 302 321 318 308 310 307
324 303 434 423 411 398 434 404 395 402 450 447 436 416 388 362 349 340 338 417 424 373 348 338 334 327 325 328 333 330 324 319 323 333 334 324 305 301 299 317 322 318 312
360 428 414 427 444 414 424 474 451 433 420 409 398 385 368 352 344 341 336 330 331 389 413 391 361 343 334 329 327 327 328 327 323 321 319 329 331 311 309 301 315 319 330

GFSGL_2pvu_pres_048.txt.gz
Presure
213 202 201 196 193 196 191 196 191 189 194 211 188 195 193 194 188 194 203 215 217 215 238 226 236 249 263 270 272 296 284 285 294 365 437 454 446 404 430 419 419 373 373
204 198 198 193 209 194 190 188 191 201 208 191 191 194 193 193 194 207 208 217 221 238 228 239 252 259 272 276 302 300 282 286 391 431 400 381 370 366 358 377 381 431 414
194 194 191 191 202 190 184 196 201 210 190 188 190 191 187 193 208 206 217 222 233 226 239 251 254 259 267 292 302 281 296 377 419 394 373 390 401 396 398 420 413 410 384
194 198 196 201 192 198 201 203 204 186 192 190 192 199 196 211 210 213 223 225 228 232 248 251 257 261 271 302 284 308 336 414 394 393 410 396 390 418 417 404 385 379 366
198 199 197 200 203 202 204 200 194 191 190 195 203 201 210 214 210 220 222 233 227 243 250 252 255 266 272 293 309 332 413 393 410 397 402 393 384 385 385 386 376 357 362
200 203 201 196 198 199 194 192 192 188 197 209 203 209 218 209 223 227 237 226 242 248 258 254 258 273 311 301 338 413 396 404 399 403 382 377 385 381 381 369 358 345 371
199 195 193 195 195 192 194 193 193 205 204 209 206 213 210 223 220 234 229 234 250 257 254 259 273 310 294 340 415 401 388 386 411 392 379 375 368 381 365 352 346 377 365
189 193 198 199 200 197 196 201 205 204 210 212 211 212 222 221 242 229 231 250 254 249 260 271 303 291 325 417 405 386 391 364 412 389 372 374 381 367 351 340 341 369 359
199 194 202 204 197 205 203 203 206 212 204 211 213 221 220 244 227 232 243 255 248 262 266 292 299 324 420 409 392 387 378 344 364 384 377 383 368 354 341 334 372 362 348
195 201 202 197 195 208 196 212 211 205 213 214 219 223 243 224 235 239 256 253 268 269 290 310 324 422 412 395 386 386 357 330 352 383 370 366 362 346 337 327 362 352 340
203 195 201 200 211 192 209 205 204 217 217 217 218 218 222 241 242 261 256 270 275 300 308 325 425 415 403 391 389 372 339 344 347 383 374 372 356 340 330 351 368 347 332
204 199 206 211 198 206 200 208 222 217 218 221 219 224 243 234 266 260 272 277 290 315 328 431 415 401 394 387 383 355 314 359 343 380 367 366 353 338 324 380 367 342 337
204 206 211 193 208 196 213 221 218 222 232 220 227 246 254 266 257 272 278 282 319 334 434 418 399 391 386 384 366 348 306 356 339 352 365 364 349 336 321 378 362 341 337
204 210 193 210 206 215 222 222 224 219 222 233 245 259 267 276 274 274 295 321 386 432 413 404 395 383 382 376 352 349 301 356 338 335 358 360 347 336 319 379 355 339 333
212 204 207 210 220 226 224 228 231 221 243 245 257 266 278 277 276 299 326 391 421 405 406 396 376 413 433 416 390 389 306 357 339 331 356 356 345 334 321 345 349 334 328
204 207 216 228 227 226 232 233 219 242 247 250 262 275 279 279 296 335 435 420 410 406 394 388 419 413 415 400 383 376 382 358 338 330 351 354 344 332 325 345 354 329 329
223 223 225 227 227 232 235 224 235 245 248 256 265 279 273 294 339 434 449 472 473 461 444 432 411 388 381 387 382 370 381 359 338 332 336 354 342 330 324 312 359 330 320
221 224 228 232 231 243 231 240 252 258 266 265 280 274 295 336 434 457 441 428 411 399 390 385 383 371 358 350 349 361 373 363 344 334 331 352 339 330 324 312 354 341 321
227 230 232 234 248 234 243 250 260 269 272 292 287 297 339 425 443 474 515 499 474 444 414 390 375 363 350 391 366 351 358 363 350 337 328 352 338 333 325 314 308 344 329
233 231 245 236 241 245 253 264 274 281 292 290 302 339 424 439 481 441 409 389 375 366 439 422 399 398 398 428 385 358 347 355 351 341 329 335 341 331 326 318 304 325 322
234 243 235 243 248 257 274 267 287 292 287 307 333 428 418 430 432 395 367 360 363 367 361 369 417 397 368 374 414 364 345 344 349 343 332 329 342 331 329 321 313 297 326
230 243 245 251 265 265 284 286 284 301 327 332 429 413 423 415 408 370 362 368 356 404 374 363 403 377 351 338 419 367 346 338 337 346 335 330 331 338 330 325 318 310 293
245 247 261 261 260 276 284 277 315 326 376 425 412 399 418 405 388 364 369 358 404 462 454 381 354 370 344 331 347 376 351 338 333 331 333 333 327 325 335 332 327 317 309
256 267 254 264 270 288 297 315 327 392 420 411 395 446 402 388 382 362 370 356 499 521 494 446 369 349 341 334 329 333 359 344 337 327 325 329 329 324 322 332 332 330 319
255 254 266 287 293 300 315 328 389 418 401 396 479 434 392 376 376 364 361 450 507 537 496 484 424 363 342 335 328 328 321 358 345 334 324 322 324 328 324 321 324 331 338
260 282 299 298 311 311 335 365 414 400 400 390 466 421 391 374 364 369 358 438 510 563 511 484 466 405 359 341 334 328 328 319 363 344 338 327 321 322 326 327 327 322 320

GFSGL_2pvu_pres_054.txt.gz
Presure
207 224 206 205 205 196 196 202 220 202 205 211 197 199 199 200 199 201 194 195 198 204 209 198 198 212 202 213 224 222 226 240 236 246 258 268 281 293 283 335 452 435 419
205 206 206 205 203 203 218 195 204 217 215 205 201 198 197 195 199 195 192 199 205 207 198 207 209 204 205 223 227 228 242 230 241 257 266 273 296 283 316 452 433 421 409
207 208 211 211 210 205 221 207 212 205 203 198 197 194 196 198 192 194 202 207 202 195 206 208 206 219 208 229 230 240 225 240 252 267 272 292 301 307 449 436 421 410 391
210 206 203 205 202 221 212 217 216 199 198 196 197 197 195 193 195 205 205 205 196 204 207 205 213 213 229 227 232 244 240 242 264 278 293 298 300 389 436 417 406 400 373
204 202 205 210 215 218 212 211 206 206 199 194 194 193 194 199 199 203 206 201 204 206 203 208 220 227 228 232 249 240 241 263 277 293 294 294 326 434 416 403 404 384 369
200 202 205 231 227 222 195 199 200 195 191 190 193 201 192 204 205 207 205 203 203 213 206 222 226 229 234 241 241 241 262 277 295 290 290 329 431 418 399 397 392 363 373
198 207 244 231 214 200 198 195 192 189 193 196 197 197 204 204 206 205 206 199 220 207 223 224 231 234 239 241 244 261 266 289 286 301 329 388 413 397 400 385 377 351 353
200 223 219 199 196 193 191 186 197 200 203 201 203 206 200 206 204 211 215 227 222 223 224 229 236 241 238 246 264 263 287 296 307 325 433 404 399 396 387 379 366 375 342
201 201 201 199 200 202 202 201 206 195 204 205 201 206 200 204 213 227 228 223 222 226 226 237 245 238 248 262 262 288 299 306 379 425 411 406 397 388 374 388 361 386 344
206 205 204 205 208 207 204 194 199 202 206 204 196 206 213 218 228 223 226 224 232 227 238 250 237 252 259 273 296 309 317 433 423 419 427 417 399 378 371 398 406 374 325
206 205 204 204 204 202 200 201 203 204 205 220 219 224 228 225 224 229 230 233 235 240 251 238 260 266 265 320 321 360 434 417 421 427 429 415 399 381 415 382 397 365 344
203 202 203 205 206 210 212 209 216 219 218 224 228 228 231 235 238 230 232 238 245 243 246 264 276 262 326 323 432 433 424 432 418 407 407 414 397 407 396 377 382 358 340
213 216 223 221 218 220 222 221 222 223 225 223 221 226 228 234 240 242 237 238 235 256 264 264 279 331 348 451 429 419 503 480 447 408 392 421 395 396 377 370 373 353 339
222 221 222 223 222 222 223 217 219 218 224 225 229 229 237 244 244 235 235 243 251 270 258 278 323 446 444 426 407 430 401 374 359 358 394 394 375 386 368 366 368 349 333
205 203 200 202 203 221 223 247 237 228 231 257 231 236 241 238 227 240 249 260 271 269 282 305 466 443 418 406 398 412 384 358 352 359 394 376 360 351 356 366 362 343 330
239 237 238 240 240 244 244 241 247 261 256 245 239 240 231 230 242 254 267 269 265 282 302 461 442 422 467 438 408 396 367 356 353 356 368 373 356 345 336 360 358 339 330
223 229 227 226 225 237 249 259 256 248 235 241 238 228 235 245 255 268 265 268 282 303 455 437 426 407 448 415 391 383 362 359 348 365 357 377 357 343 339 349 356 337 329
242 251 272 266 250 254 252 245 239 240 249 233 230 237 250 258 276 267 272 281 299 458 431 415 414 390 416 389 383 368 358 357 345 378 408 384 362 346 359 348 351 337 329
260 256 257 256 254 244 239 243 246 252 248 240 242 254 263 270 264 281 282 290 370 433 410 422 405 380 401 385 378 360 358 348 406 384 407 384 406 378 353 346 347 337 328
258 241 240 240 241 232 241 249 252 249 244 254 261 264 260 270 269 284 280 364 374 412 405 418 394 379 356 386 371 358 353 385 414 374 390 359 376 365 348 343 344 335 327
241 257 249 261 238 244 247 241 245 254 259 261 258 265 277 269 280 293 366 355 412 406 386 398 386 374 354 383 368 361 361 437 410 371 375 341 390 360 347 341 342 332 326
256 250 247 256 248 246 250 251 254 262 250 260 274 265 279 285 330 362 354 408 393 400 386 392 365 373 355 395 376 394 468 435 407 367 370 334 369 359 344 337 339 330 326
250 254 257 249 251 252 251 259 259 260 271 269 271 279 305 324 363 355 407 393 392 391 405 397 366 375 408 358 442 491 477 441 408 368 355 335 324 357 342 334 334 331 326
261 252 251 252 249 257 257 261 257 276 267 273 286 325 356 354 401 405 386 378 393 445 431 414 398 375 375 368 463 492 481 454 409 370 350 337 326 357 342 331 331 330 327
260 253 251 250 255 262 251 271 268 267 280 321 330 363 359 409 397 385 380 388 455 430 417 411 390 390 354 423 445 494 471 467 414 378 352 337 327 321 345 333 325 322 328
254 254 255 264 257 265 269 269 278 299 324 360 362 410 402 392 379 375 380 460 443 419 403 400 386 384 350 417 440 494 470 458 421 387 355 338 326 321 342 339 330 323 321

GFSGL_2pvu_pres_057.txt.gz
Presure
215 208 221 203 205 205 206 206 202 205 206 205 211 209 206 210 215 205 199 198 199 193 199 201 191 198 206 209 216 208 212 217 237 231 231 238 242 255 251 268 262 286 302
212 206 204 207 203 199 202 206 210 207 206 201 202 223 222 209 208 222 200 195 192 193 198 190 201 207 211 214 213 208 218 238 233 232 234 239 252 245 263 267 280 303 324
204 204 200 199 204 208 208 206 202 197 206 218 222 210 209 218 199 196 193 194 194 195 191 202 209 211 213 215 211 228 236 229 232 237 240 254 244 267 275 274 321 332 369
206 201 204 211 213 207 201 201 203 202 214 216 217 211 196 194 195 192 192 195 193 200 203 210 207 211 213 217 229 231 229 234 236 240 255 246 272 268 269 327 328 388 427
206 213 214 204 205 204 201 199 202 214 232 207 201 195 194 189 190 201 197 196 202 210 213 195 214 220 220 229 228 234 235 232 242 255 250 275 269 274 336 337 392 428 414
213 213 207 206 204 202 200 200 237 240 199 198 195 193 200 203 196 193 197 208 213 194 204 215 225 228 236 239 240 231 229 248 242 249 271 271 274 335 344 429 427 408 420
204 201 198 198 196 197 198 199 198 199 200 201 202 196 195 196 203 207 211 198 208 215 222 217 228 227 230 232 242 247 241 240 259 277 262 275 336 385 426 412 410 423 417
209 205 202 201 201 201 201 200 200 199 198 198 202 204 205 207 204 207 214 215 218 222 223 226 224 228 231 243 242 237 244 259 272 264 282 359 448 422 409 409 417 422 407
207 208 207 206 206 208 211 211 210 206 204 202 208 210 207 212 216 217 221 225 223 223 220 222 254 233 243 232 235 246 261 272 262 285 425 439 424 409 423 416 401 417 398
204 204 205 205 206 208 207 202 201 208 206 206 211 221 222 217 223 225 222 211 223 224 242 253 237 240 235 230 247 261 273 272 287 429 430 417 399 475 445 411 394 405 397
209 212 212 210 211 212 211 217 221 220 219 223 223 220 201 215 211 213 222 251 254 259 251 239 236 230 230 246 264 267 278 288 451 430 410 397 400 388 367 356 390 401 396
209 213 215 216 216 201 196 201 204 209 212 214 232 228 241 243 244 240 249 257 250 244 239 248 230 232 250 268 256 289 287 458 435 417 413 398 394 375 362 352 393 383 393
217 195 217 217 216 212 229 232 230 237 245 241 237 260 227 246 242 257 248 240 240 247 253 239 242 261 263 260 283 297 385 441 421 450 428 410 381 362 357 405 390 374 377
219 218 226 228 230 225 225 236 230 275 266 263 262 261 257 253 251 242 240 247 252 247 243 255 260 256 278 288 315 388 446 422 401 428 404 388 367 358 348 350 380 361 351
228 231 236 223 216 218 225 225 236 236 235 240 255 240 234 236 238 239 246 240 240 257 260 252 277 276 318 359 392 427 431 406 405 397 380 371 355 354 343 351 377 358 341
237 238 231 218 216 230 221 213 238 232 233 252 254 256 259 260 243 242 249 253 262 261 272 270 278 290 366 433 427 407 412 392 379 385 379 358 352 352 341 369 377 356 341
224 227 221 212 224 248 222 222 235 227 241 255 255 263 264 249 250 249 259 260 260 270 275 279 290 346 380 426 410 395 401 384 366 386 373 354 353 345 413 396 378 359 339
235 222 212 216 216 223 235 227 231 250 244 269 258 251 249 252 246 262 252 264 273 275 279 299 379 424 430 404 402 391 383 374 364 388 367 356 347 364 402 392 378 354 354
230 219 221 217 222 225 232 233 266 249 249 264 247 250 251 254 263 257 266 265 276 283 329 364 367 426 404 393 403 399 381 369 360 376 366 358 350 407 393 388 394 381 356
210 242 235 224 241 231 240 240 252 264 267 257 250 255 259 255 259 264 263 278 290 332 369 377 419 404 380 417 443 418 382 375 383 390 366 354 417 400 389 357 378 364 347
241 229 231 241 228 251 237 238 249 253 251 259 260 255 252 264 263 271 277 300 342 356 427 413 389 385 392 458 432 413 395 374 387 340 430 423 408 389 374 342 366 358 344
219 234 234 226 240 241 236 249 257 276 252 258 256 255 262 264 271 281 307 357 358 419 402 386 386 390 470 443 418 403 391 393 357 472 467 420 402 379 366 336 363 353 340
230 230 228 238 237 240 248 257 258 260 261 242 261 261 269 275 285 312 358 395 412 399 394 395 393 401 456 429 409 400 386 376 343 475 469 417 400 368 359 335 321 348 337
229 230 239 234 241 253 252 259 266 248 265 259 265 269 277 289 327 367 418 406 399 406 403 400 405 468 441 417 399 389 385 359 421 473 473 423 399 366 354 334 322 346 335
238 236 238 241 254 247 265 282 262 254 263 265 276 280 294 349 364 414 407 409 409 400 401 417 448 456 430 407 390 386 374 372 428 476 466 426 397 364 349 335 322 346 335
239 236 245 253 256 270 262 268 260 263 274 279 289 309 359 391 413 409 407 385 371 348 428 439 464 443 420 398 390 384 365 440 500 467 463 427 399 365 348 336 324 351 338

GFSGL_2pvu_pres_060.txt.gz
Presure
214 227 215 213 205 222 192 189 197 207 207 198 204 209 211 207 202 206 210 207 221 216 202 197 205 197 200 205 203 199 212 216 217 222 236 228 226 236 242 251 248 244 261
213 206 215 202 218 187 197 203 206 201 197 205 206 204 195 203 205 203 207 210 216 205 204 198 195 206 194 203 205 214 214 219 233 235 215 221 235 241 247 241 241 258 280
208 185 191 180 192 196 201 200 199 205 211 207 202 202 200 197 201 215 231 232 226 224 200 204 202 202 198 208 215 216 227 234 227 223 223 235 253 248 245 242 257 281 279
226 195 192 195 203 204 208 198 213 212 203 205 203 203 204 204 238 228 205 202 204 204 201 205 208 209 214 216 226 236 213 211 219 239 260 257 248 245 241 254 274 279 305
204 202 204 223 204 205 210 214 211 206 205 204 203 203 204 204 203 202 205 207 209 210 205 213 212 217 226 232 225 205 227 246 256 257 248 246 252 247 249 270 281 303 338
265 240 214 208 203 217 216 210 209 210 208 208 211 210 207 207 209 211 211 209 209 214 218 222 196 219 214 225 238 246 244 258 239 239 250 256 245 250 268 286 294 330 428
211 215 220 217 213 214 214 216 214 211 209 209 207 209 214 212 209 207 213 218 225 224 213 206 222 239 239 238 236 261 240 236 243 251 255 249 260 267 285 329 432 418 406
216 218 216 217 215 211 212 208 205 205 206 208 210 210 212 217 220 212 213 214 216 230 239 239 245 236 249 260 249 236 239 245 251 247 254 268 274 286 324 410 418 400 399
213 212 212 206 207 210 208 207 212 218 218 217 221 226 212 214 214 223 236 228 244 246 248 260 255 241 226 238 241 240 246 245 243 261 265 276 290 305 432 421 401 408 406
226 223 223 219 217 215 197 219 206 218 222 224 223 223 218 231 230 234 239 233 228 248 248 247 245 249 249 245 241 249 247 256 257 270 276 300 375 380 429 406 425 411 394
237 233 226 223 223 222 220 221 220 219 207 216 237 226 217 215 221 221 232 229 242 262 255 249 253 250 243 241 244 251 258 258 272 289 321 419 442 429 410 438 419 397 377
242 239 239 230 227 228 230 228 229 231 231 226 234 216 212 226 221 215 225 237 252 256 250 246 242 241 246 243 260 258 269 281 297 350 382 436 424 409 405 404 390 376 362
220 221 213 240 238 236 234 233 236 242 238 231 217 206 220 217 230 229 234 260 270 253 248 241 241 253 257 256 266 273 280 311 351 461 435 408 406 395 391 383 378 362 350
223 214 222 204 221 240 236 231 216 223 233 233 212 214 215 216 220 232 253 255 259 256 252 247 257 250 262 273 273 281 327 377 432 439 404 404 400 386 372 376 376 354 351
211 205 233 222 213 239 232 227 233 239 224 218 225 224 227 239 235 248 250 265 258 240 246 261 256 264 273 272 279 313 386 423 435 405 416 412 392 376 365 379 366 351 350
224 227 208 234 198 212 225 229 229 244 221 225 225 234 219 232 235 249 240 251 253 254 246 258 263 269 275 283 297 367 443 425 399 400 410 420 390 373 362 376 360 349 342
216 225 225 220 237 226 225 232 233 202 217 227 218 210 236 240 247 246 250 263 273 252 261 265 265 274 286 288 364 422 420 400 400 400 449 420 389 366 359 372 357 348 362
222 224 214 231 234 237 255 245 234 230 232 248 251 233 233 243 241 252 237 243 271 270 264 266 272 284 289 336 430 422 410 411 403 457 435 414 390 365 388 376 361 347 399
230 226 223 231 239 216 241 241 234 230 243 233 237 238 239 235 248 248 242 254 276 262 268 264 285 290 352 430 424 424 418 410 447 444 418 403 383 372 377 341 350 408 395
226 224 236 237 236 234 250 222 242 233 246 230 237 235 234 247 244 258 241 258 267 262 272 282 291 350 433 423 420 393 370 427 460 431 409 395 378 379 345 401 410 400 377
230 236 214 241 237 240 266 238 230 243 229 239 234 234 246 250 258 260 268 289 262 273 275 290 345 433 418 412 393 376 369 469 445 417 400 388 382 360 365 412 405 391 359
239 212 243 241 249 236 260 230 227 228 238 236 232 255 250 252 255 257 286 263 268 273 287 309 432 415 407 393 381 378 466 458 430 407 393 384 369 344 439 412 397 381 352
205 237 248 250 247 231 234 225 223 243 238 246 247 236 266 258 282 264 262 265 276 292 301 428 406 401 391 380 379 459 468 443 418 400 386 377 357 473 430 408 391 373 347
244 247 227 236 227 228 246 237 238 238 248 226 254 245 274 254 257 275 277 281 293 307 412 404 390 381 385 403 426 471 455 431 406 392 386 368 384 466 425 405 385 366 344
223 236 237 234 243 244 232 239 247 228 253 265 253 265 253 266 277 270 293 303 368 406 402 387 371 402 395 377 468 456 440 420 397 388 380 360 407 468 426 402 382 360 341
230 247 242 232 237 227 241 247 251 254 265 260 252 263 275 269 291 300 354 422 403 401 388 367 378 383 365 467 455 443 429 408 393 384 372 441 476 458 433 398 380 357 339

GFSGL_2pvu_pres_063.txt.gz
Presure
227 207 224 196 209 216 218 195 201 203 193 192 199 193 195 202 200 197 197 208 212 206 204 202 204 206 211 212 211 213 233 228 217 218 218 218 214 228 247 249 239 259 250
187 228 196 198 214 214 187 156 168 190 212 211 193 192 195 194 195 203 213 209 204 204 204 206 207 231 205 212 206 206 214 223 229 229 228 236 248 248 236 262 247 246 255
219 168 176 177 195 179 203 183 186 196 201 190 198 195 202 198 209 210 203 204 204 204 205 205 206 208 206 206 214 222 229 227 240 251 260 257 264 255 245 248 246 254 261
173 175 181 199 189 182 188 189 184 190 192 194 199 204 208 212 207 202 201 203 205 205 205 208 210 215 220 216 230 243 233 261 260 259 250 245 259 253 247 248 253 254 271
185 188 185 188 199 221 212 195 195 196 204 204 200 210 213 209 210 212 211 210 206 206 213 221 216 223 241 240 238 238 258 268 259 252 255 258 249 245 247 252 261 271 277
193 197 205 222 222 202 192 222 213 213 210 206 216 215 211 207 207 207 206 219 225 226 225 226 229 231 215 233 248 232 274 260 256 241 247 247 245 250 255 264 265 307 338
236 207 227 206 207 207 209 216 218 215 215 213 207 211 212 212 218 229 227 220 219 217 230 221 212 225 231 233 256 249 247 247 248 247 240 246 255 261 276 279 305 358 388
251 244 232 226 222 219 221 219 216 217 220 224 225 213 230 227 226 220 220 223 243 224 219 206 217 220 231 236 238 240 242 238 241 249 248 256 271 281 281 302 362 457 447
214 221 259 261 254 249 246 245 239 236 233 229 230 227 226 224 224 230 239 239 233 227 205 215 210 239 240 241 234 249 245 239 241 247 251 260 277 282 302 360 456 443 421
236 239 226 220 221 222 227 229 223 234 240 229 237 235 231 235 194 244 224 224 229 222 230 225 226 216 211 241 229 236 242 268 249 251 259 275 281 307 355 463 442 411 410
229 231 229 230 226 230 217 224 213 215 234 219 242 229 234 239 239 235 235 233 217 223 218 212 221 221 247 242 243 237 257 270 253 262 270 280 299 375 458 437 409 392 402
217 222 228 227 226 228 217 219 211 224 225 221 222 207 225 226 227 241 232 239 210 221 214 210 210 226 240 249 249 257 272 274 262 270 279 289 361 454 430 412 396 411 393
212 214 219 220 218 221 214 226 218 232 206 227 232 211 227 228 238 235 216 226 227 211 228 219 235 240 247 227 266 256 286 255 267 274 288 306 451 436 429 415 404 408 385
213 215 213 213 222 221 224 225 219 217 233 215 231 234 229 228 229 217 236 215 236 234 223 207 251 240 238 259 265 282 253 265 278 283 298 454 440 438 430 422 442 407 378
212 213 217 215 213 222 220 220 205 223 225 228 225 231 225 244 227 228 220 227 233 218 239 247 229 238 242 262 281 248 266 269 274 294 313 439 428 394 373 463 424 400 375
211 181 216 205 207 220 219 204 221 212 232 231 228 218 238 231 235 227 226 238 249 244 248 230 247 242 259 258 250 262 264 279 293 353 429 419 397 378 460 443 423 389 370
212 212 210 217 214 217 221 199 214 227 233 227 236 239 235 251 251 227 234 241 241 229 234 230 244 238 262 250 263 273 276 292 313 430 411 403 386 366 454 426 409 389 363
211 205 204 222 216 216 209 227 236 219 227 242 242 244 245 236 243 240 235 241 238 232 231 247 237 259 250 266 263 278 293 310 418 405 398 385 368 463 446 417 400 383 377
211 192 216 217 215 211 225 233 219 238 249 245 248 242 246 247 238 234 236 237 227 237 254 237 248 260 285 260 280 286 306 427 410 387 380 401 466 454 428 409 393 378 376
194 216 217 200 206 227 235 231 239 251 249 248 226 239 246 234 233 247 234 227 247 253 236 259 262 274 266 277 283 305 407 416 397 377 410 394 463 438 414 401 388 381 350
216 215 206 207 227 242 225 250 251 248 216 248 248 257 231 228 247 232 245 248 241 238 259 251 262 268 276 289 295 325 420 406 383 371 381 411 451 424 402 392 382 363 363
215 206 216 227 240 258 255 254 249 240 237 240 245 243 232 241 226 249 245 236 239 264 246 275 269 280 291 299 349 415 404 391 377 399 411 460 439 413 395 386 376 349 421
207 223 225 235 262 268 244 239 226 235 247 237 235 229 238 241 251 241 229 255 259 247 266 270 280 296 304 413 414 404 406 402 391 479 466 446 426 404 390 381 364 448 417
228 222 249 262 261 259 227 241 248 241 233 234 228 236 241 246 237 250 255 244 271 270 280 279 302 322 416 399 399 404 401 383 482 469 451 432 414 395 383 374 388 440 408
241 265 271 251 231 245 245 246 239 236 227 249 247 247 239 234 260 253 250 269 270 282 283 309 427 410 400 388 385 384 379 481 470 456 438 420 404 389 380 365 404 434 402
265 261 250 246 249 241 237 237 232 241 249 250 241 235 254 266 258 268 280 281 287 304 326 410 407 390 388 382 408 477 479 467 456 443 425 410 395 383 371 396 450 425 397

GFSGL_2pvu_pres_069.txt.gz
Presure
210 207 225 234 211 207 201 175 205 204 212 206 206 206 175 212 177 187 191 197 190 205 194 186 183 197 194 196 195 202 208 210 211 204 188 210 219 217 229 230 227 227 234
202 227 211 215 217 206 202 202 196 195 202 214 213 214 215 191 189 187 191 188 189 181 183 189 195 193 195 208 206 208 202 205 200 204 217 223 226 236 228 223 229 223 205
229 202 218 208 209 213 207 185 201 198 196 192 202 195 189 188 190 185 182 181 182 190 188 191 188 190 198 195 224 206 208 218 233 233 230 238 242 224 236 228 219 222 230
224 207 201 228 216 207 204 193 193 216 199 211 182 180 180 184 189 189 182 183 184 187 186 189 185 203 209 203 209 212 244 244 231 234 228 236 237 237 234 223 203 238 235
192 197 205 178 198 204 192 194 185 213 189 212 178 191 179 180 179 175 181 179 178 184 190 217 228 209 210 219 241 246 230 222 216 206 199 233 254 252 231 238 234 249 235
238 231 200 198 215 191 191 199 185 188 189 198 196 180 197 178 181 188 186 194 190 193 232 206 230 224 250 241 232 227 223 225 243 245 234 235 254 230 216 230 248 213 267
248 242 204 191 193 194 192 195 187 187 190 210 201 191 198 192 193 194 192 214 233 244 233 230 224 248 231 240 226 222 242 212 232 235 237 242 235 230 218 215 235 243 253
240 248 233 229 231 231 228 219 209 193 192 192 193 191 192 195 212 221 231 230 223 229 234 227 222 234 221 206 230 236 242 224 232 243 242 233 234 222 213 229 230 250 242
203 180 209 226 205 220 228 174 239 230 226 227 234 235 243 224 236 232 232 216 228 220 232 220 209 224 229 225 218 245 245 239 226 240 229 235 228 211 241 252 252 248 205
161 161 203 197 190 184 207 208 219 214 226 233 232 233 235 228 225 224 219 227 224 223 222 215 213 218 233 230 240 246 238 238 236 231 228 231 230 241 223 248 238 219 267
194 204 203 187 197 200 205 206 213 213 208 212 219 225 221 224 222 216 215 222 216 224 215 204 221 227 236 256 261 255 247 232 218 234 240 234 244 244 244 233 252 251 265
181 199 205 204 196 200 196 206 204 209 204 198 211 214 218 217 208 217 202 216 219 218 205 212 218 215 229 257 255 251 246 218 240 237 240 249 240 250 242 249 250 265 258
199 197 198 204 205 198 202 204 208 200 210 210 214 213 210 221 222 218 205 217 215 215 213 219 219 217 233 262 259 236 215 246 235 252 242 242 244 244 248 253 262 266 261
202 204 198 207 204 205 205 204 213 202 209 210 213 211 205 224 220 213 214 219 216 213 220 223 217 226 274 257 246 231 242 235 247 240 241 252 248 241 252 261 259 255 276
197 205 209 212 203 205 209 214 211 206 208 212 210 217 203 215 218 223 217 223 218 208 222 217 228 241 263 250 257 243 239 245 241 239 249 247 240 250 253 252 259 271 281
192 204 216 213 210 205 207 211 205 206 209 207 209 212 216 214 221 220 221 220 212 224 217 228 236 264 258 247 241 246 244 243 238 249 247 241 247 251 254 260 269 272 297
196 212 218 221 212 208 210 203 208 211 219 213 216 215 217 218 217 219 220 214 223 217 221 236 273 263 251 245 250 240 241 247 252 248 244 243 254 260 257 271 274 292 344
221 213 218 215 214 205 209 213 212 215 213 212 207 219 217 218 217 223 225 222 217 224 237 266 273 260 258 253 239 255 248 249 249 240 256 253 262 264 273 268 303 340 405
213 213 215 216 204 213 216 214 215 225 203 222 222 216 223 217 226 227 226 224 224 240 261 273 258 249 254 259 248 247 251 248 247 255 257 263 267 276 286 309 407 400 360
216 218 215 214 221 222 219 217 212 218 220 225 216 217 218 231 227 226 226 229 242 266 262 271 263 256 255 253 253 251 251 256 262 264 263 270 274 293 326 407 399 359 397
223 222 226 227 219 222 215 222 220 226 225 216 226 232 232 226 223 205 239 244 255 266 270 255 251 249 253 255 255 258 257 261 264 268 273 289 290 410 409 399 405 400 392
229 230 226 222 220 222 220 230 228 230 232 228 232 226 226 238 239 242 258 262 286 259 246 244 259 258 258 259 257 262 267 272 280 288 292 355 404 401 414 409 398 425 479
225 224 225 219 218 231 233 232 230 228 232 235 226 237 242 252 254 263 255 277 242 262 264 257 264 262 259 264 267 276 280 287 295 373 421 417 414 416 409 401 487 476 464
231 231 234 235 234 232 234 228 232 235 233 231 245 251 258 255 273 269 241 270 264 264 266 264 267 267 275 281 283 295 305 412 417 408 412 334 409 401 481 486 469 461 444
240 236 228 239 236 226 228 240 241 207 252 259 260 254 278 288 264 255 266 269 267 265 270 276 279 285 292 298 321 426 429 380 396 364 420 409 504 490 481 466 457 441 428
236 235 236 247 243 245 248 244 254 255 257 263 284 278 279 255 269 272 265 272 269 278 283 291 304 324 378 411 436 401 436 429 411 408 513 500 482 472 465 451 440 426 416

GFSGL_2pvu_pres_072.txt.gz
Presure
237 216 214 225 222 231 229 222 229 234 230 215 225 219 222 225 228 226 241 239 234 228 186 191 200 193 193 184 188 192 199 192 189 202 218 205 236 226 235 231 226 227 222
230 228 223 212 236 219 218 233 234 224 227 230 222 218 216 225 223 176 213 211 190 188 188 183 184 188 196 195 191 191 191 199 205 221 223 231 233 220 228 217 214 220 237
242 226 225 225 219 214 243 231 216 221 222 218 213 204 202 213 180 199 205 185 187 184 190 205 184 190 184 194 191 192 194 220 229 217 211 209 227 237 232 215 227 238 223
243 233 240 227 227 227 217 204 211 204 190 206 218 209 197 233 191 205 197 197 182 185 193 193 191 193 189 191 192 211 225 211 224 219 215 225 217 216 197 229 228 232 224
264 246 230 249 230 231 207 194 217 186 188 210 197 197 198 212 206 198 193 200 206 201 196 195 188 194 190 195 189 232 220 231 228 213 218 225 221 195 227 247 251 247 236
214 252 258 235 220 234 197 191 192 191 190 191 197 205 203 207 191 184 192 186 192 192 191 191 191 200 195 216 213 224 225 208 214 212 208 213 194 247 253 247 240 244 246
202 215 218 242 255 245 230 230 209 201 199 202 190 201 202 186 182 198 195 200 203 210 210 212 216 227 218 213 217 218 216 217 199 213 226 225 225 253 259 259 254 248 220
196 195 208 208 213 219 227 240 238 236 207 206 231 224 224 224 227 219 226 226 220 208 211 213 209 221 223 208 216 219 222 215 214 195 222 218 231 254 259 253 241 216 240
178 191 180 188 174 206 195 185 173 196 192 193 193 204 204 196 199 214 210 218 214 223 216 215 215 214 212 220 214 225 218 206 221 219 218 228 254 265 257 242 237 247 230
182 165 192 183 179 186 183 201 205 195 183 197 206 192 202 203 194 205 211 212 215 214 197 197 205 217 221 219 222 220 222 211 222 219 221 232 259 256 256 255 250 260 250
191 192 144 196 198 182 187 182 176 192 193 196 202 195 199 201 209 203 202 206 210 212 209 205 200 222 215 206 222 224 216 221 218 216 233 254 262 259 252 243 256 242 251
177 202 203 160 200 195 195 192 193 163 198 198 199 203 202 204 211 206 203 205 208 202 203 205 222 216 210 215 217 223 217 221 214 228 236 262 272 255 242 251 249 245 250
193 196 196 188 206 193 181 214 216 206 204 212 210 201 204 203 208 209 204 204 218 211 211 223 216 217 218 215 224 226 219 218 220 235 237 259 261 260 260 254 247 245 244
205 210 195 191 192 195 192 197 206 200 206 203 214 211 210 205 211 206 205 212 213 207 221 217 216 213 219 212 225 219 217 206 230 229 253 271 268 258 259 245 247 255 253
202 206 201 211 205 210 214 201 203 208 215 205 214 222 219 216 207 212 213 214 219 222 218 216 212 221 219 225 219 217 202 231 233 249 267 275 269 252 240 243 257 256 253
211 208 209 218 215 214 210 216 221 183 213 214 215 219 218 210 216 219 216 220 216 214 218 214 218 222 224 219 219 203 234 231 247 276 267 254 238 250 258 261 255 252 261
213 211 213 221 223 222 218 223 215 214 215 216 218 217 217 221 222 216 212 220 221 221 215 231 222 225 227 222 233 229 229 254 255 271 242 239 258 259 261 253 259 263 269
212 210 213 195 219 225 220 215 216 214 218 215 219 216 221 228 212 217 221 227 224 228 229 222 227 232 226 223 236 243 270 265 270 239 253 267 256 263 262 263 270 275 273
223 213 214 217 228 226 224 224 225 222 213 226 218 226 229 215 224 213 228 223 233 225 225 227 234 222 219 232 262 253 271 260 247 270 273 262 257 268 269 274 277 286 298
221 216 213 224 231 226 226 223 217 229 225 223 238 232 235 225 220 233 220 235 227 225 231 233 220 236 242 261 257 289 266 269 282 269 265 269 272 278 283 291 291 312 346
216 232 227 230 228 224 227 206 233 223 244 230 243 229 218 231 226 234 234 227 225 236 237 217 247 251 263 274 294 277 282 273 266 274 278 280 284 291 306 383 442 399 416
232 231 229 225 229 237 234 227 244 234 227 242 227 225 237 237 231 227 226 239 238 237 247 242 259 267 279 281 284 276 264 274 279 281 291 294 300 341 419 416 403 309 421
239 237 237 232 237 229 231 229 227 235 236 225 234 234 233 227 228 238 237 234 251 251 251 256 279 290 292 281 265 273 279 288 294 301 311 356 420 414 403 318 438 425 404
236 230 230 230 227 234 233 232 237 229 234 236 232 242 234 239 242 230 250 254 259 265 267 304 300 282 271 277 283 292 296 306 319 419 421 410 326 423 427 415 406 397 492
228 226 228 232 236 240 240 231 238 242 247 247 241 241 245 231 250 255 244 245 270 298 301 289 274 280 290 295 303 314 451 459 445 337 435 439 445 535 531 521 502 481 471
242 241 241 236 232 244 247 246 248 248 245 242 245 247 254 253 242 261 276 299 307 284 280 284 295 302 310 381 468 444 326 395 497 583 571 556 539 522 509 492 477 465 455

GFSGL_2pvu_pres_075.txt.gz
Presure
246 238 229 215 221 222 214 216 215 216 214 213 219 228 240 237 231 225 229 230 235 233 239 206 175 172 187 182 192 219 210 175 202 196 193 204 198 218 228 223 226 213 206
260 235 240 240 221 215 220 215 223 215 223 223 221 223 229 232 231 197 233 217 231 191 235 179 187 215 213 199 203 192 194 197 198 202 201 198 233 204 222 202 215 212 224
227 263 245 231 237 235 229 211 217 204 224 215 236 234 232 212 218 226 210 193 194 187 198 208 198 205 197 198 193 194 198 192 199 206 236 228 202 212 211 199 193 207 199
197 226 260 255 247 222 232 224 220 225 223 228 226 214 189 182 190 186 189 189 197 203 196 198 201 199 192 190 191 195 204 216 212 222 214 212 218 221 216 213 216 216 200
190 191 191 241 266 259 224 234 221 231 217 219 202 193 193 196 195 202 204 213 228 195 202 195 185 190 196 201 213 220 211 209 209 204 208 204 211 209 218 213 209 211 209
184 197 191 181 210 261 258 248 217 248 222 207 204 196 193 200 202 202 215 216 215 142 226 223 224 222 204 207 207 213 212 205 209 195 224 225 219 214 222 214 216 206 221
188 188 183 197 192 191 213 230 234 237 244 253 235 235 228 213 217 175 203 199 195 201 195 197 201 201 195 193 189 201 205 196 198 202 199 222 208 215 218 219 215 221 215
208 207 191 182 189 203 188 211 194 197 172 187 196 200 208 202 200 172 191 193 208 194 199 197 194 195 190 193 193 213 202 198 204 192 213 206 217 209 220 224 221 225 215
201 206 192 189 177 156 173 194 189 180 174 199 184 193 201 202 202 200 167 196 203 205 203 203 203 205 201 200 198 204 206 202 205 223 212 219 220 220 223 221 224 214 232
200 203 205 200 194 199 181 186 176 167 191 198 188 180 181 166 193 174 197 200 189 199 198 199 200 204 207 200 201 204 211 212 210 208 216 217 220 221 225 226 218 225 230
206 207 204 202 195 197 195 151 192 193 199 199 200 200 192 187 183 210 201 199 205 212 212 206 208 207 208 201 205 204 218 206 224 213 216 219 217 224 223 218 228 235 237
197 213 209 202 202 199 201 202 185 195 202 192 188 199 182 198 191 197 193 207 213 204 205 214 214 214 205 198 209 212 212 200 215 217 218 219 214 225 224 226 231 231 254
192 195 199 204 212 202 202 208 186 191 191 188 191 187 197 185 197 198 200 203 212 207 206 214 214 210 202 208 218 213 206 219 216 218 217 209 227 230 222 232 231 244 252
210 127 203 202 214 218 219 210 204 202 203 206 200 207 205 198 207 202 212 217 211 212 211 211 210 209 213 219 219 206 219 216 224 216 220 227 232 219 230 236 240 254 281
208 213 187 208 211 215 212 211 208 211 204 204 197 214 212 208 219 213 218 220 209 212 207 213 222 216 226 222 210 218 223 230 219 226 224 230 231 229 238 242 254 279 275
213 220 219 213 209 207 212 213 213 214 209 213 216 213 207 219 212 219 221 218 215 216 214 225 221 232 232 217 222 232 221 225 229 227 235 232 229 240 239 249 276 277 267
221 216 220 207 205 207 208 213 216 214 210 215 214 210 211 215 223 229 219 216 220 217 228 215 233 234 236 227 237 223 226 228 228 235 229 234 244 242 248 261 267 282 273
222 219 216 213 214 219 213 213 213 214 216 210 216 222 217 212 225 227 223 225 207 234 216 226 229 242 227 236 225 226 230 229 237 229 234 242 252 255 274 285 283 273 263
222 217 229 224 226 212 220 219 215 213 217 216 224 222 213 235 226 233 228 213 237 220 236 228 228 232 228 229 236 221 238 230 228 240 245 254 258 278 288 273 267 269 286
234 230 238 226 221 229 235 229 223 224 224 221 215 220 227 229 230 228 226 239 232 227 236 234 241 227 239 238 236 241 229 226 246 249 258 268 298 291 272 269 286 293 305
251 250 247 245 242 239 229 228 227 224 217 235 228 227 229 235 235 227 236 229 232 241 235 251 247 236 239 246 240 234 242 248 261 265 292 297 279 273 296 302 312 327 430
243 243 240 235 236 230 231 238 237 246 234 234 240 239 237 233 243 233 233 242 233 232 250 232 241 254 248 237 243 250 258 262 277 304 288 281 295 309 330 356 450 444 404
234 228 230 229 224 228 237 242 249 239 238 240 248 254 251 245 243 242 228 249 251 230 240 257 250 233 246 257 264 265 286 304 297 285 296 320 393 464 460 376 318 444 429
229 238 237 237 242 254 254 239 238 240 251 250 243 241 241 230 242 251 251 242 243 251 253 230 260 258 258 278 292 307 310 291 301 325 461 471 400 321 553 569 413 359 537
255 260 252 249 246 228 241 246 247 241 241 241 253 241 245 253 257 240 243 246 260 247 260 256 273 292 287 313 309 295 308 362 498 515 372 609 594 577 570 559 548 532 511
239 272 258 247 245 242 249 238 244 247 245 263 260 257 255 253 263 262 258 242 257 266 274 290 301 318 303 297 347 532 610 515 435 594 484 473 562 551 543 532 518 498 487

GFSGL_2pvu_pres_078.txt.gz
Presure
209 269 251 238 225 227 220 215 217 214 214 212 213 213 213 215 218 215 212 208 226 221 221 226 201 212 199 211 195 203 200 185 199 206 216 203 168 200 215 221 219 211 205
201 204 263 262 229 254 234 227 210 211 206 204 205 207 213 216 228 225 223 217 228 228 197 178 194 187 194 201 214 208 196 194 216 212 196 197 215 223 212 210 209 210 193
194 187 195 211 260 250 231 235 224 219 215 215 215 201 206 215 231 215 229 223 182 186 190 191 201 208 199 202 197 194 217 205 212 207 200 215 201 191 208 208 204 207 210
197 193 191 197 204 217 269 246 225 230 230 230 216 221 222 220 216 221 205 210 202 182 195 203 194 213 223 235 185 173 204 198 201 200 203 206 205 194 206 195 202 203 202
197 208 183 193 191 199 185 210 268 239 236 235 217 221 222 209 222 193 192 190 189 190 195 201 215 214 192 188 205 201 197 199 189 199 191 198 200 193 202 205 204 209 209
205 200 197 184 188 190 193 200 197 238 270 225 230 226 225 222 221 211 202 203 204 164 159 214 191 197 204 210 199 195 194 201 201 199 194 197 195 192 195 201 208 212 205
210 202 213 204 205 188 189 191 189 198 205 191 244 244 244 243 244 239 231 222 222 211 197 202 206 197 195 182 200 200 197 194 197 185 198 200 203 196 197 201 205 210 194
195 207 210 204 209 203 209 196 178 184 189 194 187 178 195 186 172 181 188 180 188 196 172 188 190 188 186 193 199 202 207 209 203 205 211 208 207 196 198 209 208 207 204
195 198 207 203 202 204 202 206 205 200 184 176 196 176 184 177 162 163 167 194 183 169 193 188 182 197 204 193 185 210 206 201 203 209 205 209 206 201 204 213 210 202 209
194 199 205 209 206 203 201 197 203 204 204 198 199 205 187 187 185 156 200 202 184 189 196 187 190 189 193 191 203 200 206 204 208 204 206 206 205 198 209 219 212 202 221
197 196 201 203 210 209 201 194 203 199 199 203 203 199 200 205 197 188 207 199 188 192 208 189 202 184 195 201 197 207 210 207 205 203 201 219 210 210 223 218 208 215 220
205 212 211 206 201 205 204 201 193 206 210 204 194 201 203 203 209 200 192 191 197 195 193 202 199 199 194 209 212 217 213 205 204 206 206 213 210 222 225 223 215 218 226
202 195 200 204 198 206 195 209 202 194 195 193 200 203 210 211 208 203 204 202 198 202 204 191 199 210 210 212 205 215 215 207 211 211 220 210 218 219 232 214 227 228 231
212 205 201 202 201 193 159 194 205 209 199 202 206 206 207 206 203 207 211 196 201 202 204 209 215 200 195 204 213 218 217 216 217 211 226 215 217 223 213 229 227 235 217
214 211 208 209 203 203 199 203 201 206 206 209 211 202 207 210 211 212 212 210 212 213 212 206 202 205 207 204 207 220 225 218 220 231 221 220 224 228 227 230 230 244 239
216 214 212 214 212 206 204 206 214 201 212 205 206 216 215 211 204 209 203 211 212 207 213 208 211 215 216 203 221 226 233 225 222 230 228 221 232 229 232 221 248 239 233
212 219 221 216 213 218 217 203 206 204 216 219 216 221 214 203 206 209 216 209 213 215 210 217 221 225 206 225 233 229 235 230 229 229 232 235 227 232 223 243 240 235 241
221 224 237 235 225 224 220 218 223 230 231 223 224 218 215 213 211 218 215 212 211 219 225 224 226 208 227 226 226 236 231 232 233 235 241 238 246 225 239 238 240 247 251
227 222 217 238 214 230 226 226 229 225 222 224 216 216 217 216 223 211 215 224 221 221 223 227 229 224 233 236 237 234 238 243 237 246 247 231 233 241 256 249 252 253 270
243 246 236 234 217 216 220 220 226 225 224 230 230 231 235 230 229 234 228 228 241 238 228 228 232 239 241 239 240 252 242 232 255 248 250 242 243 242 253 259 268 279 314
235 253 251 244 255 255 241 244 235 232 234 237 242 242 241 226 258 259 252 249 248 240 230 231 243 242 235 253 239 250 258 250 230 251 248 243 253 263 281 278 305 319 302
241 208 191 200 229 224 256 241 247 253 256 257 249 251 256 249 246 235 247 242 238 245 241 252 251 250 254 254 242 251 270 260 253 251 255 268 297 284 308 326 305 371 490
252 246 259 250 256 226 237 274 261 247 247 247 251 253 250 241 244 241 240 240 239 242 261 252 251 262 244 237 252 270 252 256 270 271 313 296 312 331 310 404 631 620 607
258 259 258 242 222 256 263 253 252 255 259 241 236 237 231 242 241 242 239 262 259 256 253 253 240 233 262 263 242 282 277 276 299 307 318 307 310 562 624 615 603 591 580
261 260 253 260 265 279 253 256 264 260 262 259 257 261 244 236 241 251 230 259 266 255 233 265 285 299 298 296 297 288 304 310 305 310 318 598 566 592 585 577 569 559 550
285 291 290 291 285 245 269 266 269 249 254 252 259 255 259 259 258 269 273 268 294 243 243 290 285 293 296 311 311 302 296 307 376 569 487 419 554 551 547 541 536 527 520

GFSGL_2pvu_pres_081.txt.gz
Presure
212 201 209 215 252 253 235 226 230 228 228 235 232 227 223 218 215 213 213 212 211 212 210 208 208 223 218 224 216 202 197 203 182 179 211 233 228 222 219 201 199 205 197
212 212 199 199 204 227 269 236 221 220 221 222 217 216 213 213 208 209 212 213 215 217 214 227 217 222 227 202 203 196 190 198 219 237 217 211 201 196 203 195 194 210 186
195 212 212 196 200 199 211 252 256 255 230 223 211 213 212 211 209 209 213 202 217 217 226 234 225 205 216 182 178 193 204 231 202 194 213 207 198 200 196 204 201 190 196
205 197 210 208 190 190 199 207 207 231 251 240 225 222 219 217 217 212 211 209 220 224 214 204 206 196 196 193 199 204 215 196 190 188 203 200 201 202 207 207 204 203 205
219 198 201 208 208 210 184 192 192 195 198 213 218 241 228 226 227 226 225 217 220 211 215 208 209 204 202 182 193 210 186 200 201 188 192 193 199 209 211 202 199 198 199
221 205 195 193 203 209 206 202 184 190 189 199 193 195 203 255 239 230 239 223 235 226 228 213 215 205 221 208 200 202 197 180 203 211 177 205 191 198 195 200 202 192 201
215 203 205 195 182 213 202 206 212 202 202 188 189 193 176 202 196 202 193 190 202 202 185 173 178 178 181 184 184 175 193 195 185 194 187 192 193 197 197 204 210 212 205
208 223 204 201 190 188 192 197 195 203 207 206 206 192 186 188 189 191 188 177 183 187 190 186 183 184 181 189 197 191 198 194 187 191 190 195 198 197 205 211 216 209 205
226 228 208 213 206 192 197 194 199 201 202 203 201 205 208 207 185 190 184 198 182 190 186 175 187 191 195 205 201 197 189 194 187 197 196 193 197 197 212 208 209 216 213
242 228 219 202 214 206 190 195 196 205 203 207 207 203 197 206 205 204 205 205 202 195 193 204 204 211 194 196 190 193 200 197 200 196 191 199 204 210 200 200 209 211 220
243 223 221 214 217 213 209 201 192 205 202 203 210 215 204 195 199 204 203 202 204 203 204 202 205 201 200 202 202 204 201 198 196 200 204 206 211 200 204 206 207 206 223
219 231 229 222 220 215 223 209 193 193 197 202 203 204 206 205 203 197 196 194 195 199 200 201 209 210 208 210 209 209 207 210 209 212 212 207 209 210 214 211 202 215 222
217 216 217 222 224 221 220 214 206 204 208 203 204 199 202 199 197 202 194 205 195 205 207 204 209 200 203 202 211 210 210 204 212 212 210 208 211 215 214 196 207 220 220
227 227 215 215 214 218 218 214 216 211 211 208 200 201 205 209 202 202 196 205 207 205 206 212 206 207 204 213 208 208 202 205 202 203 210 206 213 212 218 219 220 227 237
234 233 235 221 215 214 213 214 211 211 212 207 211 210 206 204 205 204 206 209 206 207 210 205 204 217 219 213 206 205 208 211 216 216 214 215 221 227 226 223 235 231 241
252 236 236 235 227 219 214 213 214 213 213 215 215 197 210 210 207 225 234 227 216 215 215 214 221 223 219 218 217 217 215 218 214 223 227 226 217 237 236 239 231 236 241
260 246 246 238 231 226 229 223 217 213 213 214 173 212 214 215 211 211 211 215 214 203 210 219 226 218 216 205 225 220 217 230 226 229 231 235 239 237 222 233 234 253 259
263 260 243 244 233 234 234 237 234 226 226 225 225 213 215 223 223 221 208 201 223 229 217 221 221 219 220 226 227 227 231 218 238 229 242 246 242 228 240 259 266 240 259
253 255 259 252 232 228 229 229 233 231 230 235 229 236 229 238 239 244 239 234 226 242 236 226 239 238 241 227 235 228 245 247 258 256 256 241 239 256 262 245 250 260 266
248 248 250 252 256 244 229 229 226 230 231 234 235 236 236 213 213 218 222 220 220 231 231 236 245 230 237 224 247 253 257 254 241 245 231 252 261 257 260 263 262 268 278
271 256 242 243 181 241 243 244 244 249 241 188 236 230 242 237 237 234 236 234 234 248 247 226 231 241 253 249 253 252 259 237 242 241 250 258 261 265 243 272 291 306 275
276 281 276 247 242 238 229 221 180 198 207 237 236 225 235 210 239 245 238 244 246 239 248 249 251 242 244 254 246 240 243 245 257 253 263 264 258 275 278 288 302 315 305
279 194 275 269 264 259 249 247 247 247 248 253 254 209 247 255 237 247 235 236 240 240 253 268 263 258 251 242 222 246 270 269 265 252 276 297 314 313 309 316 304 319 320
287 267 267 273 272 273 268 266 265 260 252 259 261 262 259 249 251 250 249 255 259 254 261 280 262 235 262 259 270 273 278 275 281 308 313 300 313 297 307 322 332 549 411
278 283 281 278 270 271 258 258 260 258 255 189 247 246 246 247 232 256 271 262 268 286 282 285 258 282 279 247 280 289 299 315 314 309 296 324 298 321 348 542 405 549 550
282 288 277 278 284 282 268 274 274 278 276 269 270 272 271 274 273 285 288 286 278 272 279 275 283 287 296 301 313 310 311 300 300 305 313 364 534 527 447 458 518 515 513

GFSGL_2pvu_pres_084.txt.gz
Presure
210 224 214 207 214 224 242 262 230 240 247 231 199 200 198 199 206 184 183 183 180 180 177 180 188 183 188 200 208 201 200 205 209 225 234 201 198 184 218 206 184 200 210
194 213 226 207 222 198 214 224 260 258 229 228 228 236 245 243 206 211 211 204 211 211 205 211 206 209 211 205 204 206 228 217 244 233 199 182 180 209 195 190 208 197 197
194 207 229 215 202 218 195 198 215 221 263 256 231 224 223 225 230 229 217 217 215 214 216 216 213 213 211 214 220 230 229 208 209 201 193 191 170 194 187 202 215 209 191
200 193 194 215 221 194 211 216 191 198 211 216 228 267 267 226 219 213 213 214 214 214 213 207 211 214 216 212 223 225 195 191 189 209 201 199 191 201 180 188 197 197 194
205 186 200 201 213 216 193 205 208 209 190 198 198 213 214 219 235 266 255 248 240 234 230 229 225 226 225 227 230 220 215 236 224 193 204 185 187 183 189 195 199 193 190
187 201 188 191 202 209 216 189 202 201 206 208 189 189 192 198 185 207 213 218 231 253 253 242 246 237 213 211 205 207 196 194 178 188 191 178 183 199 196 193 193 199 194
201 201 203 216 195 208 206 220 198 186 207 196 204 205 201 199 188 192 194 195 201 192 191 196 198 196 196 193 186 191 192 185 181 185 187 189 196 205 203 194 204 202 205
202 203 205 203 206 196 220 230 214 203 192 186 202 194 200 203 201 199 201 198 189 184 191 192 191 187 186 185 186 183 186 185 187 185 206 198 201 204 203 204 202 194 201
191 195 198 203 203 210 219 223 228 211 207 194 197 201 202 202 195 196 202 195 201 205 202 197 191 188 188 194 196 196 189 188 199 197 205 207 205 204 205 206 207 210 214
198 207 201 205 193 216 212 215 232 228 213 211 203 184 204 202 200 204 206 214 208 200 201 204 206 206 205 205 207 208 206 205 202 201 206 205 209 209 208 214 204 203 200
205 204 206 205 217 212 229 221 216 235 226 208 218 211 205 199 204 205 208 212 211 217 211 202 198 198 201 203 201 201 199 205 208 209 204 208 208 209 210 214 201 204 212
164 212 218 231 214 209 225 221 222 224 225 220 224 218 215 209 203 203 203 203 206 207 208 209 206 205 203 202 208 202 202 205 201 207 206 205 210 217 217 217 218 220 217
215 226 218 214 212 229 223 221 218 220 228 233 222 219 213 223 211 207 209 214 215 214 212 205 193 192 204 200 201 205 206 209 213 216 213 211 211 221 226 225 226 218 226
223 224 226 231 237 238 228 223 218 222 218 225 222 218 226 220 216 209 208 209 205 218 214 212 209 207 219 214 213 213 220 210 206 218 214 230 225 234 229 218 221 227 228
242 248 249 249 253 256 253 253 226 227 227 220 221 216 218 218 201 203 221 223 204 208 212 214 214 210 219 216 190 223 227 221 209 226 209 235 224 235 243 243 240 237 235
279 277 282 281 275 272 271 263 266 240 239 237 231 229 230 225 209 208 198 209 210 209 222 205 180 171 214 216 213 207 216 221 216 206 242 219 243 229 226 225 245 229 234
286 281 282 273 265 263 265 253 260 255 255 241 242 243 239 237 225 205 214 225 217 213 213 215 223 222 205 214 224 222 218 215 246 228 216 239 227 227 234 246 239 236 259
304 289 267 249 251 265 267 249 276 250 247 239 200 207 220 210 223 216 213 213 231 228 221 218 226 231 238 235 231 223 235 243 237 230 225 228 234 224 239 245 230 232 248
328 337 274 280 255 250 265 257 248 245 256 256 258 237 246 245 213 235 233 249 239 246 235 233 234 230 241 244 248 248 244 228 231 238 232 239 246 215 241 239 235 252 251
305 311 320 305 240 259 246 242 244 251 262 238 232 206 245 184 224 236 238 258 224 188 182 234 238 236 237 234 201 211 234 239 248 209 245 234 234 242 249 231 260 253 269
161 294 303 306 288 259 246 246 253 242 245 178 242 239 249 242 234 184 184 230 251 235 232 239 224 197 243 226 234 236 232 238 238 221 239 241 246 238 239 268 260 240 302
286 288 173 295 312 304 274 253 251 246 247 263 234 242 245 245 241 242 240 246 247 243 242 231 239 232 239 235 235 243 251 248 250 254 255 266 268 266 271 281 302 290 297
278 282 288 300 288 308 299 284 289 269 263 253 252 251 246 246 240 241 238 243 202 246 248 240 244 237 249 260 264 269 270 270 266 263 269 266 272 304 302 301 306 301 303
280 289 283 280 299 281 293 291 287 293 295 269 271 261 259 261 262 262 255 255 258 244 245 245 259 268 261 256 267 264 258 267 269 281 274 306 301 307 322 329 324 308 316
295 273 277 280 286 284 279 291 275 293 296 276 280 272 272 271 255 256 255 257 257 259 272 273 265 266 264 257 265 272 284 272 309 296 314 304 306 323 335 314 323 354 503
320 290 309 299 280 275 308 301 289 289 274 271 290 291 283 272 275 283 282 287 280 276 272 270 272 276 280 302 301 298 309 302 301 319 311 313 314 312 328 451 356 311 417

GFSGL_2pvu_pres_087.txt.gz
Presure
200 192 198 208 219 217 201 219 243 275 231 215 203 202 193 191 189 191 190 190 190 192 192 191 196 194 189 181 179 184 186 183 180 189 195 194 202 203 203 237 239 219 194
194 196 191 184 208 230 208 203 199 225 244 269 251 203 201 197 195 196 192 192 192 195 196 193 191 185 200 194 197 200 209 203 219 202 194 202 220 229 228 215 210 203 216
197 186 194 190 200 197 220 234 218 192 203 226 235 251 252 239 244 249 216 208 205 203 241 216 209 211 210 202 200 201 204 203 209 210 205 228 218 211 204 205 201 197 207
200 200 190 196 196 202 197 209 235 220 207 192 201 215 221 235 251 255 252 223 221 228 237 235 225 222 218 215 217 218 216 208 211 229 233 215 231 210 199 212 214 201 199
194 203 199 196 200 200 205 183 200 211 220 223 205 190 194 209 211 215 221 228 239 246 261 214 213 212 213 214 216 222 250 245 227 243 248 228 220 212 211 193 199 195 199
192 198 211 213 206 205 199 204 189 189 221 213 234 206 212 185 185 193 198 202 207 213 215 214 219 226 231 237 237 237 227 203 208 205 210 209 206 181 198 199 196 193 189
199 188 194 197 202 210 215 207 193 207 197 208 212 225 208 201 207 210 208 187 189 190 187 189 198 200 199 202 193 204 198 196 191 195 196 194 194 190 194 191 192 194 205
204 198 194 209 213 206 207 203 204 205 202 210 205 216 225 221 210 210 205 216 216 218 205 200 197 193 199 197 195 193 194 196 204 211 206 207 206 207 203 211 207 200 201
190 201 198 222 213 194 198 194 200 202 204 205 214 199 221 229 219 217 209 204 205 211 212 210 202 205 205 203 203 206 209 203 211 210 209 208 202 204 202 202 201 204 203
201 198 207 194 193 196 195 186 198 198 204 220 208 238 213 224 234 228 218 214 212 207 201 203 204 205 219 209 223 207 207 209 205 202 201 202 203 202 204 207 206 206 206
202 200 203 193 193 158 203 196 194 193 206 200 220 229 218 212 231 227 226 219 214 216 209 212 213 206 203 199 198 200 203 204 197 199 199 193 201 208 203 202 208 211 218
200 206 203 202 196 199 197 200 202 201 211 206 212 230 218 232 224 222 226 218 219 220 223 220 216 207 207 205 202 204 208 209 204 203 211 211 207 206 213 213 222 190 218
201 200 205 199 203 209 218 228 213 217 209 209 210 209 216 212 231 224 220 223 227 230 227 221 216 212 215 234 200 208 232 238 219 186 207 219 225 204 205 219 221 228 220
209 213 214 214 211 213 218 225 221 225 223 235 227 221 224 231 234 233 221 223 219 227 233 218 213 217 210 234 213 197 193 191 231 216 211 192 217 232 217 218 221 231 205
224 224 225 225 233 244 242 238 247 261 255 244 243 242 260 227 215 248 242 225 229 224 229 222 213 223 209 215 199 199 197 240 214 223 215 225 213 221 222 217 233 230 235
229 240 241 248 188 277 287 295 290 289 287 278 266 266 273 201 224 202 208 237 224 222 217 225 193 199 197 198 217 209 210 213 215 217 218 204 225 257 227 234 232 195 209
259 245 241 277 293 290 292 295 285 282 302 298 286 283 280 281 271 284 264 255 224 238 239 232 233 241 206 220 224 228 229 203 227 185 223 227 251 233 226 242 187 246 232
288 295 316 329 329 338 308 285 272 271 261 253 254 256 239 232 236 243 262 194 233 241 197 229 230 224 204 238 228 232 213 208 183 224 232 234 253 195 204 245 239 246 231
315 315 316 309 308 309 313 340 376 277 271 270 275 240 235 235 252 249 231 233 231 241 214 216 206 219 216 193 183 185 223 221 236 241 238 254 259 236 243 238 236 249 243
297 136 303 303 303 299 302 303 179 339 277 261 259 269 278 258 209 268 230 273 246 225 217 219 226 226 219 224 235 243 257 249 247 240 240 234 244 247 247 243 245 251 246
300 297 296 293 292 293 289 290 300 319 325 270 260 255 250 259 248 260 241 234 244 252 247 236 227 231 238 258 273 237 255 252 236 244 251 253 243 243 256 258 252 241 261
253 286 287 290 292 273 286 248 281 299 291 304 276 261 259 250 251 249 267 252 240 246 221 242 247 254 240 240 247 249 258 252 249 250 251 254 247 265 266 262 273 261 270
267 272 274 271 281 287 276 287 287 282 300 289 318 277 256 262 259 262 255 259 259 252 251 250 247 245 251 251 253 251 241 247 243 256 267 268 268 274 269 270 274 292 297
345 341 338 321 315 332 354 288 298 288 281 291 296 289 316 289 272 274 263 261 261 258 259 254 273 279 276 269 264 262 265 269 267 266 271 280 294 291 291 291 314 307 317
308 319 327 320 323 317 326 274 343 291 280 285 291 292 296 307 300 308 312 304 315 298 290 296 296 284 270 267 274 277 282 283 288 288 266 264 298 314 318 333 321 272 320
313 308 308 304 308 316 317 313 319 327 327 286 279 273 277 285 286 275 278 298 299 290 280 282 295 306 306 304 289 290 294 279 308 317 325 333 317 319 308 318 382 504 404

GFSGL_2pvu_pres_090.txt.gz
Presure
174 182 200 198 201 192 196 201 225 212 207 238 259 201 199 200 201 198 186 184 192 193 199 193 194 193 189 190 187 187 187 183 183 188 185 185 188 189 193 207 198 198 199
190 191 198 204 202 197 193 183 202 212 204 204 223 244 256 230 201 198 197 197 194 187 185 184 184 185 185 188 187 185 189 192 188 183 189 194 201 205 196 194 187 196 203
188 194 185 193 204 201 207 192 198 196 196 233 218 197 211 232 240 222 202 202 201 198 196 193 193 194 192 194 192 194 195 199 220 214 210 204 216 203 204 205 210 207 217
190 187 170 192 192 190 205 212 203 196 190 197 201 212 207 195 200 215 226 237 245 247 233 231 231 230 237 236 233 230 225 220 219 217 219 212 210 213 212 205 218 242 241
193 202 190 174 194 188 194 184 212 198 188 207 182 195 216 210 213 222 193 190 199 212 220 232 235 239 240 233 215 212 212 213 214 215 215 253 249 226 232 233 220 212 205
191 194 194 190 183 200 192 185 208 206 205 212 198 211 204 192 206 205 227 219 228 199 187 186 193 202 204 213 221 219 217 216 219 222 223 222 222 223 218 209 206 192 197
190 193 195 196 193 199 201 204 194 202 206 214 207 202 204 206 192 217 212 206 233 236 223 215 219 197 197 192 192 190 190 189 187 190 190 190 190 189 191 194 203 202 203
198 199 194 202 199 198 197 185 192 183 212 194 197 204 196 202 191 206 197 243 217 223 230 228 218 206 196 200 208 212 211 208 201 206 207 210 209 207 202 201 201 202 203
201 200 200 199 196 197 189 188 195 180 204 195 200 194 193 183 206 202 223 192 209 229 223 228 218 219 212 210 209 203 198 197 194 194 194 200 204 208 210 206 204 205 203
201 202 200 201 196 199 198 190 194 180 183 209 200 191 197 190 186 193 203 201 210 214 224 225 227 226 218 216 213 212 213 211 205 206 207 208 210 216 214 201 202 206 206
207 202 199 194 196 202 217 212 202 200 202 189 197 203 190 193 191 195 207 202 213 214 204 222 214 202 223 223 220 218 221 218 214 216 210 211 215 217 226 219 220 213 205
205 201 200 201 214 213 203 193 195 198 189 190 192 195 195 198 203 203 202 214 212 231 213 215 221 223 229 210 219 228 224 217 215 214 213 220 223 219 232 233 229 212 193
204 219 205 205 211 195 193 198 189 199 192 191 197 202 207 208 202 212 220 246 216 210 212 210 216 220 197 237 207 233 216 208 221 224 216 213 190 227 182 211 215 212 237
216 209 209 207 204 199 199 202 196 200 203 203 207 217 222 216 224 224 224 222 229 198 196 218 206 188 214 212 232 234 225 226 224 224 201 209 224 225 208 208 212 215 210
203 202 204 207 210 214 212 210 208 210 209 221 219 223 223 227 227 218 227 232 246 238 252 242 213 218 196 221 232 245 227 211 219 211 225 187 216 210 206 221 215 224 195
211 209 210 210 208 205 206 212 207 217 226 234 230 245 253 249 282 283 196 241 244 231 261 250 221 204 205 210 221 191 213 204 225 198 213 216 205 207 222 218 203 216 216
212 220 226 226 224 218 231 237 239 238 260 260 367 319 296 298 292 302 290 285 266 266 268 258 221 221 216 218 224 218 222 220 206 220 216 215 220 229 226 187 211 234 229
231 238 237 234 233 236 243 251 256 318 326 322 306 342 350 370 325 294 279 287 284 297 289 273 242 225 223 222 220 228 233 227 225 241 243 247 239 230 242 245 221 219 223
243 247 246 251 255 259 310 301 314 298 317 312 313 315 318 318 329 305 303 287 282 260 269 247 274 264 245 240 247 214 277 266 256 251 244 233 244 253 239 235 242 246 232
254 254 277 302 278 292 277 318 274 158 307 303 296 293 207 314 316 298 288 283 262 264 258 276 283 249 271 232 243 259 242 243 239 250 250 253 261 230 228 228 233 226 225
297 294 283 279 292 313 311 139 307 302 294 290 133 284 261 287 301 320 283 267 288 261 267 259 261 246 252 252 241 244 264 255 244 236 240 235 235 257 248 249 250 248 237
238 317 314 307 302 297 296 297 297 291 292 288 292 291 271 287 291 300 299 331 285 273 277 275 264 262 256 255 267 270 261 255 264 275 258 259 240 250 245 241 264 264 258
300 353 382 395 150 380 370 373 310 279 285 278 282 286 284 277 284 284 281 286 314 303 286 272 278 279 283 263 273 268 264 259 258 264 263 272 267 274 270 265 272 278 294
329 331 378 361 341 345 334 333 344 344 340 336 330 312 263 266 286 277 275 280 292 284 320 291 276 270 276 270 266 266 270 269 266 268 269 257 272 277 271 309 314 304 301
302 311 366 360 336 331 327 321 316 309 317 317 320 322 322 312 329 304 289 288 287 281 285 290 283 311 291 278 265 275 273 273 255 267 278 293 311 322 328 319 287 298 309
307 304 285 288 328 332 324 320 314 313 315 318 314 312 300 310 312 314 296 278 325 285 278 275 282 290 287 284 285 292 298 295 281 278 309 314 304 299 318 308 288 292 325

GFSGL_2pvu_pres_093.txt.gz
Presure
184 183 193 182 193 194 203 210 195 198 205 202 221 211 230 248 206 207 197 194 196 199 192 190 187 193 198 200 191 190 196 192 191 191 191 190 185 185 184 184 197 186 197
188 192 184 195 180 192 194 200 207 211 181 205 196 199 211 206 217 234 227 187 189 191 191 192 194 193 190 186 184 183 184 186 189 188 192 192 192 192 192 196 218 217 212
190 187 191 187 194 190 194 194 198 196 211 190 202 200 194 216 219 207 208 220 221 224 233 227 237 205 196 197 194 193 193 193 193 194 197 207 220 236 223 219 218 209 205
190 189 191 190 188 196 198 186 197 190 202 204 211 198 203 194 193 204 206 214 203 207 209 211 213 212 219 205 236 246 251 233 237 239 218 205 204 207 205 204 207 220 231
198 191 197 197 194 193 200 194 191 197 204 199 206 202 195 216 209 205 193 220 208 212 205 225 224 226 191 200 202 203 205 203 202 206 213 224 223 222 216 204 192 184 197
194 188 190 196 175 200 195 194 201 192 200 204 213 185 200 212 217 200 202 197 210 200 214 204 200 210 243 234 230 223 203 204 199 198 194 196 196 199 202 197 193 194 195
178 182 184 198 195 199 192 200 201 203 202 192 206 191 210 200 214 206 200 214 205 194 190 209 193 209 196 219 215 215 230 220 215 209 188 199 192 200 197 195 199 203 200
193 191 194 190 197 198 205 199 189 200 199 201 193 193 197 190 186 220 208 207 190 203 199 198 198 190 185 195 202 235 214 228 225 223 218 209 206 205 201 203 205 201 205
199 191 196 203 186 199 202 199 196 201 192 194 190 184 200 200 187 188 210 204 207 198 193 188 201 206 192 191 213 206 200 223 209 221 214 219 217 214 209 206 204 205 207
190 197 196 202 201 198 201 192 196 197 197 193 194 200 195 211 186 204 195 195 200 193 204 196 190 198 201 186 200 229 227 211 209 213 211 230 220 216 216 212 211 206 207
203 198 200 198 200 201 198 194 205 201 196 191 194 198 211 200 204 189 207 194 187 190 192 193 204 197 212 194 214 226 210 224 199 209 222 211 201 219 220 214 211 215 213
206 212 211 212 210 206 208 205 201 201 200 194 200 206 192 208 195 195 188 190 192 195 192 190 195 197 189 211 222 225 220 204 183 226 202 225 206 193 209 211 218 214 214
217 195 208 210 208 205 207 211 208 195 194 199 203 202 194 193 194 182 196 195 199 191 198 202 197 210 216 220 205 209 237 191 186 228 185 201 202 210 211 206 232 223 209
215 214 204 209 213 205 205 201 219 215 209 195 209 197 192 194 204 203 201 201 203 199 204 214 210 214 222 211 216 223 230 196 217 211 191 192 190 217 203 211 232 221 227
213 214 214 209 215 216 216 208 200 198 205 211 195 195 199 197 196 200 198 203 209 215 215 218 216 221 220 211 192 198 211 242 217 235 191 216 208 220 237 223 227 203 217
207 207 210 208 199 223 214 242 215 210 205 202 201 201 204 204 205 211 219 216 214 223 180 235 237 238 278 281 252 257 251 252 217 206 243 246 229 216 217 207 223 241 215
212 214 217 208 204 215 220 212 208 207 211 210 214 215 218 224 229 234 236 166 237 252 256 305 317 301 292 289 268 276 254 256 260 246 246 253 240 239 239 235 226 228 234
219 218 231 232 222 218 217 212 212 220 224 228 228 231 240 246 251 258 263 277 305 334 341 338 348 350 373 276 267 273 281 265 252 248 240 243 254 239 238 246 241 239 241
234 234 232 224 221 226 234 235 235 232 223 235 249 254 254 260 287 316 303 284 321 317 319 321 313 317 317 382 283 283 263 265 254 252 247 251 258 230 241 237 232 242 230
235 234 232 231 234 240 247 246 243 250 254 265 274 311 290 320 169 324 318 315 311 305 302 302 305 306 303 332 325 291 284 278 274 276 293 268 259 252 265 259 247 247 252
245 245 246 247 249 251 255 263 266 330 293 289 312 302 318 313 306 306 303 297 292 291 291 290 292 167 300 302 307 303 285 289 286 271 265 263 255 275 262 273 274 277 282
256 256 255 261 288 303 291 288 282 277 320 416 422 386 388 392 326 313 295 290 289 292 291 283 281 289 290 289 296 310 287 285 286 276 269 259 265 264 270 277 277 268 267
303 302 295 287 283 277 291 312 325 311 323 338 366 350 347 350 344 329 328 322 316 291 279 283 277 278 292 283 297 281 294 310 293 288 294 285 285 277 274 279 281 278 287
286 300 280 302 304 321 335 323 312 315 298 301 351 345 333 324 334 332 326 324 323 324 318 310 285 294 269 268 269 275 273 276 276 282 288 292 314 321 316 295 291 289 285
355 346 335 327 321 316 305 304 311 296 302 282 303 318 338 333 324 321 312 312 312 317 316 313 319 312 313 316 324 285 273 285 287 292 295 296 298 289 290 267 265 298 278
308 302 297 301 297 298 304 298 291 289 287 288 288 288 287 289 316 331 327 322 324 314 321 311 299 306 306 306 311 320 323 324 301 306 336 332 331 327 320 301 284 313 310

GFSGL_2pvu_pres_096.txt.gz
Presure
190 182 183 173 185 195 187 194 199 199 211 213 210 208 211 219 239 241 221 203 202 199 207 198 192 194 190 184 183 187 187 190 191 192 193 192 188 189 187 184 184 191 190
188 189 191 180 175 191 195 186 183 195 202 194 212 192 209 208 199 213 217 230 222 217 214 214 202 192 189 192 190 190 189 186 183 186 187 184 193 193 190 187 190 193 197
187 180 189 186 183 188 190 190 194 191 192 199 193 215 197 180 202 200 207 210 205 221 221 219 221 221 243 225 208 205 204 204 208 206 194 193 199 206 241 248 240 233 234
189 192 185 187 185 192 191 187 197 196 201 191 198 197 198 210 198 202 199 194 193 203 203 209 212 211 209 212 228 251 232 209 207 204 209 208 209 210 211 203 201 200 195
192 197 185 190 189 190 184 198 196 193 193 208 196 201 193 206 208 198 195 201 200 195 196 194 198 204 205 198 197 206 210 212 213 209 232 228 212 207 203 203 203 205 201
190 189 188 196 195 181 193 192 198 182 194 205 188 198 203 195 210 198 195 215 206 217 202 196 207 199 198 204 214 196 211 197 207 219 208 222 213 227 225 217 213 207 202
193 193 193 200 185 190 194 195 187 184 192 199 210 205 202 197 195 205 189 196 197 209 206 204 185 215 195 199 190 208 187 183 190 191 192 201 230 213 221 223 218 214 210
191 189 192 193 188 197 194 195 192 209 204 196 199 209 196 198 204 200 200 192 186 204 204 201 202 211 205 204 198 207 200 200 206 216 215 190 208 229 223 200 200 205 205
202 198 194 191 190 192 192 190 202 196 192 205 193 209 201 206 207 204 202 201 202 199 218 191 181 196 201 205 202 184 182 180 208 207 200 216 210 206 230 210 212 204 212
187 184 190 195 200 192 197 199 200 189 198 201 204 192 206 194 199 204 202 200 195 210 224 201 201 202 222 174 193 199 196 200 200 190 204 214 192 214 225 203 212 232 225
205 201 197 195 200 201 192 201 193 195 202 205 204 194 204 200 209 204 201 194 199 203 215 202 212 190 205 192 204 197 203 205 203 195 206 187 208 219 212 208 209 228 214
202 202 207 194 204 211 209 197 203 210 208 205 204 203 202 205 203 201 204 204 193 196 210 197 196 208 209 203 208 198 199 200 194 196 195 208 202 181 214 208 220 189 198
201 202 201 203 202 201 195 202 202 202 203 204 201 207 204 203 202 204 203 190 202 203 196 204 199 197 199 197 195 194 195 194 201 198 199 208 204 214 211 210 215 198 215
201 203 202 193 201 202 208 207 208 217 215 209 212 212 218 205 200 210 213 219 215 195 196 201 201 194 195 193 198 198 203 192 205 212 211 205 223 216 217 207 188 179 240
215 219 219 216 210 208 217 207 202 211 203 208 207 204 202 205 206 205 205 213 204 206 210 203 200 199 198 198 204 206 212 219 225 226 226 225 224 229 232 244 269 207 248
202 211 214 216 222 214 214 214 220 209 227 212 212 207 202 195 214 198 208 221 208 204 200 200 205 214 163 221 198 220 228 234 237 238 239 236 196 270 264 258 260 179 248
212 214 213 212 222 223 224 227 228 228 206 212 223 214 152 219 199 237 208 224 218 213 214 226 229 229 224 222 227 244 243 159 253 334 308 304 302 286 286 277 268 253 251
214 220 221 222 217 220 223 222 222 227 226 216 213 224 230 227 236 229 227 221 232 228 230 240 240 242 242 250 265 269 300 295 290 317 292 323 329 358 321 320 272 273 269
225 225 224 219 217 219 221 222 224 228 233 232 232 234 237 228 231 239 234 239 245 247 254 257 255 299 302 290 302 339 307 326 322 315 314 314 315 323 331 343 329 300 274
224 226 230 227 225 232 230 232 247 248 243 238 236 242 239 239 243 248 248 249 258 304 295 302 330 327 315 317 318 316 310 310 310 304 303 305 300 304 305 315 335 307 306
235 236 233 235 240 252 254 252 248 242 249 241 249 249 253 247 261 266 313 296 289 337 351 386 381 362 351 364 322 301 294 296 293 292 289 293 292 288 286 297 298 315 308
263 261 259 256 254 251 251 250 248 250 253 256 254 270 307 297 287 293 314 344 380 383 363 369 367 345 330 324 333 326 328 322 276 279 285 286 282 283 289 291 292 290 292
258 259 260 260 260 261 262 261 264 274 294 300 288 281 299 335 306 304 318 318 317 318 301 283 340 331 326 323 324 319 316 318 335 333 311 280 275 271 275 278 275 267 272
291 292 305 309 295 292 294 296 278 282 312 320 354 346 337 311 318 309 310 296 297 295 302 297 312 343 342 338 330 328 322 313 312 313 314 313 316 316 312 315 316 323 290
309 310 300 294 296 319 318 319 304 342 327 328 318 294 305 303 298 310 297 295 291 285 283 280 283 286 286 289 307 320 324 327 323 321 311 313 311 313 317 311 309 310 321
314 312 314 345 318 321 323 330 322 316 310 307 308 307 306 300 297 291 287 283 285 287 287 285 283 285 283 281 277 276 283 286 291 300 321 308 309 317 312 308 308 304 303

GFSGL_2pvu_pres_099.txt.gz
Presure
199 190 192 183 194 187 191 182 201 188 193 193 201 204 201 211 237 237 225 231 237 234 226 220 212 206 214 203 194 199 192 195 194 196 194 194 189 189 187 188 187 191 190
197 184 191 183 190 190 183 182 192 204 194 193 188 209 185 218 204 213 237 237 218 219 213 202 202 201 193 198 202 201 195 195 201 200 194 191 189 190 189 186 195 196 195
191 192 188 185 191 195 190 189 180 191 192 184 188 202 205 198 205 207 219 170 224 221 224 224 222 216 213 211 212 216 219 221 210 210 206 198 198 210 212 217 220 224 222
189 191 193 184 189 188 185 172 194 193 187 187 198 199 194 206 194 199 198 195 199 203 197 199 203 215 212 208 211 210 209 208 218 230 223 222 223 204 206 209 226 242 241
192 189 188 197 185 193 186 194 189 184 186 190 193 194 197 194 191 196 194 203 200 200 193 191 197 196 191 200 199 199 199 218 199 214 208 202 201 219 219 203 213 220 227
206 183 198 198 194 193 186 193 171 183 191 188 188 190 193 196 197 194 184 206 202 208 183 200 202 212 200 196 194 187 186 203 192 205 197 201 218 191 196 207 211 195 195
189 188 202 193 194 196 183 188 181 189 184 182 190 192 186 187 193 195 208 212 204 197 200 194 207 197 196 206 214 211 179 207 190 191 191 209 192 190 204 193 191 212 204
193 191 200 198 196 197 190 187 194 186 195 188 191 188 190 183 204 202 195 204 196 191 206 206 203 192 201 196 186 203 213 203 209 211 210 202 201 200 214 204 198 193 206
185 190 190 194 188 191 192 199 192 190 198 188 186 193 193 186 204 194 202 203 205 193 200 203 195 199 195 184 205 208 208 182 191 172 205 198 201 204 190 207 199 208 188
189 207 193 201 192 189 191 193 198 196 195 197 195 206 193 209 196 209 194 219 218 205 210 192 203 208 204 195 194 203 213 213 203 199 195 180 209 193 192 202 209 205 193
199 203 204 197 194 192 193 199 200 184 193 203 198 205 199 195 201 194 203 205 215 193 213 209 212 210 205 205 206 197 198 205 197 206 195 201 206 208 215 195 204 204 199
202 200 200 198 199 212 198 204 204 203 206 191 193 203 195 202 196 197 205 192 197 204 206 211 209 205 207 208 210 195 195 210 203 192 221 213 203 203 208 205 197 210 203
202 194 196 173 200 206 202 190 188 203 197 203 204 193 204 207 209 203 209 210 215 209 205 207 208 214 206 197 207 204 212 223 204 202 218 207 209 197 204 202 206 203 202
204 205 207 209 200 181 203 212 218 203 202 201 202 201 210 205 208 208 211 206 209 211 197 211 207 202 196 205 207 209 198 194 212 194 202 195 194 195 202 203 206 214 214
209 213 219 203 215 221 216 220 212 203 206 204 204 194 207 208 212 209 215 209 206 195 212 208 197 204 198 202 215 221 204 222 211 189 183 171 204 201 211 209 226 185 228
212 208 201 211 236 217 198 207 216 211 207 204 206 205 211 222 216 208 217 215 219 217 224 216 210 219 221 208 219 204 215 219 203 209 223 221 216 226 240 239 238 243 250
226 227 226 217 223 217 219 206 214 220 217 222 224 224 213 214 220 222 218 221 221 221 231 224 218 226 206 203 225 239 235 235 225 233 239 242 250 242 261 253 298 312 300
220 218 217 217 223 222 215 217 217 221 224 220 206 206 215 216 222 218 220 219 212 212 226 223 232 241 248 238 245 240 241 239 248 249 247 281 317 307 300 311 301 271 335
228 226 226 226 225 223 217 218 220 217 218 220 223 226 225 233 225 219 231 225 226 238 239 255 245 253 248 249 250 264 282 285 326 303 326 320 347 359 338 324 311 311 308
239 241 238 229 224 225 225 226 228 232 227 225 226 230 225 234 228 234 230 243 242 253 259 258 249 247 262 273 289 321 280 324 386 382 363 374 366 362 352 365 354 346 301
226 245 237 237 236 232 226 235 238 234 233 233 225 234 237 232 245 244 231 262 261 250 263 256 277 290 310 288 313 342 343 353 390 369 352 347 337 333 329 326 325 321 326
245 241 231 229 216 245 244 241 235 237 240 243 248 249 239 260 264 257 263 265 277 282 301 300 284 290 320 340 329 318 306 301 297 301 309 342 347 338 335 327 323 324 325
237 264 263 255 253 252 252 257 260 265 269 269 262 263 264 271 273 282 299 305 293 283 319 314 333 335 325 319 310 305 296 296 289 283 285 283 287 285 288 310 317 325 323
273 273 280 279 275 277 279 279 277 275 274 288 291 298 299 285 283 283 282 315 314 319 336 325 321 305 305 309 302 297 292 286 288 283 278 282 289 284 282 282 281 284 287
279 279 279 280 281 280 279 280 280 278 276 275 279 307 298 319 317 340 338 338 332 321 316 311 306 301 286 286 282 278 275 277 279 282 285 289 289 285 282 284 290 288 292
333 332 336 337 334 330 333 331 321 323 318 320 348 334 336 332 327 322 316 303 297 291 284 281 281 281 278 277 273 273 285 289 292 284 286 307 316 324 324 326 326 324 324

GFSGL_2pvu_pres_105.txt.gz
Presure
143 270 253 252 314 244 215 203 203 195 189 193 189 194 178 206 210 207 225 232 203 196 190 190 187 185 192 186 180 187 184 187 190 189 184 188 181 177 177 180 187 196 192
258 255 176 301 261 236 213 198 197 196 183 197 182 193 181 198 184 192 219 214 222 253 264 136 192 192 191 189 199 182 180 177 178 182 183 197 180 180 185 194 204 186 189
271 299 289 274 235 225 191 193 195 189 183 189 190 186 188 190 187 204 196 195 217 209 221 242 246 243 247 203 191 188 188 191 189 189 188 195 209 209 201 196 193 193 198
283 279 272 234 208 210 208 190 196 194 182 184 190 185 185 176 200 203 183 195 203 201 213 207 212 232 213 220 216 222 220 215 209 209 212 208 196 195 198 209 215 215 209
272 261 241 212 192 206 192 192 188 194 184 183 183 192 199 197 179 193 190 184 196 193 189 205 205 204 207 199 198 215 213 206 204 204 199 207 207 198 198 199 197 195 195
265 243 227 204 194 203 192 193 182 182 177 188 184 182 173 180 182 187 173 196 188 187 191 184 187 196 194 206 205 207 213 206 214 208 200 198 210 202 195 202 215 192 203
247 230 203 202 203 202 190 185 183 183 183 182 186 186 183 191 188 191 189 191 199 181 190 174 194 193 189 184 194 208 203 207 211 209 204 199 193 192 196 196 204 200 194
225 227 206 212 202 201 191 193 191 187 184 192 183 182 178 188 186 178 185 184 190 187 189 189 190 190 187 184 198 195 198 195 192 191 193 197 201 196 185 194 200 198 194
215 226 203 206 199 194 194 190 188 194 193 183 189 191 192 195 190 182 182 181 191 191 183 190 192 192 195 192 182 195 197 197 192 205 193 203 207 206 198 193 196 201 192
210 204 218 206 183 200 198 192 191 180 182 183 195 196 197 185 173 186 192 190 188 183 193 192 193 194 193 201 186 194 194 196 189 201 196 201 204 206 203 199 199 205 203
216 205 205 200 209 191 188 195 199 195 198 197 199 192 183 182 184 178 179 179 190 188 185 192 189 184 195 180 194 205 190 203 196 207 187 195 207 186 202 201 202 192 188
203 227 189 203 203 202 195 187 186 195 187 168 187 184 175 195 200 195 193 199 195 200 196 196 183 202 200 203 186 193 201 204 200 194 204 199 195 203 200 200 206 204 204
205 186 208 208 194 200 197 205 195 190 193 208 205 200 200 199 199 191 186 192 185 208 203 186 194 190 175 176 197 193 200 204 187 205 197 192 197 195 199 195 214 207 202
236 213 203 204 189 193 196 185 185 202 203 188 196 211 182 154 156 161 202 203 204 203 211 201 184 190 195 186 196 199 190 205 204 190 202 209 207 206 203 191 211 211 200
205 213 224 218 210 207 204 189 196 200 203 205 201 196 194 195 201 194 197 205 204 220 203 201 203 194 204 201 194 190 207 211 190 205 207 222 215 209 220 214 216 212 202
210 223 214 217 218 212 216 210 203 205 192 195 189 197 202 203 208 192 204 215 209 206 212 209 212 199 194 195 220 192 210 219 202 204 195 206 204 210 213 223 232 231 223
235 217 225 215 211 210 208 214 205 204 201 192 203 207 206 211 207 202 204 214 206 206 218 228 234 222 210 187 229 229 217 216 242 234 218 205 216 227 226 228 236 237 237
231 239 229 227 222 215 225 225 215 211 210 203 201 198 204 215 210 214 211 204 210 219 225 212 219 221 216 223 225 224 234 234 237 231 219 235 224 226 242 248 245 245 245
225 225 227 228 222 219 212 219 223 225 229 225 218 215 215 215 216 219 223 225 227 211 213 222 228 228 223 224 238 234 239 235 219 224 241 241 246 249 242 242 246 252 255
243 236 227 228 225 237 237 234 233 231 224 214 221 228 229 235 218 223 222 226 226 226 226 226 229 232 242 244 245 246 235 233 245 238 233 242 242 256 255 254 272 264 280
251 253 241 240 237 238 233 225 226 226 226 227 227 229 227 226 227 228 228 225 225 228 237 241 216 231 237 233 238 242 233 242 243 252 249 238 242 268 270 273 304 360 302
262 258 254 256 252 243 241 242 240 239 232 236 234 240 235 236 236 236 238 242 243 242 237 235 233 240 240 240 246 251 248 236 243 249 260 265 264 267 293 283 315 326 334
263 262 259 260 263 265 264 257 252 250 250 251 250 251 253 229 228 253 243 236 240 255 251 252 253 251 254 240 245 252 259 262 266 305 282 283 333 296 346 331 327 299 312
312 283 273 271 266 268 267 268 269 264 261 262 261 259 260 255 261 265 265 262 258 255 236 231 244 265 275 274 270 279 305 288 293 281 303 342 291 330 327 313 311 302 294
304 285 307 308 305 286 271 274 274 274 274 272 273 271 270 267 264 259 257 270 275 277 276 274 304 302 306 302 291 286 308 312 343 334 327 322 314 310 306 297 292 291 288
339 319 306 299 286 285 294 302 310 312 308 307 304 303 302 302 300 299 293 292 288 291 281 299 294 316 317 289 339 333 323 316 311 309 306 302 296 287 289 293 308 354 377

GFSGL_2pvu_pres_108.txt.gz
Presure
200 227 191 205 241 243 240 245 250 241 240 211 202 185 195 189 199 194 221 238 219 199 194 191 188 190 192 189 188 191 186 181 183 191 177 187 187 186 180 184 188 185 203
130 211 239 251 241 179 212 260 242 267 229 211 203 184 187 195 188 198 193 206 216 227 253 199 190 189 188 188 135 138 185 188 183 187 188 189 181 181 180 191 183 188 202
240 191 246 247 246 268 258 231 263 262 223 209 201 183 188 187 185 187 192 185 201 202 216 216 231 239 229 218 195 192 191 186 184 183 182 176 172 183 181 184 204 201 201
255 256 267 287 265 259 234 293 264 237 217 184 200 180 195 183 191 190 188 191 215 187 185 206 206 211 209 212 224 240 240 239 232 226 223 214 209 209 209 206 203 204 201
281 170 263 265 245 265 277 248 236 227 214 182 198 187 190 181 181 185 189 189 193 185 178 192 188 200 199 207 205 205 210 203 203 199 197 198 198 195 201 197 195 198 201
250 278 238 273 263 276 242 234 227 222 211 189 193 188 184 187 187 183 188 202 182 186 175 172 198 186 184 194 191 186 203 195 195 209 206 201 202 212 210 206 207 206 198
279 281 265 259 265 240 227 222 212 218 203 194 186 190 183 188 184 184 186 174 180 187 189 185 191 193 189 175 190 186 190 194 192 187 187 192 205 206 200 194 191 191 193
197 263 255 259 240 227 224 215 211 204 199 192 190 183 177 185 184 183 166 185 183 182 184 183 184 193 189 192 188 187 187 189 184 196 192 182 190 198 196 189 198 199 195
244 248 256 238 233 218 216 212 180 204 199 195 189 189 189 182 185 193 194 193 190 183 182 193 180 185 182 186 190 190 194 189 193 194 194 206 192 189 184 188 200 190 195
240 236 240 240 220 221 206 210 213 184 201 201 194 191 185 188 174 191 196 193 192 185 184 190 162 183 191 193 180 191 190 194 198 186 193 194 191 204 197 184 200 193 196
213 239 224 204 213 212 201 204 200 208 200 197 193 191 191 187 198 194 163 172 187 186 187 194 184 192 177 188 188 193 195 195 202 189 193 189 193 185 200 195 198 202 185
203 233 232 218 243 191 210 208 194 202 200 201 188 181 199 181 195 178 189 194 196 187 193 173 193 192 188 187 197 200 184 193 199 200 196 176 196 182 200 198 194 194 195
206 212 235 213 210 221 197 188 212 205 199 200 201 192 195 198 191 185 205 176 185 189 200 208 203 161 211 185 189 194 195 205 203 204 190 182 191 194 197 189 185 204 206
226 220 222 236 212 203 198 183 210 207 206 202 206 192 202 198 204 187 205 179 216 198 189 183 170 196 195 189 188 197 207 200 195 198 184 188 203 203 193 186 196 185 214
214 209 196 220 207 194 196 195 201 197 191 204 200 206 200 187 194 193 190 194 195 184 192 179 201 221 192 193 205 200 207 202 181 195 204 201 202 196 195 212 209 198 210
210 211 224 202 224 226 210 203 205 199 215 191 206 205 200 212 201 196 196 209 195 195 191 215 201 206 203 202 199 206 211 194 209 211 191 192 210 228 225 210 213 225 204
211 218 205 213 221 231 223 215 204 205 201 214 212 204 215 218 206 207 182 199 204 202 194 198 211 202 202 210 212 191 212 201 214 215 212 224 212 216 226 224 216 231 232
227 217 213 224 216 217 204 212 211 212 205 214 212 208 206 211 207 206 205 209 213 216 218 201 204 213 201 198 207 214 215 214 219 220 210 213 228 222 220 232 221 222 250
238 217 224 228 214 220 224 224 217 218 226 223 217 214 215 221 216 209 219 218 214 201 205 209 214 218 219 216 216 221 218 209 213 220 216 226 231 226 223 232 236 241 239
236 232 244 226 235 226 225 240 227 229 226 221 219 225 225 228 224 225 213 215 217 215 215 213 213 214 214 214 224 224 227 233 236 236 234 221 220 230 226 234 255 255 244
242 247 238 251 238 237 237 235 237 238 223 218 221 223 223 230 227 227 227 230 229 229 230 229 233 238 238 231 235 235 237 227 232 212 229 225 234 244 243 255 260 241 255
281 268 256 252 262 240 247 239 239 237 237 233 234 237 239 240 240 245 238 241 238 228 226 230 236 233 237 224 213 210 227 235 242 238 238 231 240 264 273 251 235 263 261
311 296 275 291 279 240 244 247 248 244 249 250 251 252 252 251 252 243 243 240 237 241 239 241 225 224 236 234 237 242 244 240 239 247 259 265 262 246 266 283 285 291 290
285 297 312 317 302 256 281 287 283 281 281 278 267 265 264 263 258 251 249 249 249 251 252 253 253 253 248 217 257 257 260 283 270 270 267 285 297 255 284 290 326 326 334
341 347 352 318 294 292 311 322 312 292 272 266 285 286 285 282 273 276 257 258 266 256 268 256 257 258 284 247 270 277 251 285 290 300 313 292 281 275 336 331 320 315 308
329 323 327 332 337 341 345 333 326 300 290 286 289 315 307 311 309 303 285 269 279 277 281 292 292 295 299 305 316 312 303 292 281 316 345 337 330 321 315 311 310 307 333

GFSGL_2pvu_pres_111.txt.gz
Presure
207 183 215 215 187 193 202 215 210 198 232 243 230 237 241 216 201 196 193 198 223 268 210 210 206 194 191 188 186 183 184 190 190 183 181 183 183 181 175 187 178 174 186
191 149 194 221 211 192 171 204 186 233 238 142 242 234 233 214 193 192 189 192 193 216 255 214 203 204 203 194 187 183 179 177 172 174 182 146 191 192 181 182 181 169 179
201 143 199 127 196 171 212 223 215 225 236 237 263 239 229 211 203 189 189 194 192 187 198 197 233 247 203 197 193 192 188 192 188 188 191 195 195 192 188 192 197 214 208
209 212 207 207 209 201 208 201 207 232 230 252 253 244 228 213 203 185 190 187 186 188 190 181 184 199 206 213 216 230 234 218 217 218 217 204 210 239 221 216 205 203 198
213 215 223 227 240 249 245 233 247 242 257 246 241 254 223 213 197 186 189 188 190 192 191 197 192 182 186 191 200 199 205 203 203 204 200 204 209 207 204 196 197 200 203
230 249 250 247 233 211 245 238 248 260 248 229 267 264 218 211 184 201 181 193 186 183 185 185 209 191 183 179 175 187 183 180 185 188 190 195 195 192 189 186 182 183 184
257 271 268 260 262 255 234 229 221 226 232 256 253 238 215 209 196 200 191 185 191 176 189 192 206 186 178 185 189 183 183 189 183 181 187 182 185 191 189 190 188 186 181
246 263 271 267 273 286 241 236 230 225 249 252 246 227 216 205 193 185 200 184 184 190 189 190 192 174 183 181 190 189 191 188 194 185 186 187 193 187 188 189 186 191 191
251 238 246 270 281 257 240 237 225 250 240 241 236 220 210 205 197 191 188 192 190 189 191 185 174 188 191 184 187 185 191 195 167 186 193 195 194 195 186 193 196 185 183
226 233 235 253 264 249 238 237 247 235 239 235 231 188 208 200 202 194 193 194 193 193 191 184 178 178 193 175 176 187 184 199 193 196 196 173 188 201 190 194 194 194 190
206 215 225 228 240 244 237 234 231 224 222 194 223 215 196 187 206 202 192 188 195 196 164 192 194 179 181 192 201 186 186 180 191 192 195 200 185 180 196 190 183 200 195
224 215 208 228 237 233 233 228 218 212 216 225 202 209 200 210 193 195 200 201 194 182 183 194 190 190 196 194 183 185 196 199 197 204 200 214 200 192 197 192 202 208 202
232 215 215 216 205 227 232 211 205 211 191 206 193 201 190 200 187 186 192 193 198 186 190 182 193 183 187 191 182 207 213 213 178 197 177 204 217 215 212 206 201 191 204
226 226 226 224 209 207 212 221 205 194 215 207 196 220 208 197 210 193 192 205 203 204 206 202 203 196 175 202 205 201 201 185 154 169 223 211 206 212 197 193 194 209 197
220 230 232 221 224 218 236 214 200 199 211 203 213 189 195 195 209 214 197 205 206 182 198 207 206 212 212 207 209 205 212 198 192 202 182 211 208 204 191 207 210 209 199
224 217 229 222 224 220 225 237 214 213 200 202 210 203 207 190 196 191 197 200 182 200 190 193 203 208 210 197 186 205 198 196 213 207 197 198 203 205 209 189 200 214 209
230 220 216 236 225 211 231 226 226 222 229 212 211 203 200 200 211 173 197 203 210 205 188 194 205 204 210 216 208 210 206 203 199 205 195 211 197 192 216 213 216 219 202
238 236 227 224 236 223 225 228 249 225 228 221 217 218 204 213 201 214 213 207 207 206 206 207 208 195 207 205 209 212 206 211 201 205 216 217 217 216 212 211 206 215 219
258 234 229 236 229 232 220 227 235 226 224 230 217 216 203 215 215 209 211 225 206 217 211 217 211 210 215 203 212 219 227 223 210 211 208 188 204 206 215 219 215 221 224
293 249 237 241 237 232 230 234 232 227 224 240 231 237 218 230 213 214 215 216 219 222 208 216 225 223 217 213 205 209 190 209 223 220 226 227 223 207 215 227 223 223 232
245 283 251 237 226 242 239 234 226 232 230 228 227 209 232 228 217 217 233 230 228 238 227 229 218 222 226 228 224 228 222 214 225 215 234 234 230 223 229 241 237 201 239
281 297 338 259 249 242 228 239 249 239 235 241 242 239 244 238 226 216 219 215 215 230 221 218 221 220 220 223 229 219 228 229 221 218 227 237 229 221 235 241 218 241 249
341 294 301 316 327 291 254 257 250 246 229 234 245 236 231 242 242 238 241 236 245 234 234 233 242 241 238 237 234 233 231 230 218 227 237 243 249 255 255 248 230 235 254
337 343 349 356 296 308 319 324 258 255 240 237 235 229 248 229 240 245 231 243 248 246 229 226 226 231 227 232 232 230 232 233 238 236 225 238 252 254 254 259 244 240 281
314 316 327 332 337 345 349 311 307 320 327 254 263 265 265 262 262 261 254 247 248 251 246 243 248 253 253 250 254 241 246 254 255 269 282 278 286 292 306 320 331 328 309
387 388 384 381 366 336 338 342 347 349 329 316 319 327 328 334 336 335 303 273 268 266 258 264 247 251 250 243 253 277 296 291 316 342 329 325 318 320 308 286 282 301 350

GFSGL_2pvu_pres_114.txt.gz
Presure
201 200 152 168 183 193 192 175 205 205 126 199 214 213 207 214 220 242 243 217 203 201 197 252 233 217 205 200 195 203 200 209 208 194 195 189 189 192 193 194 184 183 182
94 199 204 187 177 222 120 131 126 193 211 196 224 205 216 207 213 244 239 216 201 192 200 209 249 221 205 196 190 188 196 196 193 201 203 193 187 181 183 179 179 189 189
218 214 219 195 203 194 201 203 164 188 195 144 192 200 212 220 222 249 234 214 202 192 201 193 211 237 213 202 200 202 207 190 184 181 184 184 180 179 180 183 186 194 202
220 230 234 226 179 189 207 202 207 203 166 172 206 177 190 213 226 254 235 214 204 193 191 193 185 195 215 217 205 201 200 199 199 199 198 195 204 223 228 230 230 221 216
228 226 217 223 222 227 221 201 199 202 202 204 201 217 211 205 221 255 238 213 203 193 188 193 185 186 193 188 189 197 209 211 213 212 208 205 202 200 199 203 203 202 199
233 224 222 224 224 224 222 211 220 206 235 217 215 214 210 216 226 287 243 214 201 201 185 191 190 184 185 191 186 191 180 187 190 192 191 191 189 188 188 189 190 185 184
243 228 224 231 231 221 223 222 226 235 233 164 229 227 230 235 251 259 248 217 205 200 194 191 184 190 192 189 190 190 191 188 179 175 181 175 183 180 178 182 181 178 187
236 232 227 234 238 244 253 262 270 266 254 243 235 241 247 255 261 237 250 219 208 198 202 191 180 189 168 185 197 207 221 190 180 187 189 184 181 181 185 190 188 196 190
229 229 235 249 263 262 260 244 233 232 236 210 229 229 231 230 244 257 251 223 210 204 192 200 192 196 200 190 191 181 172 182 169 170 181 178 186 185 185 186 193 193 192
233 242 249 237 237 247 232 272 195 231 237 228 188 236 235 228 229 261 247 218 203 205 201 192 199 180 195 192 192 196 189 176 184 183 188 191 173 184 190 179 191 189 198
229 242 229 234 234 235 238 229 275 220 217 216 218 227 227 217 250 252 241 219 202 199 203 195 192 187 185 189 183 186 188 184 180 192 184 167 183 197 202 185 193 198 192
231 227 230 227 230 229 226 248 253 219 213 214 197 223 232 241 203 234 220 229 209 195 207 204 204 202 200 197 192 185 182 187 192 178 185 179 198 193 182 195 183 225 167
224 224 236 213 211 214 241 239 241 221 223 214 204 200 231 233 219 192 241 228 217 187 190 193 190 185 190 194 199 169 198 198 194 182 190 192 185 180 209 205 223 167 218
239 222 233 213 228 224 222 229 212 220 212 235 214 203 221 211 221 199 221 217 191 191 205 200 195 191 192 196 197 193 183 194 199 206 205 217 183 200 206 211 214 160 232
239 226 234 215 215 217 228 206 229 229 230 228 241 223 222 216 235 222 214 216 219 194 203 203 207 213 205 197 197 197 206 206 202 201 196 210 213 214 202 200 219 194 200
216 220 242 223 216 224 214 222 217 228 223 233 219 227 227 223 201 219 214 206 191 198 202 208 203 200 195 206 208 214 211 205 212 211 205 208 212 198 213 206 211 219 209
240 232 238 240 224 224 224 224 212 232 212 217 214 223 229 215 220 224 223 218 219 218 214 214 208 210 202 170 208 216 212 206 214 211 207 223 202 191 205 203 205 211 209
246 249 254 263 236 238 226 225 224 224 216 225 208 212 226 208 210 220 213 203 218 206 211 218 223 215 206 204 208 220 216 213 199 215 215 207 210 210 212 220 218 211 219
278 287 287 285 275 257 239 242 238 236 231 230 241 238 236 222 226 217 229 211 212 220 231 219 206 223 215 205 205 222 218 218 210 212 209 219 195 225 209 210 211 219 213
293 294 295 295 303 300 289 300 257 246 241 235 238 235 228 230 235 221 223 226 224 214 224 225 223 226 210 217 210 212 210 209 231 211 206 215 216 211 226 211 220 225 217
287 288 288 285 297 299 330 319 282 279 245 238 241 242 232 228 238 250 250 229 237 230 213 224 210 211 209 211 220 224 217 225 211 214 224 216 223 235 224 228 234 237 233
342 312 303 293 288 294 299 293 315 304 257 308 265 253 243 251 241 236 244 233 230 241 244 218 216 218 219 222 228 227 228 229 227 217 215 214 217 221 228 231 230 234 232
335 339 346 351 357 365 354 292 293 299 313 262 309 302 260 251 245 252 255 243 246 244 239 245 240 234 234 243 236 231 226 227 225 225 220 230 221 224 222 224 221 227 239
343 348 334 317 320 326 335 343 347 352 329 300 262 319 289 262 262 263 244 243 243 247 261 249 256 242 247 220 219 221 239 245 240 234 233 229 228 245 241 229 232 237 242
442 439 435 440 379 364 363 323 321 328 333 337 328 312 300 297 281 265 265 263 249 249 250 248 243 244 238 239 235 234 231 233 238 238 235 230 236 237 235 246 240 226 246
459 468 472 475 479 482 466 450 398 388 386 353 346 338 339 344 347 347 304 272 262 260 255 256 270 271 270 261 249 247 246 249 246 243 254 247 251 250 253 250 262 268 324

GFSGL_2pvu_pres_117.txt.gz
Presure
194 197 196 192 184 181 181 177 187 162 169 178 118 186 190 212 184 199 213 220 209 210 254 236 205 202 200 222 215 206 212 203 205 205 213 215 214 213 211 188 191 173 181
208 194 195 92 195 199 191 185 175 151 169 175 171 126 136 200 110 201 216 225 201 201 258 235 202 204 256 226 218 211 201 204 200 199 210 194 213 209 199 195 205 198 187
222 209 201 195 103 194 193 116 139 197 147 202 180 205 203 206 209 223 194 194 217 216 264 233 202 203 212 253 216 211 213 202 205 201 207 205 196 198 197 199 201 195 183
224 220 208 204 202 201 206 204 191 206 190 188 190 199 171 163 172 196 214 194 202 225 233 230 204 202 192 208 235 218 209 199 195 193 193 190 187 188 189 181 179 178 185
226 222 220 215 216 214 212 214 209 208 193 207 193 193 192 192 199 123 196 206 210 226 215 263 209 201 190 202 196 220 224 206 200 198 194 192 190 183 193 224 224 217 215
225 226 232 234 237 231 231 231 231 223 226 222 206 202 196 196 146 201 201 220 206 206 212 232 206 198 189 193 194 193 193 207 208 205 203 204 208 208 209 205 200 194 192
222 218 231 236 233 223 222 229 220 228 214 222 221 207 210 209 212 208 217 213 203 225 202 222 222 198 198 189 196 180 193 195 190 190 182 193 187 182 184 185 177 188 179
245 225 224 203 256 240 231 248 252 236 231 226 212 204 211 240 223 221 222 228 225 224 224 234 257 207 197 190 191 191 189 185 190 193 194 191 185 177 182 183 186 175 174
228 230 233 227 245 244 236 229 232 232 217 222 221 204 224 204 217 226 230 236 234 238 241 265 247 205 205 202 190 192 190 181 188 184 176 191 202 194 183 164 173 174 188
237 242 239 238 235 232 232 237 239 244 268 298 253 217 213 223 231 240 241 246 238 238 254 237 238 213 203 203 199 191 184 191 193 179 183 192 184 205 190 172 178 179 189
228 224 224 225 230 229 229 235 252 260 221 215 213 200 200 205 210 227 244 240 230 210 235 260 223 235 207 204 201 197 197 186 179 191 190 184 191 190 184 186 178 184 190
246 223 225 223 226 227 232 240 236 241 250 221 225 231 204 207 226 227 219 195 225 234 219 218 249 182 226 203 202 198 197 192 194 199 193 186 185 175 182 184 187 183 195
256 234 224 222 226 227 231 227 219 235 223 237 211 210 196 202 226 216 229 227 201 223 216 220 207 239 235 206 180 205 205 201 199 200 198 201 197 194 188 178 180 182 197
251 228 234 225 224 220 225 234 219 231 210 223 237 217 238 215 212 221 203 212 217 207 225 243 230 232 229 185 210 215 186 185 198 206 194 181 182 188 195 191 198 198 192
242 233 232 236 227 226 228 230 219 232 224 229 237 244 247 223 202 235 216 213 198 222 224 234 224 233 236 223 221 193 179 183 184 192 203 194 193 201 201 193 201 195 207
236 245 238 236 234 224 231 240 226 221 235 225 208 205 230 217 217 224 210 228 216 227 205 235 234 204 210 200 228 216 217 214 207 204 202 195 188 203 200 205 208 211 208
236 236 237 230 236 244 239 228 239 234 226 239 233 235 243 236 228 222 233 226 201 206 215 211 228 216 216 211 228 224 222 223 206 207 221 220 223 221 219 207 217 219 224
242 244 241 239 236 239 241 241 228 243 234 230 228 223 239 224 245 226 225 220 215 228 224 222 238 205 231 222 212 224 216 213 206 221 221 212 199 205 213 212 197 213 217
244 246 249 252 249 245 244 248 248 248 250 228 234 235 236 225 219 239 230 224 223 219 224 240 225 225 216 238 235 224 228 226 211 204 212 217 220 221 219 216 214 224 198
304 294 288 282 276 266 260 257 260 261 261 264 259 252 239 235 242 232 231 238 235 239 213 238 249 240 209 237 232 227 221 216 209 214 220 229 214 228 216 215 226 216 225
352 339 321 310 307 302 307 318 322 326 326 323 326 321 314 253 251 240 239 242 238 232 233 234 227 250 238 234 237 228 239 225 232 228 236 227 210 209 229 219 213 220 223
330 334 337 345 351 361 369 351 318 316 309 307 308 314 318 314 300 266 253 250 248 248 250 235 238 234 225 233 225 237 238 236 234 227 230 236 226 230 218 209 204 213 211
429 429 396 371 352 326 329 335 341 350 356 366 358 329 306 299 302 283 300 292 268 274 259 257 253 257 241 241 253 240 226 236 233 228 230 237 233 228 234 238 240 236 233
491 482 473 465 469 481 486 364 365 366 357 354 335 338 345 352 354 302 304 300 310 298 314 298 296 269 264 250 245 251 235 233 229 219 220 220 217 215 230 245 245 237 238
480 467 445 435 433 435 444 461 482 491 494 452 372 366 351 343 337 341 347 349 320 305 275 310 298 261 310 284 267 266 261 259 256 249 248 248 248 242 239 240 244 252 237
467 457 434 420 411 412 410 409 421 439 457 462 466 470 448 436 436 371 345 336 338 340 342 315 295 305 310 299 264 314 292 286 279 267 266 269 271 270 263 246 238 252 254

GFSGL_2pvu_pres_120.txt.gz
Presure
224 209 203 201 196 197 191 177 184 181 178 183 182 159 187 182 158 176 168 182 184 183 194 208 219 224 206 266 209 209 205 231 224 217 219 199 206 195 216 187 217 206 203
231 218 211 202 201 195 195 192 200 195 184 183 182 148 176 184 171 176 175 131 179 190 127 201 216 192 216 243 230 198 236 221 220 217 212 220 197 221 204 216 195 198 217
226 221 209 209 203 201 200 200 195 192 187 187 181 182 125 175 172 180 182 182 181 201 184 192 188 210 197 231 260 192 242 214 212 207 200 211 204 206 203 209 211 200 217
227 222 217 209 207 203 203 204 116 196 193 183 175 182 101 147 187 151 174 184 175 185 189 192 195 204 196 224 253 195 195 242 205 204 201 199 197 203 202 210 208 206 207
220 223 223 218 211 210 209 209 205 196 196 202 205 205 206 208 198 145 203 201 202 158 181 185 209 199 197 223 245 215 193 221 196 207 177 198 197 195 194 190 190 192 198
232 228 228 224 226 224 216 214 208 207 207 203 204 203 203 199 195 204 198 204 146 175 133 202 202 189 205 217 199 233 193 192 182 219 207 206 206 204 198 197 196 191 192
243 241 225 223 209 219 222 222 221 219 213 205 204 204 204 206 205 217 213 212 197 211 192 209 200 223 232 216 223 212 206 194 188 182 230 193 211 207 206 208 206 206 204
229 235 247 248 232 231 231 224 223 226 226 224 224 227 231 234 232 211 215 165 181 198 196 214 215 218 227 222 217 223 213 211 191 188 189 197 179 193 194 188 185 192 193
246 229 244 235 238 221 236 235 236 234 226 235 236 222 221 227 227 223 205 204 203 216 217 173 199 211 213 224 226 216 226 241 194 191 184 186 194 188 173 186 182 185 184
233 235 236 238 240 232 217 246 243 239 232 211 239 236 233 253 200 205 214 229 220 208 209 207 205 211 227 231 218 238 257 251 206 189 198 184 186 196 194 186 189 183 184
227 230 233 227 227 226 232 228 247 226 243 233 244 247 239 227 219 212 209 211 211 212 206 208 223 236 243 239 247 250 244 245 221 203 190 190 180 181 191 188 188 191 185
232 243 214 234 246 242 230 232 235 237 239 233 232 233 233 244 244 222 214 207 202 225 217 232 218 221 228 218 218 242 252 236 203 204 202 193 189 197 189 192 172 187 192
232 222 243 248 234 234 228 233 219 227 223 227 233 241 264 253 243 237 210 202 207 226 221 224 204 209 212 225 224 213 233 220 226 221 201 164 157 199 195 194 194 195 192
232 237 226 228 247 231 229 225 234 216 226 228 232 247 244 242 240 229 218 218 220 214 215 218 216 214 223 201 228 217 219 227 235 253 179 203 204 202 204 193 198 191 190
241 247 242 226 242 238 231 246 246 230 226 224 224 228 232 235 227 218 221 222 227 219 214 216 200 201 225 225 207 218 225 220 239 240 233 214 226 199 190 186 197 198 202
239 239 239 243 246 242 236 237 258 242 234 233 227 227 221 221 236 224 221 220 225 232 233 214 223 205 220 214 227 218 215 226 241 240 233 213 229 225 220 183 213 211 206
247 247 249 248 245 244 239 239 238 250 245 237 237 236 230 228 231 226 227 234 217 208 225 217 215 225 228 214 223 205 191 222 218 240 236 229 235 229 228 228 231 228 214
241 242 247 250 250 252 251 249 245 244 244 250 242 234 240 233 237 231 230 240 227 240 230 226 225 225 226 218 219 219 233 227 226 225 245 241 236 236 236 232 208 201 198
244 268 269 270 264 258 253 254 257 251 249 250 250 246 245 248 237 233 242 229 230 243 226 224 244 246 234 227 223 225 224 228 220 211 240 212 233 219 224 223 220 241 234
322 325 334 320 327 341 360 306 276 264 261 262 255 254 252 250 248 240 252 233 249 239 232 246 226 220 214 241 238 236 225 236 219 230 218 224 228 226 225 198 205 219 227
323 333 346 361 377 386 381 353 359 377 384 352 275 266 260 261 264 262 253 243 242 244 248 247 240 252 239 249 233 237 241 231 222 232 233 241 228 225 247 241 232 230 216
321 335 354 375 453 458 464 485 522 427 356 358 367 382 366 341 294 276 271 272 268 265 261 253 253 245 244 244 247 256 239 237 246 241 240 239 239 237 233 237 249 243 247
341 358 375 435 443 463 488 500 493 485 481 484 441 359 352 359 372 359 330 323 313 308 303 302 286 269 257 254 252 254 254 255 252 257 241 239 251 245 230 226 234 245 244
370 393 420 442 458 476 477 477 469 458 452 451 457 465 496 380 361 344 349 358 367 364 321 304 302 302 307 316 321 310 264 261 256 263 254 263 250 244 239 240 240 241 241
406 422 441 459 470 476 470 460 448 439 430 427 429 433 446 464 485 491 381 368 342 338 341 348 352 354 325 318 302 306 307 312 307 314 312 268 267 267 263 261 262 254 251
425 455 466 472 473 471 462 452 436 425 416 411 410 409 411 423 439 460 467 473 473 400 359 363 352 343 346 343 344 348 312 303 301 301 297 308 313 314 309 285 306 310 299

GFSGL_2pvu_pres_123.txt.gz
Presure
241 250 220 216 224 225 201 206 196 195 196 191 192 183 179 188 184 181 184 178 184 178 187 173 184 187 136 179 188 219 188 202 245 226 206 239 226 211 208 210 212 190 186
231 230 239 218 208 231 199 197 192 194 195 198 192 189 194 196 177 184 122 187 189 178 176 142 187 143 183 198 174 196 184 200 251 222 211 238 221 217 217 215 204 212 201
257 234 214 229 223 204 204 197 196 194 197 197 188 183 182 180 183 142 184 183 189 175 182 190 177 181 192 161 191 180 202 192 203 242 215 195 228 218 209 207 210 208 202
233 239 240 232 237 221 208 199 199 197 194 195 198 192 184 145 183 182 182 183 183 183 143 179 180 174 158 193 214 216 202 207 198 267 221 200 211 219 210 198 212 222 213
240 257 257 242 229 227 219 214 205 200 192 195 195 197 197 194 186 186 184 185 183 179 187 192 188 191 168 180 178 183 210 217 200 200 245 211 198 234 222 202 210 208 199
245 250 246 242 233 227 226 224 215 204 204 200 194 200 200 195 203 195 191 187 193 190 188 190 206 157 156 204 169 221 211 201 193 203 217 213 200 197 220 222 205 199 203
233 243 249 239 230 188 226 225 224 215 205 206 205 197 197 204 206 210 196 187 227 233 228 191 198 221 218 156 185 223 163 211 218 208 224 220 203 194 194 222 203 208 207
256 253 238 246 242 233 226 224 226 224 220 212 209 209 208 208 206 207 204 203 201 200 181 195 183 202 156 177 224 218 188 215 218 209 224 210 220 202 193 192 230 212 204
257 257 252 244 236 240 244 228 225 224 224 222 220 220 220 221 220 143 216 216 210 208 206 205 187 199 141 204 196 209 206 216 188 212 217 220 212 220 203 193 189 181 196
235 244 250 247 243 236 234 239 245 241 233 231 233 224 214 221 224 221 217 221 227 225 224 224 221 193 203 200 208 205 166 211 214 207 205 217 227 195 228 203 194 191 177
232 233 234 235 234 234 236 235 236 235 237 235 239 237 236 235 227 226 234 228 228 231 213 212 221 222 204 208 209 211 197 222 224 208 224 243 231 223 224 227 204 194 188
229 232 231 232 229 229 235 233 230 230 234 232 223 233 228 243 222 233 241 245 206 228 227 227 220 203 225 218 220 216 218 208 211 206 241 252 247 239 231 187 218 205 194
235 222 225 218 234 233 236 232 229 228 239 234 228 229 233 231 231 231 230 226 231 242 230 236 226 212 207 212 219 219 204 191 226 222 224 224 243 257 235 232 178 215 207
226 224 226 241 242 229 236 246 225 242 230 229 245 243 241 238 239 239 240 247 244 242 226 231 214 210 203 209 227 213 218 200 231 211 222 221 226 230 256 230 228 222 212
238 238 237 240 240 233 227 232 239 239 227 246 237 237 236 240 238 238 234 232 231 234 226 226 230 219 216 216 211 200 221 216 238 216 214 210 208 224 226 238 232 227 226
249 242 256 249 247 256 243 234 242 247 244 229 241 230 243 232 231 235 229 229 235 235 247 251 245 233 225 216 218 226 227 212 213 219 217 205 206 221 223 202 225 231 222
253 257 252 252 250 252 259 259 254 247 249 247 246 235 242 246 230 240 238 230 228 233 244 258 239 239 234 225 225 220 223 227 223 219 212 211 202 207 246 233 231 229 222
255 255 255 259 256 255 255 257 258 259 260 256 254 256 254 258 242 245 258 240 234 234 228 238 242 239 237 228 237 231 218 214 216 216 225 225 227 229 225 236 218 193 210
322 326 330 333 313 342 324 310 316 282 277 271 266 261 264 256 262 247 249 262 250 239 237 237 236 230 238 235 217 219 225 223 229 224 227 222 209 212 220 222 221 229 217
311 315 310 307 307 312 318 321 327 336 343 350 356 349 288 278 265 270 262 262 255 264 250 239 232 242 239 241 239 236 236 228 232 230 227 220 227 225 235 228 223 224 234
278 301 306 311 314 319 330 348 369 386 410 485 434 424 538 372 384 298 279 268 270 262 260 266 254 242 240 243 232 240 248 242 229 238 238 248 237 227 234 236 239 239 234
278 283 294 295 315 332 350 369 409 471 481 492 509 515 514 512 510 509 421 303 274 276 273 268 264 263 259 249 246 247 247 249 238 248 248 253 242 255 230 240 233 240 236
286 292 311 326 338 359 440 471 479 488 492 493 497 491 488 485 481 482 483 491 385 374 333 273 278 271 268 266 267 263 256 260 252 248 254 247 255 254 251 245 239 239 241
305 322 329 346 375 472 488 503 480 493 488 487 478 473 466 462 458 455 455 459 467 472 381 361 362 289 279 276 278 271 269 268 268 270 261 255 253 250 252 252 253 252 252
320 336 346 442 486 482 470 461 500 488 480 472 464 458 450 445 439 437 437 438 442 449 457 483 432 363 355 358 367 299 287 283 280 277 277 276 276 276 274 270 265 265 262
335 347 434 483 473 468 504 502 487 475 467 459 452 445 437 430 426 422 420 421 423 426 432 450 472 479 483 416 363 351 348 352 355 343 340 323 315 311 309 308 307 307 310

GFSGL_2pvu_pres_126.txt.gz
Presure
260 243 257 251 254 203 268 280 275 230 245 214 220 192 194 178 182 190 184 185 185 193 187 185 184 190 185 184 173 174 196 171 187 191 194 179 209 226 245 200 245 223 217
284 306 302 303 294 256 280 235 259 203 244 228 213 193 194 186 178 181 180 183 182 130 182 177 190 183 182 189 184 147 187 180 187 186 188 169 207 194 248 227 237 229 194
281 285 284 265 265 249 239 236 247 218 229 223 202 203 180 194 180 172 172 177 190 187 181 173 159 179 190 101 190 184 198 192 189 178 184 194 208 209 219 220 197 219 220
232 245 249 255 241 233 237 225 226 208 220 217 200 211 202 188 193 188 184 189 186 182 192 193 185 190 176 144 172 183 181 193 191 166 206 205 159 210 197 235 208 210 224
230 239 266 250 237 236 232 230 230 191 229 227 216 222 199 191 195 192 185 178 180 183 189 188 184 183 185 182 187 183 182 172 171 193 196 200 227 212 186 200 232 214 212
241 238 235 244 238 226 235 246 231 216 193 248 241 195 203 192 190 194 193 187 182 183 181 181 180 185 191 191 181 155 177 182 185 212 196 198 204 216 224 202 225 214 192
243 236 250 243 237 218 247 217 215 227 239 204 204 213 198 203 205 192 182 191 195 193 194 194 195 193 194 189 176 197 182 147 209 194 189 162 215 177 192 212 217 217 214
241 239 251 225 231 214 217 224 210 220 255 247 221 217 213 209 196 201 204 204 194 190 195 199 190 180 197 163 193 165 173 187 203 212 158 203 207 231 157 200 204 196 218
232 237 244 246 224 227 223 256 246 256 248 255 235 226 224 218 212 210 207 202 197 205 203 204 204 202 201 150 194 195 193 203 195 152 196 196 213 211 225 194 189 175 208
236 251 244 226 251 249 244 218 249 256 253 241 235 228 220 220 219 222 216 213 212 210 205 205 206 204 167 201 142 202 199 202 174 205 203 192 215 209 182 200 225 196 208
229 236 235 240 244 224 222 215 226 229 218 238 244 235 232 231 228 227 229 225 224 223 220 219 216 215 219 216 215 207 203 196 194 214 217 200 205 188 203 221 207 223 205
246 230 237 235 237 237 236 233 225 237 242 248 229 231 225 227 227 236 235 228 228 232 233 237 235 228 221 179 226 215 223 216 218 222 208 202 207 200 217 204 218 207 232
217 225 236 238 237 227 229 229 232 237 228 236 233 230 230 232 219 237 241 239 239 236 236 238 238 235 219 217 230 230 225 217 221 230 232 199 220 213 203 219 206 205 238
240 251 225 233 236 247 246 237 238 239 235 233 232 228 233 237 234 237 238 237 239 236 233 231 231 232 228 223 215 226 228 230 219 214 213 215 221 208 211 204 218 218 208
239 234 240 236 235 236 246 239 234 231 233 230 235 232 230 234 235 234 231 229 231 230 232 236 231 234 238 237 233 228 229 219 217 221 221 216 216 215 202 211 195 220 211
224 228 234 248 236 233 230 233 236 247 249 238 234 240 246 246 230 237 245 231 251 239 230 239 238 239 240 239 247 237 229 227 235 227 221 221 217 216 213 217 230 231 214
251 253 254 252 258 259 260 264 265 263 264 268 243 241 252 250 251 244 243 246 251 243 240 245 241 241 243 239 241 239 247 235 227 221 224 215 211 214 205 210 225 235 214
291 286 282 281 283 282 294 294 294 290 286 283 272 273 283 280 272 262 264 255 246 251 238 251 241 245 243 245 245 242 238 231 227 226 220 223 211 218 214 213 211 200 204
299 295 294 295 296 296 298 299 302 306 313 327 342 353 361 368 329 282 277 279 281 270 266 265 240 243 242 248 239 244 233 237 238 237 234 226 223 237 233 227 224 224 229
272 270 273 284 287 295 300 306 313 318 324 331 331 344 354 358 359 359 365 376 307 274 270 279 264 267 256 259 252 248 248 244 231 239 238 244 241 233 232 233 226 227 226
268 267 270 278 285 289 292 296 306 346 369 380 395 406 526 530 532 528 534 538 539 372 378 295 278 268 281 266 270 260 252 253 249 242 240 241 242 240 242 239 219 212 215
259 264 266 267 278 280 283 294 337 381 505 510 512 505 499 497 509 517 511 509 509 513 516 518 373 325 286 278 270 286 267 266 251 254 251 235 241 251 233 232 236 235 237
255 260 264 268 281 282 293 337 395 516 504 496 491 512 503 511 503 495 490 484 483 485 488 490 494 497 439 351 282 273 281 269 270 266 259 256 250 245 239 249 242 241 245
255 260 267 270 283 294 334 368 512 502 494 525 522 512 501 492 483 477 471 464 463 462 463 464 465 471 481 495 469 363 272 279 280 268 269 271 266 258 251 251 253 252 252
260 265 271 284 293 328 351 515 505 492 450 428 415 494 484 476 467 461 454 449 449 448 445 443 446 448 451 455 471 481 475 388 301 272 277 279 272 267 272 267 263 261 258
265 274 281 292 313 342 490 511 481 434 421 420 410 480 473 464 457 450 443 440 434 432 429 426 427 429 432 437 442 450 461 470 465 409 333 289 280 271 268 272 274 273 272

GFSGL_2pvu_pres_129.txt.gz
Presure
319 272 264 241 191 205 186 186 181 192 178 177 186 182 169 189 212 207 198 186 177 192 178 184 174 178 183 179 179 188 184 185 186 163 187 177 183 161 185 185 201 216 242
308 317 260 256 246 188 188 225 237 217 242 180 231 225 204 171 199 214 203 182 192 186 181 203 136 183 186 197 185 194 194 180 192 182 159 131 196 189 195 197 201 200 203
297 290 277 277 252 199 244 214 211 221 227 186 226 207 197 253 210 194 201 191 194 188 183 194 184 192 187 186 191 181 195 178 191 176 170 196 184 194 192 168 203 201 216
279 272 272 265 270 277 290 236 181 185 180 251 216 195 200 221 216 217 205 201 192 173 183 180 180 183 187 174 182 193 180 192 151 192 145 191 154 185 181 189 191 223 188
286 256 251 273 274 280 277 264 280 261 271 195 277 270 250 232 233 252 217 193 164 194 189 192 181 184 189 179 183 183 188 172 187 166 191 183 183 192 177 186 211 190 226
229 236 241 240 241 260 255 248 246 235 252 250 251 247 240 233 238 238 204 183 205 196 189 177 192 186 184 190 172 191 186 181 177 182 190 179 191 183 200 188 194 199 192
235 233 232 225 234 237 238 239 238 251 239 239 236 238 231 226 197 234 228 226 209 206 193 190 192 194 192 185 181 174 176 185 190 189 168 188 155 205 201 174 202 154 201
239 230 227 230 226 232 238 245 244 249 241 239 239 236 238 224 234 235 186 215 203 206 203 193 192 193 191 190 176 190 191 186 189 166 189 148 172 195 198 201 182 157 203
239 238 246 232 239 237 229 253 232 256 230 247 237 236 231 209 231 238 203 205 248 226 215 201 202 195 192 190 191 183 176 190 177 181 155 199 163 144 213 173 177 205 167
234 226 244 243 248 254 255 240 232 246 199 227 235 224 248 227 214 223 215 238 215 231 212 203 193 194 195 199 194 200 200 201 200 134 192 174 162 216 203 199 206 150 208
228 234 244 230 225 247 235 237 260 242 237 229 237 235 233 243 243 245 233 230 243 246 217 219 210 210 210 207 205 207 207 205 203 203 177 140 187 197 196 201 189 203 172
224 225 225 225 236 230 232 242 251 246 253 254 258 219 221 229 226 251 255 258 253 245 254 234 228 221 217 214 212 208 208 206 210 205 204 196 198 204 199 206 189 211 210
219 226 229 228 229 235 225 227 239 237 236 243 240 246 245 244 245 212 218 246 254 252 237 239 235 228 227 226 224 222 218 212 213 214 216 214 209 169 220 211 219 171 214
228 224 238 221 217 223 235 220 234 241 238 244 239 238 238 237 236 240 246 248 243 234 238 248 243 238 239 237 235 228 225 224 223 224 229 232 231 224 221 223 218 224 231
239 228 229 232 237 242 237 241 235 235 239 247 241 240 238 245 244 240 241 242 240 242 243 235 238 238 233 236 234 246 248 248 246 244 236 221 234 223 214 224 224 214 207
212 227 223 221 218 220 226 222 242 241 242 243 231 253 251 243 253 246 243 241 240 246 239 239 243 240 240 239 238 242 238 235 237 237 238 236 228 221 215 212 207 217 221
269 258 266 267 246 257 238 248 253 259 242 243 261 258 250 254 269 244 259 239 238 231 248 230 244 239 237 239 242 242 238 237 239 235 233 228 230 228 228 229 228 227 218
269 250 249 252 265 265 264 317 318 274 309 324 325 330 331 299 306 306 281 285 273 274 264 244 245 241 254 240 236 244 233 240 232 229 234 243 240 238 237 233 225 222 218
303 298 294 292 288 287 286 285 284 289 290 291 291 294 311 322 329 342 347 343 346 345 322 309 310 280 256 260 253 262 239 242 251 248 243 245 239 236 239 239 236 236 234
283 277 272 271 270 267 267 270 274 276 280 287 291 294 299 310 326 342 371 514 541 550 549 499 347 348 294 301 284 271 268 265 254 249 239 259 250 244 245 244 238 244 242
267 262 257 255 256 265 271 274 274 275 277 284 290 295 306 324 547 543 564 552 540 536 521 518 521 530 355 366 374 303 292 283 274 268 258 255 252 250 246 242 241 238 243
258 255 257 258 261 259 263 266 275 272 279 284 289 305 398 525 494 472 464 532 524 516 509 504 504 505 509 515 522 413 363 301 296 280 281 271 265 256 253 249 243 242 240
252 253 260 261 255 254 261 269 267 278 284 290 306 509 472 456 446 444 435 482 503 495 491 488 482 481 484 488 494 500 503 492 368 302 282 274 280 268 272 261 250 249 250
249 253 263 263 260 255 261 269 274 280 292 309 480 457 444 439 436 442 428 493 485 478 472 469 465 459 459 465 469 473 478 487 498 493 359 305 290 276 280 273 268 265 262
249 255 259 261 271 264 277 281 279 291 339 470 450 436 425 421 408 422 424 480 472 465 457 453 449 447 446 447 449 452 454 460 470 472 453 404 417 316 287 279 274 272 271
251 256 256 261 270 275 279 284 292 347 459 444 425 411 404 402 400 391 420 412 467 458 451 443 439 437 435 434 434 435 436 439 443 449 458 439 442 389 394 351 291 284 268

GFSGL_2pvu_pres_132.txt.gz
Presure
323 385 474 276 269 158 200 177 207 192 176 158 194 152 152 184 168 206 166 154 192 171 193 175 182 174 188 167 185 183 159 197 190 199 207 196 193 194 174 185 179 190 148
280 300 336 270 254 251 233 183 206 188 188 200 203 168 193 182 183 203 182 156 170 161 167 205 178 187 186 173 181 188 176 154 208 210 174 181 199 187 192 160 187 193 191
274 313 312 377 266 230 218 185 179 194 226 197 204 187 180 206 195 177 174 180 179 167 173 170 178 209 185 186 191 172 162 170 187 183 180 92 185 187 182 196 193 144 192
289 301 308 295 337 263 192 190 200 186 180 230 179 178 206 206 190 201 192 201 177 187 179 233 209 165 191 190 185 200 193 190 191 159 204 198 199 196 189 191 181 185 193
297 288 297 286 283 298 196 236 231 193 217 187 180 211 232 193 195 228 191 221 195 245 184 175 177 212 207 199 193 198 177 209 191 193 238 197 173 186 190 196 170 192 191
259 261 269 281 272 289 240 193 201 195 182 180 231 225 200 198 188 232 218 193 175 165 272 198 182 255 190 202 200 200 184 193 197 190 174 169 180 188 182 171 182 192 193
267 259 244 247 247 264 270 278 259 197 188 239 222 193 224 194 190 231 195 190 260 259 186 168 175 227 219 210 208 204 197 195 199 190 198 191 189 179 169 179 193 192 190
237 239 238 239 255 255 251 253 254 251 227 197 234 205 267 192 204 196 219 226 212 169 164 180 226 213 236 213 212 203 200 201 195 201 191 192 170 194 192 195 183 181 192
234 227 229 228 237 234 239 237 242 250 248 252 239 188 238 239 187 204 235 204 202 246 248 245 236 243 209 232 213 213 201 178 199 197 181 183 182 185 191 178 134 198 189
236 236 239 240 227 224 232 239 234 230 243 242 252 244 241 255 243 261 246 245 262 250 251 251 238 228 244 198 225 243 212 213 198 199 201 192 187 196 190 173 192 140 202
219 218 234 217 227 235 241 236 230 233 237 241 248 236 237 253 251 261 242 252 242 252 242 241 242 196 221 215 228 214 224 215 213 202 194 193 203 204 204 199 194 200 196
228 229 227 232 222 231 233 227 230 249 246 250 250 259 251 259 241 237 265 240 251 256 227 230 232 254 224 228 220 224 213 227 226 212 209 202 195 195 199 200 201 202 174
233 222 224 227 228 227 228 224 237 245 243 237 242 250 237 241 242 272 241 265 229 234 229 250 219 219 237 238 241 244 240 232 217 243 221 216 213 207 196 201 210 211 205
240 225 224 223 222 220 226 233 237 237 239 236 235 230 231 244 240 255 253 269 257 252 249 238 245 243 242 235 238 256 252 252 241 256 272 247 217 215 213 213 214 213 210
225 206 220 225 213 235 223 236 234 234 226 228 243 232 229 235 241 237 236 244 249 258 263 261 259 261 265 236 234 237 254 269 266 259 247 248 236 229 225 223 221 220 218
251 227 230 234 225 230 226 229 239 242 249 253 245 241 242 247 251 247 260 243 253 258 260 257 260 260 257 253 254 256 260 256 242 242 250 251 245 243 242 238 232 230 231
247 247 245 236 252 265 268 270 265 260 249 241 247 253 260 260 266 274 269 249 279 254 256 260 268 271 266 250 253 257 253 251 252 258 256 251 240 256 260 260 257 250 235
241 255 280 313 277 251 250 250 250 264 264 264 268 268 317 319 319 297 322 321 289 327 327 295 296 280 270 267 262 258 252 251 251 252 251 252 254 252 247 243 242 241 241
292 303 314 332 316 303 297 291 288 288 288 286 284 284 285 287 285 287 285 286 291 294 303 307 308 308 318 326 347 325 289 280 273 256 245 248 252 246 245 249 245 245 244
305 317 298 292 286 279 278 276 277 274 272 272 272 269 273 271 276 279 293 294 303 316 322 323 336 352 516 499 494 506 482 456 324 282 279 264 250 258 247 237 239 239 240
291 281 273 267 268 267 265 264 264 265 265 266 277 278 282 289 277 291 300 306 309 316 336 478 476 474 467 472 530 526 520 519 527 356 368 296 289 265 263 248 251 251 247
267 262 260 262 261 260 261 263 261 258 262 271 270 276 279 282 292 296 303 309 364 456 452 455 462 468 516 512 506 505 499 495 507 517 515 385 366 319 284 274 265 268 254
261 258 259 257 257 257 255 257 262 264 269 269 274 282 292 292 320 304 393 441 430 424 430 418 438 500 495 488 484 481 479 477 483 493 502 510 478 351 350 337 291 281 276
255 255 254 252 252 254 253 256 260 265 269 282 291 282 330 302 350 443 433 427 419 412 404 412 404 471 477 470 466 462 462 461 462 472 476 487 492 495 349 339 366 363 300
245 247 250 253 254 257 260 257 260 279 316 335 335 308 321 452 435 440 441 439 430 419 411 404 397 419 468 456 452 449 450 451 448 451 456 465 471 475 480 486 332 335 362
249 253 257 254 254 253 253 268 299 318 339 339 327 432 445 427 405 442 430 424 431 426 419 406 399 412 446 452 442 439 437 437 436 437 440 446 449 453 460 469 470 457 345

GFSGL_2pvu_pres_135.txt.gz
Presure
303 250 334 437 489 439 292 206 186 188 148 185 184 157 149 171 153 139 129 165 158 146 185 216 181 176 189 187 197 207 184 178 200 162 161 180 199 170 215 206 197 205 185
276 300 292 342 295 446 292 187 227 186 189 173 184 180 160 183 171 162 186 127 144 152 145 178 170 160 161 146 171 199 195 170 170 171 191 169 168 185 170 192 141 210 181
256 263 268 321 371 332 207 218 188 276 193 192 176 189 188 185 163 180 146 188 170 156 172 150 153 159 157 156 176 162 163 195 193 193 176 184 193 198 164 156 201 196 136
249 253 260 272 318 363 193 202 189 258 182 196 195 202 181 185 179 189 174 192 197 184 179 187 194 165 155 153 152 156 159 166 168 168 181 161 188 188 190 187 181 203 192
278 289 292 274 284 323 201 191 185 254 190 203 180 176 213 186 190 180 180 180 207 183 196 176 198 177 184 186 178 170 170 188 179 178 190 195 186 196 186 198 191 198 211
252 275 270 294 289 308 332 240 244 244 268 204 226 210 209 185 175 190 187 212 199 189 178 204 195 195 194 211 193 209 227 238 196 159 168 171 169 207 204 206 182 192 199
250 258 251 277 278 287 317 281 245 237 199 246 198 201 185 188 181 192 213 204 184 209 181 210 210 191 203 179 206 201 218 171 167 187 166 171 189 199 208 200 194 194 175
258 250 255 249 254 256 272 285 249 227 240 221 198 192 202 191 181 184 213 210 218 211 191 190 211 213 217 216 181 208 163 212 188 163 210 185 180 210 215 213 205 205 199
249 257 242 236 239 245 255 255 273 272 193 268 192 188 180 192 189 183 219 192 268 256 217 244 191 258 186 193 203 187 186 167 204 188 170 198 193 227 208 188 208 200 198
234 230 241 256 239 246 244 249 260 257 254 199 261 175 255 189 196 204 191 194 188 196 199 182 278 182 174 174 191 269 216 185 195 170 183 242 216 241 224 204 201 201 201
227 227 223 238 243 238 244 240 248 256 251 255 234 234 202 257 258 187 190 261 214 223 203 200 184 195 186 242 198 188 243 194 204 266 271 253 248 236 216 222 210 209 203
221 219 230 226 224 241 235 238 235 236 243 244 244 248 233 201 199 192 253 230 197 258 195 221 223 224 192 232 257 225 251 221 235 236 234 238 219 233 195 229 216 204 200
232 224 221 223 227 232 228 226 243 243 227 244 249 254 253 265 266 260 260 243 243 250 251 279 252 244 253 261 252 261 238 250 237 220 240 237 239 236 222 191 190 189 195
219 226 198 240 233 221 217 224 227 232 235 236 233 241 241 247 253 253 254 261 253 250 247 256 255 254 260 264 240 260 273 250 235 252 252 251 247 219 234 216 240 238 227
225 228 236 224 218 226 235 239 229 248 239 238 234 234 239 238 240 250 251 253 252 254 253 252 253 251 250 261 264 261 283 249 228 251 250 253 233 244 244 238 238 232 236
251 250 222 221 222 233 235 235 239 249 247 237 240 248 241 240 245 243 243 247 249 253 257 252 259 264 263 254 245 242 261 262 272 250 271 268 246 247 249 259 249 256 267
235 252 250 251 260 263 264 265 240 244 251 248 237 243 252 252 255 266 271 273 270 269 272 273 273 274 275 270 272 273 270 275 255 258 258 262 264 273 274 272 271 244 244
253 254 258 255 249 248 252 251 259 255 259 259 264 267 290 291 320 321 319 322 325 327 327 324 323 325 330 335 341 346 307 315 314 306 266 273 281 272 264 263 263 263 257
269 273 277 286 300 295 299 330 311 304 305 303 300 297 298 298 296 294 291 291 291 292 294 299 303 306 309 310 308 310 315 319 325 332 339 350 357 321 292 281 276 264 264
277 287 286 285 287 324 304 292 288 284 281 279 278 275 272 274 275 278 279 284 289 287 296 306 310 319 324 323 327 329 319 328 331 325 320 320 320 321 336 348 304 310 274
278 283 288 285 302 286 284 276 272 267 268 270 267 267 268 271 274 274 280 283 288 291 302 381 383 480 465 336 335 454 457 458 510 536 532 533 527 363 324 319 321 334 294
284 294 309 287 277 272 266 264 263 260 263 263 267 268 268 273 277 278 277 282 349 367 398 473 458 457 460 452 442 436 431 436 457 515 510 506 507 508 507 516 385 322 322
300 287 274 268 261 260 261 260 256 257 260 264 269 268 271 275 276 300 388 368 435 464 452 430 411 411 453 449 446 433 423 422 483 490 487 484 484 486 491 494 501 495 398
271 265 259 258 256 254 254 254 260 264 265 272 269 261 275 313 338 378 367 465 446 424 406 397 449 442 433 438 439 431 422 414 476 469 466 465 463 465 470 476 481 488 482
255 256 257 255 254 254 252 257 262 267 268 263 267 309 315 330 375 388 452 433 411 399 444 439 432 430 424 421 438 427 418 410 442 456 450 448 446 450 452 454 467 475 476
255 256 254 255 255 255 258 265 265 259 260 302 303 314 349 371 421 443 426 406 391 440 454 470 459 446 426 416 444 426 414 407 406 447 440 436 434 438 442 441 446 457 464